﻿<?xml version="1.0" encoding="utf-8"?><gpx creator="Garmin Desktop App" version="1.1" xsi:schemaLocation="http://www.topografix.com/GPX/1/1 http://www.topografix.com/GPX/1/1/gpx.xsd http://www.garmin.com/xmlschemas/WaypointExtension/v1 http://www8.garmin.com/xmlschemas/WaypointExtensionv1.xsd http://www.garmin.com/xmlschemas/TrackPointExtension/v1 http://www.garmin.com/xmlschemas/TrackPointExtensionv1.xsd http://www.garmin.com/xmlschemas/GpxExtensions/v3 http://www8.garmin.com/xmlschemas/GpxExtensionsv3.xsd http://www.garmin.com/xmlschemas/ActivityExtension/v1 http://www8.garmin.com/xmlschemas/ActivityExtensionv1.xsd http://www.garmin.com/xmlschemas/AdventuresExtensions/v1 http://www8.garmin.com/xmlschemas/AdventuresExtensionv1.xsd http://www.garmin.com/xmlschemas/PressureExtension/v1 http://www.garmin.com/xmlschemas/PressureExtensionv1.xsd http://www.garmin.com/xmlschemas/TripExtensions/v1 http://www.garmin.com/xmlschemas/TripExtensionsv1.xsd http://www.garmin.com/xmlschemas/TripMetaDataExtensions/v1 http://www.garmin.com/xmlschemas/TripMetaDataExtensionsv1.xsd http://www.garmin.com/xmlschemas/ViaPointTransportationModeExtensions/v1 http://www.garmin.com/xmlschemas/ViaPointTransportationModeExtensionsv1.xsd http://www.garmin.com/xmlschemas/CreationTimeExtension/v1 http://www.garmin.com/xmlschemas/CreationTimeExtensionsv1.xsd http://www.garmin.com/xmlschemas/AccelerationExtension/v1 http://www.garmin.com/xmlschemas/AccelerationExtensionv1.xsd http://www.garmin.com/xmlschemas/PowerExtension/v1 http://www.garmin.com/xmlschemas/PowerExtensionv1.xsd http://www.garmin.com/xmlschemas/VideoExtension/v1 http://www.garmin.com/xmlschemas/VideoExtensionv1.xsd" xmlns="http://www.topografix.com/GPX/1/1" xmlns:xsi="http://www.w3.org/2001/XMLSchema-instance" xmlns:wptx1="http://www.garmin.com/xmlschemas/WaypointExtension/v1" xmlns:gpxtrx="http://www.garmin.com/xmlschemas/GpxExtensions/v3" xmlns:gpxtpx="http://www.garmin.com/xmlschemas/TrackPointExtension/v1" xmlns:gpxx="http://www.garmin.com/xmlschemas/GpxExtensions/v3" xmlns:trp="http://www.garmin.com/xmlschemas/TripExtensions/v1" xmlns:adv="http://www.garmin.com/xmlschemas/AdventuresExtensions/v1" xmlns:prs="http://www.garmin.com/xmlschemas/PressureExtension/v1" xmlns:tmd="http://www.garmin.com/xmlschemas/TripMetaDataExtensions/v1" xmlns:vptm="http://www.garmin.com/xmlschemas/ViaPointTransportationModeExtensions/v1" xmlns:ctx="http://www.garmin.com/xmlschemas/CreationTimeExtension/v1" xmlns:gpxacc="http://www.garmin.com/xmlschemas/AccelerationExtension/v1" xmlns:gpxpx="http://www.garmin.com/xmlschemas/PowerExtension/v1" xmlns:vidx1="http://www.garmin.com/xmlschemas/VideoExtension/v1">

  <metadata>
    <link href="http://www.garmin.com">
      <text>Garmin International</text>
    </link>
    <time>2021-01-19T19:20:27Z</time>
    <bounds maxlat="45.85427837446332" maxlon="7.940911380574107" minlat="45.843312749639153" minlon="7.914256593212485" />
  </metadata>

  <trk>
    <name>val d'otro2019-02-03</name>
    <extensions>
      <gpxx:TrackExtension>
        <gpxx:DisplayColor>Yellow</gpxx:DisplayColor>
      </gpxx:TrackExtension>
      <gpxtrkx:TrackStatsExtension xmlns:gpxtrkx="http://www.garmin.com/xmlschemas/TrackStatsExtension/v1">
        <gpxtrkx:Distance>10776</gpxtrkx:Distance>
        <gpxtrkx:TotalElapsedTime>21914</gpxtrkx:TotalElapsedTime>
        <gpxtrkx:MovingTime>12161</gpxtrkx:MovingTime>
        <gpxtrkx:StoppedTime>9743</gpxtrkx:StoppedTime>
        <gpxtrkx:MovingSpeed>1</gpxtrkx:MovingSpeed>
        <gpxtrkx:MaxSpeed>2</gpxtrkx:MaxSpeed>
        <gpxtrkx:MaxElevation>1744</gpxtrkx:MaxElevation>
        <gpxtrkx:MinElevation>1155</gpxtrkx:MinElevation>
        <gpxtrkx:Ascent>1082</gpxtrkx:Ascent>
        <gpxtrkx:Descent>1116</gpxtrkx:Descent>
        <gpxtrkx:AvgAscentRate>0</gpxtrkx:AvgAscentRate>
        <gpxtrkx:MaxAscentRate>1</gpxtrkx:MaxAscentRate>
        <gpxtrkx:AvgDescentRate>0</gpxtrkx:AvgDescentRate>
        <gpxtrkx:MaxDescentRate>-2</gpxtrkx:MaxDescentRate>
      </gpxtrkx:TrackStatsExtension>
    </extensions>
    <trkseg>
      <trkpt lat="45.85427837446332" lon="7.937804376706481">
        <ele>1191.21</ele>
        <time>2019-02-03T09:07:42Z</time>
      </trkpt>
      <trkpt lat="45.854269657284021" lon="7.937804125249386">
        <ele>1192.6500000000001</ele>
        <time>2019-02-03T09:08:06Z</time>
      </trkpt>
      <trkpt lat="45.854277871549129" lon="7.937775207683444">
        <ele>1193.1300000000001</ele>
        <time>2019-02-03T09:08:15Z</time>
      </trkpt>
      <trkpt lat="45.854277284815907" lon="7.93777110055089">
        <ele>1193.1300000000001</ele>
        <time>2019-02-03T09:08:25Z</time>
      </trkpt>
      <trkpt lat="45.854242667555809" lon="7.937768083065748">
        <ele>1192.1700000000001</ele>
        <time>2019-02-03T09:08:40Z</time>
      </trkpt>
      <trkpt lat="45.854240572080016" lon="7.937766825780273">
        <ele>1192.1700000000001</ele>
        <time>2019-02-03T09:08:41Z</time>
      </trkpt>
      <trkpt lat="45.854246439412236" lon="7.937753414735198">
        <ele>1191.6900000000001</ele>
        <time>2019-02-03T09:08:42Z</time>
      </trkpt>
      <trkpt lat="45.854254150763154" lon="7.937753833830357">
        <ele>1190.25</ele>
        <time>2019-02-03T09:08:51Z</time>
      </trkpt>
      <trkpt lat="45.854228502139449" lon="7.937821475788951">
        <ele>1187.3699999999999</ele>
        <time>2019-02-03T09:09:09Z</time>
      </trkpt>
      <trkpt lat="45.854203440248966" lon="7.937837401404977">
        <ele>1186.4000000000001</ele>
        <time>2019-02-03T09:09:24Z</time>
      </trkpt>
      <trkpt lat="45.854187179356813" lon="7.937858607620001">
        <ele>1187.3699999999999</ele>
        <time>2019-02-03T09:09:39Z</time>
      </trkpt>
      <trkpt lat="45.854173768311739" lon="7.937817284837365">
        <ele>1187.3699999999999</ele>
        <time>2019-02-03T09:09:43Z</time>
      </trkpt>
      <trkpt lat="45.854105204343796" lon="7.937743607908487">
        <ele>1187.3699999999999</ele>
        <time>2019-02-03T09:09:52Z</time>
      </trkpt>
      <trkpt lat="45.854103611782193" lon="7.937695998698473">
        <ele>1188.8099999999999</ele>
        <time>2019-02-03T09:09:55Z</time>
      </trkpt>
      <trkpt lat="45.854105707257986" lon="7.937655262649059">
        <ele>1189.29</ele>
        <time>2019-02-03T09:09:57Z</time>
      </trkpt>
      <trkpt lat="45.854105539619923" lon="7.937467088922858">
        <ele>1190.73</ele>
        <time>2019-02-03T09:10:08Z</time>
      </trkpt>
      <trkpt lat="45.854026330634952" lon="7.937365248799324">
        <ele>1188.3299999999999</ele>
        <time>2019-02-03T09:10:18Z</time>
      </trkpt>
      <trkpt lat="45.853978637605906" lon="7.937334235757589">
        <ele>1186.8800000000001</ele>
        <time>2019-02-03T09:10:23Z</time>
      </trkpt>
      <trkpt lat="45.853967573493719" lon="7.937329541891813">
        <ele>1186.8800000000001</ele>
        <time>2019-02-03T09:10:24Z</time>
      </trkpt>
      <trkpt lat="45.853957934305072" lon="7.937320321798325">
        <ele>1187.3699999999999</ele>
        <time>2019-02-03T09:10:25Z</time>
      </trkpt>
      <trkpt lat="45.853949300944805" lon="7.937309509143233">
        <ele>1187.8499999999999</ele>
        <time>2019-02-03T09:10:26Z</time>
      </trkpt>
      <trkpt lat="45.853931363672018" lon="7.937291655689478">
        <ele>1188.8099999999999</ele>
        <time>2019-02-03T09:10:28Z</time>
      </trkpt>
      <trkpt lat="45.85383421741426" lon="7.937225606292486">
        <ele>1188.8099999999999</ele>
        <time>2019-02-03T09:10:39Z</time>
      </trkpt>
      <trkpt lat="45.853742184117436" lon="7.937139607965946">
        <ele>1188.8099999999999</ele>
        <time>2019-02-03T09:10:51Z</time>
      </trkpt>
      <trkpt lat="45.853695580735803" lon="7.937054028734565">
        <ele>1188.8099999999999</ele>
        <time>2019-02-03T09:11:00Z</time>
      </trkpt>
      <trkpt lat="45.853636153042316" lon="7.937091495841742">
        <ele>1189.29</ele>
        <time>2019-02-03T09:11:09Z</time>
      </trkpt>
      <trkpt lat="45.853629531338811" lon="7.937116473913193">
        <ele>1189.77</ele>
        <time>2019-02-03T09:11:19Z</time>
      </trkpt>
      <trkpt lat="45.853600529953837" lon="7.937122844159603">
        <ele>1189.77</ele>
        <time>2019-02-03T09:11:30Z</time>
      </trkpt>
      <trkpt lat="45.853567086160183" lon="7.937108930200338">
        <ele>1190.25</ele>
        <time>2019-02-03T09:11:36Z</time>
      </trkpt>
      <trkpt lat="45.85350975394249" lon="7.937045646831393">
        <ele>1189.29</ele>
        <time>2019-02-03T09:11:44Z</time>
      </trkpt>
      <trkpt lat="45.853494163602591" lon="7.937030475586653">
        <ele>1189.29</ele>
        <time>2019-02-03T09:11:46Z</time>
      </trkpt>
      <trkpt lat="45.853470861911774" lon="7.936985129490495">
        <ele>1188.8099999999999</ele>
        <time>2019-02-03T09:11:50Z</time>
      </trkpt>
      <trkpt lat="45.853460552170873" lon="7.936952020972967">
        <ele>1188.3299999999999</ele>
        <time>2019-02-03T09:11:55Z</time>
      </trkpt>
      <trkpt lat="45.853416798636317" lon="7.936830315738916">
        <ele>1189.77</ele>
        <time>2019-02-03T09:12:06Z</time>
      </trkpt>
      <trkpt lat="45.853363908827305" lon="7.936781281605363">
        <ele>1189.29</ele>
        <time>2019-02-03T09:12:13Z</time>
      </trkpt>
      <trkpt lat="45.853330381214619" lon="7.936754291877151">
        <ele>1188.3299999999999</ele>
        <time>2019-02-03T09:12:17Z</time>
      </trkpt>
      <trkpt lat="45.853193588554859" lon="7.936658067628741">
        <ele>1186.8800000000001</ele>
        <time>2019-02-03T09:12:31Z</time>
      </trkpt>
      <trkpt lat="45.853117313235998" lon="7.936623869463801">
        <ele>1186.8800000000001</ele>
        <time>2019-02-03T09:12:41Z</time>
      </trkpt>
      <trkpt lat="45.853116475045681" lon="7.936628395691514">
        <ele>1186.8800000000001</ele>
        <time>2019-02-03T09:12:43Z</time>
      </trkpt>
      <trkpt lat="45.853053275495768" lon="7.936609452590346">
        <ele>1187.3699999999999</ele>
        <time>2019-02-03T09:12:48Z</time>
      </trkpt>
      <trkpt lat="45.852992674335837" lon="7.936623701825738">
        <ele>1186.8800000000001</ele>
        <time>2019-02-03T09:12:53Z</time>
      </trkpt>
      <trkpt lat="45.85285747423768" lon="7.93673325330019">
        <ele>1188.3299999999999</ele>
        <time>2019-02-03T09:13:05Z</time>
      </trkpt>
      <trkpt lat="45.852742893621325" lon="7.936733001843095">
        <ele>1188.3299999999999</ele>
        <time>2019-02-03T09:13:13Z</time>
      </trkpt>
      <trkpt lat="45.852602245286107" lon="7.936753453686833">
        <ele>1186.8800000000001</ele>
        <time>2019-02-03T09:13:24Z</time>
      </trkpt>
      <trkpt lat="45.852502416819334" lon="7.936763260513544">
        <ele>1186.4000000000001</ele>
        <time>2019-02-03T09:13:35Z</time>
      </trkpt>
      <trkpt lat="45.852382807061076" lon="7.936801901087165">
        <ele>1186.8800000000001</ele>
        <time>2019-02-03T09:13:46Z</time>
      </trkpt>
      <trkpt lat="45.852336790412664" lon="7.936817072331905">
        <ele>1188.3299999999999</ele>
        <time>2019-02-03T09:13:49Z</time>
      </trkpt>
      <trkpt lat="45.85229555144906" lon="7.93680801987648">
        <ele>1187.8499999999999</ele>
        <time>2019-02-03T09:13:52Z</time>
      </trkpt>
      <trkpt lat="45.852244505658746" lon="7.936833081766963">
        <ele>1187.8499999999999</ele>
        <time>2019-02-03T09:13:55Z</time>
      </trkpt>
      <trkpt lat="45.852227490395308" lon="7.936840876936913">
        <ele>1187.8499999999999</ele>
        <time>2019-02-03T09:13:56Z</time>
      </trkpt>
      <trkpt lat="45.852159513160586" lon="7.936826124787331">
        <ele>1187.8499999999999</ele>
        <time>2019-02-03T09:14:02Z</time>
      </trkpt>
      <trkpt lat="45.852147527039051" lon="7.936828304082155">
        <ele>1187.8499999999999</ele>
        <time>2019-02-03T09:14:03Z</time>
      </trkpt>
      <trkpt lat="45.852133445441723" lon="7.936834171414375">
        <ele>1187.3699999999999</ele>
        <time>2019-02-03T09:14:04Z</time>
      </trkpt>
      <trkpt lat="45.852119447663426" lon="7.936836769804359">
        <ele>1187.3699999999999</ele>
        <time>2019-02-03T09:14:05Z</time>
      </trkpt>
      <trkpt lat="45.852108299732208" lon="7.936834841966629">
        <ele>1187.3699999999999</ele>
        <time>2019-02-03T09:14:06Z</time>
      </trkpt>
      <trkpt lat="45.852091871201992" lon="7.936838027089834">
        <ele>1187.3699999999999</ele>
        <time>2019-02-03T09:14:07Z</time>
      </trkpt>
      <trkpt lat="45.852075358852744" lon="7.936844564974308">
        <ele>1187.3699999999999</ele>
        <time>2019-02-03T09:14:08Z</time>
      </trkpt>
      <trkpt lat="45.852054823189974" lon="7.936855545267463">
        <ele>1186.8800000000001</ele>
        <time>2019-02-03T09:14:09Z</time>
      </trkpt>
      <trkpt lat="45.852036802098155" lon="7.93686225079">
        <ele>1186.8800000000001</ele>
        <time>2019-02-03T09:14:10Z</time>
      </trkpt>
      <trkpt lat="45.852003190666437" lon="7.936856970191002">
        <ele>1185.9200000000001</ele>
        <time>2019-02-03T09:14:14Z</time>
      </trkpt>
      <trkpt lat="45.851994305849075" lon="7.936854707077146">
        <ele>1185.9200000000001</ele>
        <time>2019-02-03T09:14:15Z</time>
      </trkpt>
      <trkpt lat="45.85197988897562" lon="7.936852360144258">
        <ele>1186.4000000000001</ele>
        <time>2019-02-03T09:14:16Z</time>
      </trkpt>
      <trkpt lat="45.851964969187975" lon="7.936853114515543">
        <ele>1186.4000000000001</ele>
        <time>2019-02-03T09:14:17Z</time>
      </trkpt>
      <trkpt lat="45.851951893419027" lon="7.936852360144258">
        <ele>1186.4000000000001</ele>
        <time>2019-02-03T09:14:18Z</time>
      </trkpt>
      <trkpt lat="45.851937644183636" lon="7.936854287981987">
        <ele>1186.4000000000001</ele>
        <time>2019-02-03T09:14:19Z</time>
      </trkpt>
      <trkpt lat="45.851927669718862" lon="7.936853030696511">
        <ele>1186.4000000000001</ele>
        <time>2019-02-03T09:14:20Z</time>
      </trkpt>
      <trkpt lat="45.851915264502168" lon="7.936850851401687">
        <ele>1186.4000000000001</ele>
        <time>2019-02-03T09:14:21Z</time>
      </trkpt>
      <trkpt lat="45.851747039705515" lon="7.936762506142259">
        <ele>1186.4000000000001</ele>
        <time>2019-02-03T09:14:35Z</time>
      </trkpt>
      <trkpt lat="45.851757349446416" lon="7.936706934124231">
        <ele>1186.8800000000001</ele>
        <time>2019-02-03T09:14:43Z</time>
      </trkpt>
      <trkpt lat="45.851646792143583" lon="7.936644656583667">
        <ele>1187.8499999999999</ele>
        <time>2019-02-03T09:14:54Z</time>
      </trkpt>
      <trkpt lat="45.851600272580981" lon="7.936619259417057">
        <ele>1187.8499999999999</ele>
        <time>2019-02-03T09:14:58Z</time>
      </trkpt>
      <trkpt lat="45.851591303944588" lon="7.936610290780664">
        <ele>1187.8499999999999</ele>
        <time>2019-02-03T09:14:59Z</time>
      </trkpt>
      <trkpt lat="45.851510418578982" lon="7.936537535861135">
        <ele>1188.3299999999999</ele>
        <time>2019-02-03T09:15:09Z</time>
      </trkpt>
      <trkpt lat="45.851385276764631" lon="7.936473330482841">
        <ele>1187.8499999999999</ele>
        <time>2019-02-03T09:15:20Z</time>
      </trkpt>
      <trkpt lat="45.851373542100191" lon="7.936468301340938">
        <ele>1187.8499999999999</ele>
        <time>2019-02-03T09:15:21Z</time>
      </trkpt>
      <trkpt lat="45.85135099478066" lon="7.936458494514227">
        <ele>1187.3699999999999</ele>
        <time>2019-02-03T09:15:23Z</time>
      </trkpt>
      <trkpt lat="45.851342529058456" lon="7.936446592211723">
        <ele>1187.3699999999999</ele>
        <time>2019-02-03T09:15:24Z</time>
      </trkpt>
      <trkpt lat="45.851331884041429" lon="7.936434941366315">
        <ele>1187.3699999999999</ele>
        <time>2019-02-03T09:15:25Z</time>
      </trkpt>
      <trkpt lat="45.851316126063466" lon="7.936427732929587">
        <ele>1187.3699999999999</ele>
        <time>2019-02-03T09:15:26Z</time>
      </trkpt>
      <trkpt lat="45.851304894313216" lon="7.936419853940606">
        <ele>1187.3699999999999</ele>
        <time>2019-02-03T09:15:27Z</time>
      </trkpt>
      <trkpt lat="45.851291986182332" lon="7.936414489522576">
        <ele>1186.8800000000001</ele>
        <time>2019-02-03T09:15:28Z</time>
      </trkpt>
      <trkpt lat="45.851276479661465" lon="7.936413064599037">
        <ele>1187.3699999999999</ele>
        <time>2019-02-03T09:15:29Z</time>
      </trkpt>
      <trkpt lat="45.851262481883168" lon="7.936408538371325">
        <ele>1187.3699999999999</ele>
        <time>2019-02-03T09:15:30Z</time>
      </trkpt>
      <trkpt lat="45.851254183799028" lon="7.936397306621075">
        <ele>1187.3699999999999</ele>
        <time>2019-02-03T09:15:31Z</time>
      </trkpt>
      <trkpt lat="45.851245634257793" lon="7.936388505622745">
        <ele>1187.3699999999999</ele>
        <time>2019-02-03T09:15:32Z</time>
      </trkpt>
      <trkpt lat="45.851237419992685" lon="7.936376435682178">
        <ele>1187.8499999999999</ele>
        <time>2019-02-03T09:15:33Z</time>
      </trkpt>
      <trkpt lat="45.85123130120337" lon="7.936364030465484">
        <ele>1187.3699999999999</ele>
        <time>2019-02-03T09:15:34Z</time>
      </trkpt>
      <trkpt lat="45.851206323131919" lon="7.936252467334271">
        <ele>1189.29</ele>
        <time>2019-02-03T09:15:45Z</time>
      </trkpt>
      <trkpt lat="45.851156199350953" lon="7.936212318018079">
        <ele>1189.77</ele>
        <time>2019-02-03T09:15:53Z</time>
      </trkpt>
      <trkpt lat="45.85112719796598" lon="7.93617183342576">
        <ele>1190.25</ele>
        <time>2019-02-03T09:15:57Z</time>
      </trkpt>
      <trkpt lat="45.851115128025413" lon="7.936135958880186">
        <ele>1189.29</ele>
        <time>2019-02-03T09:16:04Z</time>
      </trkpt>
      <trkpt lat="45.851105321198702" lon="7.936123386025429">
        <ele>1188.8099999999999</ele>
        <time>2019-02-03T09:16:05Z</time>
      </trkpt>
      <trkpt lat="45.851092580705881" lon="7.936108717694879">
        <ele>1188.8099999999999</ele>
        <time>2019-02-03T09:16:06Z</time>
      </trkpt>
      <trkpt lat="45.851080678403378" lon="7.936090026050806">
        <ele>1188.8099999999999</ele>
        <time>2019-02-03T09:16:07Z</time>
      </trkpt>
      <trkpt lat="45.851069949567318" lon="7.936073429882526">
        <ele>1188.8099999999999</ele>
        <time>2019-02-03T09:16:08Z</time>
      </trkpt>
      <trkpt lat="45.851061651483178" lon="7.936059599742293">
        <ele>1188.8099999999999</ele>
        <time>2019-02-03T09:16:09Z</time>
      </trkpt>
      <trkpt lat="45.85105343721807" lon="7.936047529801726">
        <ele>1188.3299999999999</ele>
        <time>2019-02-03T09:16:10Z</time>
      </trkpt>
      <trkpt lat="45.850977078080177" lon="7.935964297503233">
        <ele>1187.3699999999999</ele>
        <time>2019-02-03T09:16:20Z</time>
      </trkpt>
      <trkpt lat="45.85097573697567" lon="7.935977708548307">
        <ele>1187.3699999999999</ele>
        <time>2019-02-03T09:16:26Z</time>
      </trkpt>
      <trkpt lat="45.850912369787693" lon="7.935996064916253">
        <ele>1186.8800000000001</ele>
        <time>2019-02-03T09:16:34Z</time>
      </trkpt>
      <trkpt lat="45.850924523547292" lon="7.935968656092882">
        <ele>1187.8499999999999</ele>
        <time>2019-02-03T09:16:44Z</time>
      </trkpt>
      <trkpt lat="45.850953105837107" lon="7.935867486521602">
        <ele>1188.8099999999999</ele>
        <time>2019-02-03T09:16:53Z</time>
      </trkpt>
      <trkpt lat="45.850954949855804" lon="7.93579213321209">
        <ele>1188.8099999999999</ele>
        <time>2019-02-03T09:17:03Z</time>
      </trkpt>
      <trkpt lat="45.850919662043452" lon="7.935713259503245">
        <ele>1189.29</ele>
        <time>2019-02-03T09:17:13Z</time>
      </trkpt>
      <trkpt lat="45.8509327378124" lon="7.935622818768024">
        <ele>1190.25</ele>
        <time>2019-02-03T09:17:24Z</time>
      </trkpt>
      <trkpt lat="45.850912453606725" lon="7.935534557327628">
        <ele>1190.73</ele>
        <time>2019-02-03T09:17:35Z</time>
      </trkpt>
      <trkpt lat="45.850908262655139" lon="7.935523325577378">
        <ele>1190.73</ele>
        <time>2019-02-03T09:17:36Z</time>
      </trkpt>
      <trkpt lat="45.85086727514863" lon="7.935470435768366">
        <ele>1191.6900000000001</ele>
        <time>2019-02-03T09:17:47Z</time>
      </trkpt>
      <trkpt lat="45.850834837183356" lon="7.935381671413779">
        <ele>1192.6500000000001</ele>
        <time>2019-02-03T09:17:57Z</time>
      </trkpt>
      <trkpt lat="45.850819582119584" lon="7.935350993648171">
        <ele>1192.1700000000001</ele>
        <time>2019-02-03T09:18:12Z</time>
      </trkpt>
      <trkpt lat="45.850807512179017" lon="7.935288464650512">
        <ele>1192.6500000000001</ele>
        <time>2019-02-03T09:18:22Z</time>
      </trkpt>
      <trkpt lat="45.850776666775346" lon="7.935201544314623">
        <ele>1194.5799999999999</ele>
        <time>2019-02-03T09:18:33Z</time>
      </trkpt>
      <trkpt lat="45.850761076435447" lon="7.935108924284577">
        <ele>1196.02</ele>
        <time>2019-02-03T09:18:43Z</time>
      </trkpt>
      <trkpt lat="45.850750179961324" lon="7.935045557096601">
        <ele>1198.4200000000001</ele>
        <time>2019-02-03T09:18:52Z</time>
      </trkpt>
      <trkpt lat="45.850737523287535" lon="7.934975400567055">
        <ele>1199.3800000000001</ele>
        <time>2019-02-03T09:19:00Z</time>
      </trkpt>
      <trkpt lat="45.850675329566002" lon="7.934912201017141">
        <ele>1199.8599999999999</ele>
        <time>2019-02-03T09:19:11Z</time>
      </trkpt>
      <trkpt lat="45.850636940449476" lon="7.934879260137677">
        <ele>1201.3</ele>
        <time>2019-02-03T09:19:23Z</time>
      </trkpt>
      <trkpt lat="45.850634844973683" lon="7.934866268187761">
        <ele>1201.3</ele>
        <time>2019-02-03T09:19:24Z</time>
      </trkpt>
      <trkpt lat="45.850575836375356" lon="7.934765098616481">
        <ele>1203.23</ele>
        <time>2019-02-03T09:19:36Z</time>
      </trkpt>
      <trkpt lat="45.850595030933619" lon="7.934765350073576">
        <ele>1204.6700000000001</ele>
        <time>2019-02-03T09:19:50Z</time>
      </trkpt>
      <trkpt lat="45.850575584918261" lon="7.934807259589434">
        <ele>1205.6300000000001</ele>
        <time>2019-02-03T09:20:02Z</time>
      </trkpt>
      <trkpt lat="45.850562676787376" lon="7.934813713654876">
        <ele>1207.0699999999999</ele>
        <time>2019-02-03T09:20:16Z</time>
      </trkpt>
      <trkpt lat="45.850558234378695" lon="7.934830477461219">
        <ele>1209</ele>
        <time>2019-02-03T09:20:20Z</time>
      </trkpt>
      <trkpt lat="45.850554211065173" lon="7.934867022559047">
        <ele>1211.8800000000001</ele>
        <time>2019-02-03T09:20:35Z</time>
      </trkpt>
      <trkpt lat="45.850551277399063" lon="7.934851013123989">
        <ele>1213.8</ele>
        <time>2019-02-03T09:20:51Z</time>
      </trkpt>
      <trkpt lat="45.850607687607408" lon="7.934845732524991">
        <ele>1216.21</ele>
        <time>2019-02-03T09:21:00Z</time>
      </trkpt>
      <trkpt lat="45.850623529404402" lon="7.934842463582754">
        <ele>1218.1300000000001</ele>
        <time>2019-02-03T09:21:16Z</time>
      </trkpt>
      <trkpt lat="45.850579021498561" lon="7.93487012386322">
        <ele>1218.6099999999999</ele>
        <time>2019-02-03T09:21:31Z</time>
      </trkpt>
      <trkpt lat="45.850560497492552" lon="7.934886384755373">
        <ele>1219.5699999999999</ele>
        <time>2019-02-03T09:21:43Z</time>
      </trkpt>
      <trkpt lat="45.850517163053155" lon="7.934944136068225">
        <ele>1219.0899999999999</ele>
        <time>2019-02-03T09:21:58Z</time>
      </trkpt>
      <trkpt lat="45.850518839433789" lon="7.934913290664554">
        <ele>1220.53</ele>
        <time>2019-02-03T09:22:17Z</time>
      </trkpt>
      <trkpt lat="45.850567538291216" lon="7.934855706989765">
        <ele>1221.97</ele>
        <time>2019-02-03T09:22:31Z</time>
      </trkpt>
      <trkpt lat="45.850585643202066" lon="7.934860568493605">
        <ele>1222.9300000000001</ele>
        <time>2019-02-03T09:22:50Z</time>
      </trkpt>
      <trkpt lat="45.850601736456156" lon="7.934828381985426">
        <ele>1221.97</ele>
        <time>2019-02-03T09:23:13Z</time>
      </trkpt>
      <trkpt lat="45.8506547100842" lon="7.934779347851872">
        <ele>1220.53</ele>
        <time>2019-02-03T09:23:29Z</time>
      </trkpt>
      <trkpt lat="45.850669546052814" lon="7.934797704219818">
        <ele>1219.0899999999999</ele>
        <time>2019-02-03T09:23:43Z</time>
      </trkpt>
      <trkpt lat="45.85067474283278" lon="7.934787143021822">
        <ele>1217.1700000000001</ele>
        <time>2019-02-03T09:24:01Z</time>
      </trkpt>
      <trkpt lat="45.85065177641809" lon="7.934773564338684">
        <ele>1218.1300000000001</ele>
        <time>2019-02-03T09:24:30Z</time>
      </trkpt>
      <trkpt lat="45.850632078945637" lon="7.934796363115311">
        <ele>1217.1700000000001</ele>
        <time>2019-02-03T09:24:51Z</time>
      </trkpt>
      <trkpt lat="45.850624786689878" lon="7.934848833829165">
        <ele>1217.6500000000001</ele>
        <time>2019-02-03T09:25:07Z</time>
      </trkpt>
      <trkpt lat="45.850612465292215" lon="7.934858556836844">
        <ele>1217.1700000000001</ele>
        <time>2019-02-03T09:25:27Z</time>
      </trkpt>
      <trkpt lat="45.850605089217424" lon="7.93482318520546">
        <ele>1219.5699999999999</ele>
        <time>2019-02-03T09:25:52Z</time>
      </trkpt>
      <trkpt lat="45.850581452250481" lon="7.934875823557377">
        <ele>1219.5699999999999</ele>
        <time>2019-02-03T09:26:13Z</time>
      </trkpt>
      <trkpt lat="45.850563514977694" lon="7.934903064742684">
        <ele>1219.5699999999999</ele>
        <time>2019-02-03T09:26:32Z</time>
      </trkpt>
      <trkpt lat="45.850545661523938" lon="7.93493265286088">
        <ele>1219.0899999999999</ele>
        <time>2019-02-03T09:26:49Z</time>
      </trkpt>
      <trkpt lat="45.850491933524609" lon="7.934959391131997">
        <ele>1217.1700000000001</ele>
        <time>2019-02-03T09:27:01Z</time>
      </trkpt>
      <trkpt lat="45.85050375200808" lon="7.934935335069895">
        <ele>1216.21</ele>
        <time>2019-02-03T09:27:15Z</time>
      </trkpt>
      <trkpt lat="45.850505260750651" lon="7.934928545728326">
        <ele>1215.24</ele>
        <time>2019-02-03T09:27:33Z</time>
      </trkpt>
      <trkpt lat="45.850548008456826" lon="7.934909015893936">
        <ele>1212.3599999999999</ele>
        <time>2019-02-03T09:27:43Z</time>
      </trkpt>
      <trkpt lat="45.850580278784037" lon="7.934870794415474">
        <ele>1209.96</ele>
        <time>2019-02-03T09:27:50Z</time>
      </trkpt>
      <trkpt lat="45.850615901872516" lon="7.934833830222487">
        <ele>1207.0699999999999</ele>
        <time>2019-02-03T09:27:56Z</time>
      </trkpt>
      <trkpt lat="45.850638952106237" lon="7.934813043102622">
        <ele>1207.55</ele>
        <time>2019-02-03T09:28:14Z</time>
      </trkpt>
      <trkpt lat="45.850625708699226" lon="7.934802398085594">
        <ele>1206.1099999999999</ele>
        <time>2019-02-03T09:28:31Z</time>
      </trkpt>
      <trkpt lat="45.850618584081531" lon="7.93478948995471">
        <ele>1207.55</ele>
        <time>2019-02-03T09:28:43Z</time>
      </trkpt>
      <trkpt lat="45.850604083389044" lon="7.934757806360722">
        <ele>1207.0699999999999</ele>
        <time>2019-02-03T09:28:53Z</time>
      </trkpt>
      <trkpt lat="45.850536357611418" lon="7.934684464707971">
        <ele>1207.55</ele>
        <time>2019-02-03T09:29:03Z</time>
      </trkpt>
      <trkpt lat="45.850459663197398" lon="7.934644147753716">
        <ele>1208.03</ele>
        <time>2019-02-03T09:29:14Z</time>
      </trkpt>
      <trkpt lat="45.850428231060505" lon="7.934635933488607">
        <ele>1208.51</ele>
        <time>2019-02-03T09:29:26Z</time>
      </trkpt>
      <trkpt lat="45.850377101451159" lon="7.9346380289644">
        <ele>1210.9200000000001</ele>
        <time>2019-02-03T09:29:37Z</time>
      </trkpt>
      <trkpt lat="45.85037475451827" lon="7.934611877426505">
        <ele>1212.8399999999999</ele>
        <time>2019-02-03T09:29:49Z</time>
      </trkpt>
      <trkpt lat="45.850407443940639" lon="7.934604501351714">
        <ele>1214.76</ele>
        <time>2019-02-03T09:30:00Z</time>
      </trkpt>
      <trkpt lat="45.850396631285548" lon="7.934679100289941">
        <ele>1216.6900000000001</ele>
        <time>2019-02-03T09:30:08Z</time>
      </trkpt>
      <trkpt lat="45.850421022623777" lon="7.934691421687603">
        <ele>1216.21</ele>
        <time>2019-02-03T09:30:15Z</time>
      </trkpt>
      <trkpt lat="45.850471230223775" lon="7.934638531878591">
        <ele>1214.28</ele>
        <time>2019-02-03T09:30:19Z</time>
      </trkpt>
      <trkpt lat="45.850454466417432" lon="7.9346604924649">
        <ele>1215.24</ele>
        <time>2019-02-03T09:30:35Z</time>
      </trkpt>
      <trkpt lat="45.850437032058835" lon="7.934690415859222">
        <ele>1218.6099999999999</ele>
        <time>2019-02-03T09:30:48Z</time>
      </trkpt>
      <trkpt lat="45.850425884127617" lon="7.934691086411476">
        <ele>1219.5699999999999</ele>
        <time>2019-02-03T09:30:52Z</time>
      </trkpt>
      <trkpt lat="45.85040207952261" lon="7.934628389775753">
        <ele>1219.0899999999999</ele>
        <time>2019-02-03T09:31:01Z</time>
      </trkpt>
      <trkpt lat="45.850393027067184" lon="7.934597544372082">
        <ele>1219.0899999999999</ele>
        <time>2019-02-03T09:31:04Z</time>
      </trkpt>
      <trkpt lat="45.850376598536968" lon="7.934532416984439">
        <ele>1219.0899999999999</ele>
        <time>2019-02-03T09:31:12Z</time>
      </trkpt>
      <trkpt lat="45.850357068702579" lon="7.934496961534023">
        <ele>1218.6099999999999</ele>
        <time>2019-02-03T09:31:21Z</time>
      </trkpt>
      <trkpt lat="45.850292779505253" lon="7.934492686763406">
        <ele>1219.0899999999999</ele>
        <time>2019-02-03T09:31:30Z</time>
      </trkpt>
      <trkpt lat="45.850232765078545" lon="7.93444013223052">
        <ele>1219.0899999999999</ele>
        <time>2019-02-03T09:31:41Z</time>
      </trkpt>
      <trkpt lat="45.850178450345993" lon="7.934413477778435">
        <ele>1218.1300000000001</ele>
        <time>2019-02-03T09:31:49Z</time>
      </trkpt>
      <trkpt lat="45.850113406777382" lon="7.934383051469922">
        <ele>1218.1300000000001</ele>
        <time>2019-02-03T09:31:57Z</time>
      </trkpt>
      <trkpt lat="45.850080549716949" lon="7.934386320412159">
        <ele>1217.6500000000001</ele>
        <time>2019-02-03T09:32:01Z</time>
      </trkpt>
      <trkpt lat="45.850033946335316" lon="7.934359833598137">
        <ele>1215.24</ele>
        <time>2019-02-03T09:32:08Z</time>
      </trkpt>
      <trkpt lat="45.850002178922296" lon="7.934336448088288">
        <ele>1214.76</ele>
        <time>2019-02-03T09:32:18Z</time>
      </trkpt>
      <trkpt lat="45.84999606013298" lon="7.934296717867255">
        <ele>1215.72</ele>
        <time>2019-02-03T09:32:27Z</time>
      </trkpt>
      <trkpt lat="45.849975943565369" lon="7.934292024001479">
        <ele>1218.1300000000001</ele>
        <time>2019-02-03T09:32:38Z</time>
      </trkpt>
      <trkpt lat="45.850023301318288" lon="7.934282384812832">
        <ele>1219.5699999999999</ele>
        <time>2019-02-03T09:32:47Z</time>
      </trkpt>
      <trkpt lat="45.850033443421125" lon="7.934247851371765">
        <ele>1220.53</ele>
        <time>2019-02-03T09:32:58Z</time>
      </trkpt>
      <trkpt lat="45.850042663514614" lon="7.934228992089629">
        <ele>1222.45</ele>
        <time>2019-02-03T09:33:09Z</time>
      </trkpt>
      <trkpt lat="45.850053476169705" lon="7.934209797531366">
        <ele>1223.4200000000001</ele>
        <time>2019-02-03T09:33:21Z</time>
      </trkpt>
      <trkpt lat="45.850048447027802" lon="7.934172749519348">
        <ele>1225.3399999999999</ele>
        <time>2019-02-03T09:33:35Z</time>
      </trkpt>
      <trkpt lat="45.850060014054179" lon="7.934168558567762">
        <ele>1228.22</ele>
        <time>2019-02-03T09:33:48Z</time>
      </trkpt>
      <trkpt lat="45.850049452856183" lon="7.934196051210165">
        <ele>1230.6199999999999</ele>
        <time>2019-02-03T09:34:04Z</time>
      </trkpt>
      <trkpt lat="45.850060600787401" lon="7.93423293158412">
        <ele>1231.1099999999999</ele>
        <time>2019-02-03T09:34:17Z</time>
      </trkpt>
      <trkpt lat="45.850045848637819" lon="7.934287497773767">
        <ele>1229.6600000000001</ele>
        <time>2019-02-03T09:34:30Z</time>
      </trkpt>
      <trkpt lat="45.849985918030143" lon="7.934296634048224">
        <ele>1228.7</ele>
        <time>2019-02-03T09:34:47Z</time>
      </trkpt>
      <trkpt lat="45.849969070404768" lon="7.934301663190126">
        <ele>1227.26</ele>
        <time>2019-02-03T09:34:50Z</time>
      </trkpt>
      <trkpt lat="45.849965298548341" lon="7.934279032051563">
        <ele>1224.3800000000001</ele>
        <time>2019-02-03T09:34:59Z</time>
      </trkpt>
      <trkpt lat="45.84996622055769" lon="7.934270231053233">
        <ele>1223.4200000000001</ele>
        <time>2019-02-03T09:35:01Z</time>
      </trkpt>
      <trkpt lat="45.849922634661198" lon="7.934273667633534">
        <ele>1223.9000000000001</ele>
        <time>2019-02-03T09:35:11Z</time>
      </trkpt>
      <trkpt lat="45.849930346012115" lon="7.934237038716674">
        <ele>1222.45</ele>
        <time>2019-02-03T09:35:25Z</time>
      </trkpt>
      <trkpt lat="45.849921796470881" lon="7.934317756444216">
        <ele>1223.9000000000001</ele>
        <time>2019-02-03T09:35:44Z</time>
      </trkpt>
      <trkpt lat="45.849915342405438" lon="7.934284983202815">
        <ele>1224.8599999999999</ele>
        <time>2019-02-03T09:35:58Z</time>
      </trkpt>
      <trkpt lat="45.849927579984069" lon="7.934231255203486">
        <ele>1227.74</ele>
        <time>2019-02-03T09:36:11Z</time>
      </trkpt>
      <trkpt lat="45.849923053756356" lon="7.934187082573772">
        <ele>1231.1099999999999</ele>
        <time>2019-02-03T09:36:23Z</time>
      </trkpt>
      <trkpt lat="45.849924478679895" lon="7.93418993242085">
        <ele>1233.99</ele>
        <time>2019-02-03T09:36:37Z</time>
      </trkpt>
      <trkpt lat="45.849923389032483" lon="7.934196470305324">
        <ele>1236.8699999999999</ele>
        <time>2019-02-03T09:36:49Z</time>
      </trkpt>
      <trkpt lat="45.849919449537992" lon="7.934254389256239">
        <ele>1236.3900000000001</ele>
        <time>2019-02-03T09:37:01Z</time>
      </trkpt>
      <trkpt lat="45.849953480064869" lon="7.9342046007514">
        <ele>1238.3199999999999</ele>
        <time>2019-02-03T09:37:12Z</time>
      </trkpt>
      <trkpt lat="45.849938644096255" lon="7.9342080373317">
        <ele>1241.2</ele>
        <time>2019-02-03T09:37:22Z</time>
      </trkpt>
      <trkpt lat="45.849935710430145" lon="7.93417626991868">
        <ele>1243.1199999999999</ele>
        <time>2019-02-03T09:37:26Z</time>
      </trkpt>
      <trkpt lat="45.849934620782733" lon="7.934150621294975">
        <ele>1243.1199999999999</ele>
        <time>2019-02-03T09:37:38Z</time>
      </trkpt>
      <trkpt lat="45.849921125918627" lon="7.934152716770768">
        <ele>1246.49</ele>
        <time>2019-02-03T09:37:46Z</time>
      </trkpt>
      <trkpt lat="45.849934704601765" lon="7.934190351516008">
        <ele>1249.8499999999999</ele>
        <time>2019-02-03T09:38:02Z</time>
      </trkpt>
      <trkpt lat="45.849968232214451" lon="7.934191692620516">
        <ele>1248.8900000000001</ele>
        <time>2019-02-03T09:38:13Z</time>
      </trkpt>
      <trkpt lat="45.849971249699593" lon="7.934191608801484">
        <ele>1249.3699999999999</ele>
        <time>2019-02-03T09:38:26Z</time>
      </trkpt>
      <trkpt lat="45.849986504763365" lon="7.934270901605487">
        <ele>1248.8900000000001</ele>
        <time>2019-02-03T09:38:37Z</time>
      </trkpt>
      <trkpt lat="45.850008130073547" lon="7.934291353449225">
        <ele>1249.3699999999999</ele>
        <time>2019-02-03T09:38:48Z</time>
      </trkpt>
      <trkpt lat="45.850028414279222" lon="7.934217257425189">
        <ele>1248.8900000000001</ele>
        <time>2019-02-03T09:39:00Z</time>
      </trkpt>
      <trkpt lat="45.850030509755015" lon="7.934245420619845">
        <ele>1252.25</ele>
        <time>2019-02-03T09:39:07Z</time>
      </trkpt>
      <trkpt lat="45.850000586360693" lon="7.934280289337039">
        <ele>1253.22</ele>
        <time>2019-02-03T09:39:22Z</time>
      </trkpt>
      <trkpt lat="45.849988851696253" lon="7.934277271851897">
        <ele>1253.22</ele>
        <time>2019-02-03T09:39:23Z</time>
      </trkpt>
      <trkpt lat="45.849926825612783" lon="7.93427349999547">
        <ele>1250.8099999999999</ele>
        <time>2019-02-03T09:39:31Z</time>
      </trkpt>
      <trkpt lat="45.849913414567709" lon="7.934276014566422">
        <ele>1250.8099999999999</ele>
        <time>2019-02-03T09:39:32Z</time>
      </trkpt>
      <trkpt lat="45.849846443161368" lon="7.934275511652231">
        <ele>1247.9300000000001</ele>
        <time>2019-02-03T09:39:38Z</time>
      </trkpt>
      <trkpt lat="45.849830014631152" lon="7.934276852756739">
        <ele>1247.9300000000001</ele>
        <time>2019-02-03T09:39:39Z</time>
      </trkpt>
      <trkpt lat="45.849753990769386" lon="7.934280373156071">
        <ele>1244.0799999999999</ele>
        <time>2019-02-03T09:39:45Z</time>
      </trkpt>
      <trkpt lat="45.849719708785415" lon="7.934260340407491">
        <ele>1240.72</ele>
        <time>2019-02-03T09:39:49Z</time>
      </trkpt>
      <trkpt lat="45.849712667986751" lon="7.934256317093968">
        <ele>1240.24</ele>
        <time>2019-02-03T09:39:50Z</time>
      </trkpt>
      <trkpt lat="45.849664723500609" lon="7.934251707047224">
        <ele>1236.8699999999999</ele>
        <time>2019-02-03T09:39:55Z</time>
      </trkpt>
      <trkpt lat="45.849660029634833" lon="7.93425690382719">
        <ele>1234.47</ele>
        <time>2019-02-03T09:40:00Z</time>
      </trkpt>
      <trkpt lat="45.849633626639843" lon="7.934233099222183">
        <ele>1232.0699999999999</ele>
        <time>2019-02-03T09:40:11Z</time>
      </trkpt>
      <trkpt lat="45.84962323307991" lon="7.934211809188128">
        <ele>1230.6199999999999</ele>
        <time>2019-02-03T09:40:24Z</time>
      </trkpt>
      <trkpt lat="45.849616443738341" lon="7.934232261031866">
        <ele>1233.03</ele>
        <time>2019-02-03T09:40:38Z</time>
      </trkpt>
      <trkpt lat="45.849603870883584" lon="7.934227986261249">
        <ele>1235.4300000000001</ele>
        <time>2019-02-03T09:40:55Z</time>
      </trkpt>
      <trkpt lat="45.849592471495271" lon="7.934178868308663">
        <ele>1236.8699999999999</ele>
        <time>2019-02-03T09:41:15Z</time>
      </trkpt>
      <trkpt lat="45.849608816206455" lon="7.934191441163421">
        <ele>1234.95</ele>
        <time>2019-02-03T09:41:36Z</time>
      </trkpt>
      <trkpt lat="45.849631782621145" lon="7.934181885793805">
        <ele>1236.8699999999999</ele>
        <time>2019-02-03T09:41:53Z</time>
      </trkpt>
      <trkpt lat="45.849572857841849" lon="7.934218598529697">
        <ele>1233.99</ele>
        <time>2019-02-03T09:41:59Z</time>
      </trkpt>
      <trkpt lat="45.849560368806124" lon="7.934223208576441">
        <ele>1233.51</ele>
        <time>2019-02-03T09:42:00Z</time>
      </trkpt>
      <trkpt lat="45.849548885598779" lon="7.934229578822851">
        <ele>1233.03</ele>
        <time>2019-02-03T09:42:01Z</time>
      </trkpt>
      <trkpt lat="45.849510496482253" lon="7.934245336800814">
        <ele>1231.5899999999999</ele>
        <time>2019-02-03T09:42:04Z</time>
      </trkpt>
      <trkpt lat="45.849495828151703" lon="7.934247851371765">
        <ele>1231.1099999999999</ele>
        <time>2019-02-03T09:42:05Z</time>
      </trkpt>
      <trkpt lat="45.849445117637515" lon="7.934257825836539">
        <ele>1227.74</ele>
        <time>2019-02-03T09:42:10Z</time>
      </trkpt>
      <trkpt lat="45.849420977756381" lon="7.934258580207825">
        <ele>1226.3</ele>
        <time>2019-02-03T09:42:12Z</time>
      </trkpt>
      <trkpt lat="45.849391305819154" lon="7.93426763266325">
        <ele>1225.3399999999999</ele>
        <time>2019-02-03T09:42:14Z</time>
      </trkpt>
      <trkpt lat="45.849328273907304" lon="7.934233015403152">
        <ele>1222.45</ele>
        <time>2019-02-03T09:42:19Z</time>
      </trkpt>
      <trkpt lat="45.849315449595451" lon="7.934227315708995">
        <ele>1221.49</ele>
        <time>2019-02-03T09:42:20Z</time>
      </trkpt>
      <trkpt lat="45.84927873685956" lon="7.934214659035206">
        <ele>1220.53</ele>
        <time>2019-02-03T09:42:23Z</time>
      </trkpt>
      <trkpt lat="45.849269181489944" lon="7.934209043160081">
        <ele>1219.5699999999999</ele>
        <time>2019-02-03T09:42:24Z</time>
      </trkpt>
      <trkpt lat="45.849260715767741" lon="7.934203846380115">
        <ele>1219.0899999999999</ele>
        <time>2019-02-03T09:42:25Z</time>
      </trkpt>
      <trkpt lat="45.849248813465238" lon="7.934198062866926">
        <ele>1218.6099999999999</ele>
        <time>2019-02-03T09:42:26Z</time>
      </trkpt>
      <trkpt lat="45.849218722432852" lon="7.934180209413171">
        <ele>1216.21</ele>
        <time>2019-02-03T09:42:29Z</time>
      </trkpt>
      <trkpt lat="45.849170861765742" lon="7.934136874973774">
        <ele>1213.3199999999999</ele>
        <time>2019-02-03T09:42:34Z</time>
      </trkpt>
      <trkpt lat="45.84916147403419" lon="7.93412740342319">
        <ele>1212.8399999999999</ele>
        <time>2019-02-03T09:42:35Z</time>
      </trkpt>
      <trkpt lat="45.849149152636528" lon="7.934122877195478">
        <ele>1212.8399999999999</ele>
        <time>2019-02-03T09:42:36Z</time>
      </trkpt>
      <trkpt lat="45.849135406315327" lon="7.934122961014509">
        <ele>1212.3599999999999</ele>
        <time>2019-02-03T09:42:37Z</time>
      </trkpt>
      <trkpt lat="45.849119480699301" lon="7.934119943529367">
        <ele>1211.4000000000001</ele>
        <time>2019-02-03T09:42:38Z</time>
      </trkpt>
      <trkpt lat="45.849073715507984" lon="7.934089433401823">
        <ele>1209</ele>
        <time>2019-02-03T09:42:43Z</time>
      </trkpt>
      <trkpt lat="45.849057789891958" lon="7.93406629934907">
        <ele>1208.03</ele>
        <time>2019-02-03T09:42:45Z</time>
      </trkpt>
      <trkpt lat="45.849027363583446" lon="7.934049284085631">
        <ele>1207.0699999999999</ele>
        <time>2019-02-03T09:42:49Z</time>
      </trkpt>
      <trkpt lat="45.848972210660577" lon="7.93401257134974">
        <ele>1207.0699999999999</ele>
        <time>2019-02-03T09:42:58Z</time>
      </trkpt>
      <trkpt lat="45.848901802673936" lon="7.933983905240893">
        <ele>1207.55</ele>
        <time>2019-02-03T09:43:08Z</time>
      </trkpt>
      <trkpt lat="45.848837262019515" lon="7.933969991281629">
        <ele>1208.51</ele>
        <time>2019-02-03T09:43:16Z</time>
      </trkpt>
      <trkpt lat="45.84880574606359" lon="7.933981390669942">
        <ele>1208.51</ele>
        <time>2019-02-03T09:43:26Z</time>
      </trkpt>
      <trkpt lat="45.848792418837547" lon="7.934011984616518">
        <ele>1210.4400000000001</ele>
        <time>2019-02-03T09:43:33Z</time>
      </trkpt>
      <trkpt lat="45.848802058026195" lon="7.934028245508671">
        <ele>1213.8</ele>
        <time>2019-02-03T09:43:40Z</time>
      </trkpt>
      <trkpt lat="45.848784623667598" lon="7.934037297964096">
        <ele>1216.6900000000001</ele>
        <time>2019-02-03T09:43:46Z</time>
      </trkpt>
      <trkpt lat="45.848770290613174" lon="7.934047859162092">
        <ele>1220.53</ele>
        <time>2019-02-03T09:43:51Z</time>
      </trkpt>
      <trkpt lat="45.848763752728701" lon="7.934053223580122">
        <ele>1223.4200000000001</ele>
        <time>2019-02-03T09:44:01Z</time>
      </trkpt>
      <trkpt lat="45.848768027499318" lon="7.934051463380456">
        <ele>1226.78</ele>
        <time>2019-02-03T09:44:22Z</time>
      </trkpt>
      <trkpt lat="45.848796190693974" lon="7.934049535542727">
        <ele>1229.1800000000001</ele>
        <time>2019-02-03T09:44:39Z</time>
      </trkpt>
      <trkpt lat="45.84877691231668" lon="7.934085074812174">
        <ele>1231.1099999999999</ele>
        <time>2019-02-03T09:44:47Z</time>
      </trkpt>
      <trkpt lat="45.848739696666598" lon="7.934103598818183">
        <ele>1231.5899999999999</ele>
        <time>2019-02-03T09:44:54Z</time>
      </trkpt>
      <trkpt lat="45.848701139912009" lon="7.934102173894644">
        <ele>1232.0699999999999</ele>
        <time>2019-02-03T09:44:59Z</time>
      </trkpt>
      <trkpt lat="45.848622852936387" lon="7.934084823355079">
        <ele>1231.5899999999999</ele>
        <time>2019-02-03T09:45:08Z</time>
      </trkpt>
      <trkpt lat="45.848541548475623" lon="7.934088008478284">
        <ele>1232.0699999999999</ele>
        <time>2019-02-03T09:45:18Z</time>
      </trkpt>
      <trkpt lat="45.848511289805174" lon="7.934085326269269">
        <ele>1231.5899999999999</ele>
        <time>2019-02-03T09:45:28Z</time>
      </trkpt>
      <trkpt lat="45.848462507128716" lon="7.934080045670271">
        <ele>1233.51</ele>
        <time>2019-02-03T09:45:36Z</time>
      </trkpt>
      <trkpt lat="45.848399559035897" lon="7.934076860547066">
        <ele>1235.4300000000001</ele>
        <time>2019-02-03T09:45:44Z</time>
      </trkpt>
      <trkpt lat="45.848408360034227" lon="7.93406629934907">
        <ele>1236.3900000000001</ele>
        <time>2019-02-03T09:45:53Z</time>
      </trkpt>
      <trkpt lat="45.848451275378466" lon="7.934056576341391">
        <ele>1234.95</ele>
        <time>2019-02-03T09:45:58Z</time>
      </trkpt>
      <trkpt lat="45.848527634516358" lon="7.934065964072943">
        <ele>1233.03</ele>
        <time>2019-02-03T09:46:05Z</time>
      </trkpt>
      <trkpt lat="45.848591085523367" lon="7.934012738987804">
        <ele>1230.1400000000001</ele>
        <time>2019-02-03T09:46:14Z</time>
      </trkpt>
      <trkpt lat="45.848626038059592" lon="7.934004692360759">
        <ele>1227.74</ele>
        <time>2019-02-03T09:46:23Z</time>
      </trkpt>
      <trkpt lat="45.848603406921029" lon="7.933957166969776">
        <ele>1228.22</ele>
        <time>2019-02-03T09:46:33Z</time>
      </trkpt>
      <trkpt lat="45.848573315888643" lon="7.933948701247573">
        <ele>1229.6600000000001</ele>
        <time>2019-02-03T09:46:41Z</time>
      </trkpt>
      <trkpt lat="45.848528975620866" lon="7.933940989896655">
        <ele>1231.5899999999999</ele>
        <time>2019-02-03T09:46:49Z</time>
      </trkpt>
      <trkpt lat="45.848480947315693" lon="7.933893715962768">
        <ele>1233.03</ele>
        <time>2019-02-03T09:47:01Z</time>
      </trkpt>
      <trkpt lat="45.84844708442688" lon="7.933850297704339">
        <ele>1234.95</ele>
        <time>2019-02-03T09:47:10Z</time>
      </trkpt>
      <trkpt lat="45.848474577069283" lon="7.933846358209848">
        <ele>1237.3499999999999</ele>
        <time>2019-02-03T09:47:21Z</time>
      </trkpt>
      <trkpt lat="45.84850961342454" lon="7.933836216107011">
        <ele>1238.8</ele>
        <time>2019-02-03T09:47:31Z</time>
      </trkpt>
      <trkpt lat="45.848538698628545" lon="7.933811908587813">
        <ele>1238.3199999999999</ele>
        <time>2019-02-03T09:47:42Z</time>
      </trkpt>
      <trkpt lat="45.848517240956426" lon="7.933791289106011">
        <ele>1240.24</ele>
        <time>2019-02-03T09:47:52Z</time>
      </trkpt>
      <trkpt lat="45.848491759970784" lon="7.933758934959769">
        <ele>1243.5999999999999</ele>
        <time>2019-02-03T09:48:02Z</time>
      </trkpt>
      <trkpt lat="45.848483545705676" lon="7.933760108426213">
        <ele>1244.0799999999999</ele>
        <time>2019-02-03T09:48:03Z</time>
      </trkpt>
      <trkpt lat="45.848456472158432" lon="7.933749798685312">
        <ele>1241.6800000000001</ele>
        <time>2019-02-03T09:48:12Z</time>
      </trkpt>
      <trkpt lat="45.848393440246582" lon="7.933681067079306">
        <ele>1241.2</ele>
        <time>2019-02-03T09:48:24Z</time>
      </trkpt>
      <trkpt lat="45.848364438861609" lon="7.93363437987864">
        <ele>1241.2</ele>
        <time>2019-02-03T09:48:37Z</time>
      </trkpt>
      <trkpt lat="45.848320852965117" lon="7.933605378493667">
        <ele>1245.04</ele>
        <time>2019-02-03T09:48:48Z</time>
      </trkpt>
      <trkpt lat="45.848324289545417" lon="7.933608563616872">
        <ele>1247.9300000000001</ele>
        <time>2019-02-03T09:48:54Z</time>
      </trkpt>
      <trkpt lat="45.848332587629557" lon="7.933600684627891">
        <ele>1250.8099999999999</ele>
        <time>2019-02-03T09:49:00Z</time>
      </trkpt>
      <trkpt lat="45.848322948440909" lon="7.933562211692333">
        <ele>1252.74</ele>
        <time>2019-02-03T09:49:11Z</time>
      </trkpt>
      <trkpt lat="45.848333677276969" lon="7.933534132316709">
        <ele>1254.6600000000001</ele>
        <time>2019-02-03T09:49:23Z</time>
      </trkpt>
      <trkpt lat="45.848373239859939" lon="7.933498593047261">
        <ele>1256.0999999999999</ele>
        <time>2019-02-03T09:49:34Z</time>
      </trkpt>
      <trkpt lat="45.848360834643245" lon="7.933483589440584">
        <ele>1256.5799999999999</ele>
        <time>2019-02-03T09:49:40Z</time>
      </trkpt>
      <trkpt lat="45.848314566537738" lon="7.933482835069299">
        <ele>1257.54</ele>
        <time>2019-02-03T09:49:49Z</time>
      </trkpt>
      <trkpt lat="45.848308280110359" lon="7.933490462601185">
        <ele>1258.98</ele>
        <time>2019-02-03T09:49:56Z</time>
      </trkpt>
      <trkpt lat="45.848327139392495" lon="7.933502364903688">
        <ele>1261.8699999999999</ele>
        <time>2019-02-03T09:50:07Z</time>
      </trkpt>
      <trkpt lat="45.848354632034898" lon="7.933546537533402">
        <ele>1265.23</ele>
        <time>2019-02-03T09:50:24Z</time>
      </trkpt>
      <trkpt lat="45.84832638502121" lon="7.933561708778143">
        <ele>1268.1199999999999</ele>
        <time>2019-02-03T09:50:30Z</time>
      </trkpt>
      <trkpt lat="45.848295707255602" lon="7.933566402643919">
        <ele>1268.1199999999999</ele>
        <time>2019-02-03T09:50:37Z</time>
      </trkpt>
      <trkpt lat="45.848276680335402" lon="7.933600684627891">
        <ele>1267.1600000000001</ele>
        <time>2019-02-03T09:50:48Z</time>
      </trkpt>
      <trkpt lat="45.848271232098341" lon="7.933606216683984">
        <ele>1266.6700000000001</ele>
        <time>2019-02-03T09:50:55Z</time>
      </trkpt>
      <trkpt lat="45.848233429715037" lon="7.933673188090324">
        <ele>1267.6400000000001</ele>
        <time>2019-02-03T09:51:04Z</time>
      </trkpt>
      <trkpt lat="45.848181713372469" lon="7.933684084564447">
        <ele>1269.0799999999999</ele>
        <time>2019-02-03T09:51:15Z</time>
      </trkpt>
      <trkpt lat="45.848138462752104" lon="7.933676457032561">
        <ele>1269.5599999999999</ele>
        <time>2019-02-03T09:51:27Z</time>
      </trkpt>
      <trkpt lat="45.848086327314377" lon="7.933657681569457">
        <ele>1270.52</ele>
        <time>2019-02-03T09:51:37Z</time>
      </trkpt>
      <trkpt lat="45.848079873248935" lon="7.933612251654267">
        <ele>1269.0799999999999</ele>
        <time>2019-02-03T09:51:48Z</time>
      </trkpt>
      <trkpt lat="45.848110634833574" lon="7.933589955791831">
        <ele>1271</ele>
        <time>2019-02-03T09:51:57Z</time>
      </trkpt>
      <trkpt lat="45.848152544349432" lon="7.933566570281982">
        <ele>1272.9200000000001</ele>
        <time>2019-02-03T09:52:07Z</time>
      </trkpt>
      <trkpt lat="45.84814072586596" lon="7.933550393208861">
        <ele>1274.8499999999999</ele>
        <time>2019-02-03T09:52:15Z</time>
      </trkpt>
      <trkpt lat="45.848141815513372" lon="7.933570677414537">
        <ele>1278.21</ele>
        <time>2019-02-03T09:52:27Z</time>
      </trkpt>
      <trkpt lat="45.848133768886328" lon="7.933598002418876">
        <ele>1281.5699999999999</ele>
        <time>2019-02-03T09:52:34Z</time>
      </trkpt>
      <trkpt lat="45.848123459145427" lon="7.933591715991497">
        <ele>1283.98</ele>
        <time>2019-02-03T09:52:39Z</time>
      </trkpt>
      <trkpt lat="45.848079454153776" lon="7.933577718213201">
        <ele>1286.3800000000001</ele>
        <time>2019-02-03T09:52:50Z</time>
      </trkpt>
      <trkpt lat="45.848070150241256" lon="7.933593057096005">
        <ele>1289.75</ele>
        <time>2019-02-03T09:52:59Z</time>
      </trkpt>
      <trkpt lat="45.848071491345763" lon="7.933592554181814">
        <ele>1290.71</ele>
        <time>2019-02-03T09:53:01Z</time>
      </trkpt>
      <trkpt lat="45.848063444718719" lon="7.933631530031562">
        <ele>1294.0699999999999</ele>
        <time>2019-02-03T09:53:08Z</time>
      </trkpt>
      <trkpt lat="45.848060846328735" lon="7.933631865307689">
        <ele>1294.55</ele>
        <time>2019-02-03T09:53:09Z</time>
      </trkpt>
      <trkpt lat="45.848037041723728" lon="7.933682324364781">
        <ele>1297.4400000000001</ele>
        <time>2019-02-03T09:53:19Z</time>
      </trkpt>
      <trkpt lat="45.848055733367801" lon="7.933670924976468">
        <ele>1299.8399999999999</ele>
        <time>2019-02-03T09:53:30Z</time>
      </trkpt>
      <trkpt lat="45.848073503002524" lon="7.933685006573796">
        <ele>1302.72</ele>
        <time>2019-02-03T09:53:40Z</time>
      </trkpt>
      <trkpt lat="45.848090853542089" lon="7.933668745681644">
        <ele>1306.0899999999999</ele>
        <time>2019-02-03T09:53:53Z</time>
      </trkpt>
      <trkpt lat="45.848076771944761" lon="7.933675032109022">
        <ele>1308.01</ele>
        <time>2019-02-03T09:54:03Z</time>
      </trkpt>
      <trkpt lat="45.848093032836914" lon="7.933623064309359">
        <ele>1304.6500000000001</ele>
        <time>2019-02-03T09:54:11Z</time>
      </trkpt>
      <trkpt lat="45.848100911825895" lon="7.933622226119041">
        <ele>1304.1700000000001</ele>
        <time>2019-02-03T09:54:13Z</time>
      </trkpt>
      <trkpt lat="45.848115831613541" lon="7.933667656034231">
        <ele>1302.72</ele>
        <time>2019-02-03T09:54:27Z</time>
      </trkpt>
      <trkpt lat="45.8481006603688" lon="7.93367494828999">
        <ele>1303.2</ele>
        <time>2019-02-03T09:54:39Z</time>
      </trkpt>
      <trkpt lat="45.848088003695011" lon="7.933688024058938">
        <ele>1306.5699999999999</ele>
        <time>2019-02-03T09:54:49Z</time>
      </trkpt>
      <trkpt lat="45.848069898784161" lon="7.933734124526382">
        <ele>1309.45</ele>
        <time>2019-02-03T09:55:09Z</time>
      </trkpt>
      <trkpt lat="45.848048273473978" lon="7.933733621612191">
        <ele>1309.45</ele>
        <time>2019-02-03T09:55:15Z</time>
      </trkpt>
      <trkpt lat="45.847973255440593" lon="7.933726329356432">
        <ele>1308.01</ele>
        <time>2019-02-03T09:55:24Z</time>
      </trkpt>
      <trkpt lat="45.847936710342765" lon="7.933716187253594">
        <ele>1305.1300000000001</ele>
        <time>2019-02-03T09:55:33Z</time>
      </trkpt>
      <trkpt lat="45.847909636795521" lon="7.933698836714029">
        <ele>1302.24</ele>
        <time>2019-02-03T09:55:39Z</time>
      </trkpt>
      <trkpt lat="45.847872504964471" lon="7.933685593307018">
        <ele>1298.4000000000001</ele>
        <time>2019-02-03T09:55:45Z</time>
      </trkpt>
      <trkpt lat="45.84785632789135" lon="7.933682994917035">
        <ele>1295.99</ele>
        <time>2019-02-03T09:55:49Z</time>
      </trkpt>
      <trkpt lat="45.847810143604875" lon="7.933681318536401">
        <ele>1293.1099999999999</ele>
        <time>2019-02-03T09:55:59Z</time>
      </trkpt>
      <trkpt lat="45.84778256714344" lon="7.933672685176134">
        <ele>1291.1900000000001</ele>
        <time>2019-02-03T09:56:07Z</time>
      </trkpt>
      <trkpt lat="45.847713584080338" lon="7.9336519818753">
        <ele>1290.23</ele>
        <time>2019-02-03T09:56:17Z</time>
      </trkpt>
      <trkpt lat="45.847635716199875" lon="7.933624740689993">
        <ele>1290.71</ele>
        <time>2019-02-03T09:56:28Z</time>
      </trkpt>
      <trkpt lat="45.847610402852297" lon="7.933627841994166">
        <ele>1291.1900000000001</ele>
        <time>2019-02-03T09:56:37Z</time>
      </trkpt>
      <trkpt lat="45.847555417567492" lon="7.933674193918705">
        <ele>1292.1500000000001</ele>
        <time>2019-02-03T09:56:43Z</time>
      </trkpt>
      <trkpt lat="45.84748107008636" lon="7.933671595528722">
        <ele>1289.27</ele>
        <time>2019-02-03T09:56:53Z</time>
      </trkpt>
      <trkpt lat="45.847418457269669" lon="7.933650305494666">
        <ele>1288.3</ele>
        <time>2019-02-03T09:57:03Z</time>
      </trkpt>
      <trkpt lat="45.847387611865997" lon="7.933634044602513">
        <ele>1285.9000000000001</ele>
        <time>2019-02-03T09:57:14Z</time>
      </trkpt>
      <trkpt lat="45.847367495298386" lon="7.933628261089325">
        <ele>1285.9000000000001</ele>
        <time>2019-02-03T09:57:17Z</time>
      </trkpt>
      <trkpt lat="45.847330950200558" lon="7.933626165613532">
        <ele>1288.3</ele>
        <time>2019-02-03T09:57:22Z</time>
      </trkpt>
      <trkpt lat="45.847311001271009" lon="7.933625997975469">
        <ele>1288.3</ele>
        <time>2019-02-03T09:57:24Z</time>
      </trkpt>
      <trkpt lat="45.847288621589541" lon="7.933614430949092">
        <ele>1288.78</ele>
        <time>2019-02-03T09:57:29Z</time>
      </trkpt>
      <trkpt lat="45.84727831184864" lon="7.933619040995836">
        <ele>1290.23</ele>
        <time>2019-02-03T09:57:31Z</time>
      </trkpt>
      <trkpt lat="45.847192984074354" lon="7.933627003803849">
        <ele>1291.6700000000001</ele>
        <time>2019-02-03T09:57:39Z</time>
      </trkpt>
      <trkpt lat="45.847154594957829" lon="7.933638654649258">
        <ele>1294.0699999999999</ele>
        <time>2019-02-03T09:57:47Z</time>
      </trkpt>
      <trkpt lat="45.847106399014592" lon="7.933637732639909">
        <ele>1296.96</ele>
        <time>2019-02-03T09:57:54Z</time>
      </trkpt>
      <trkpt lat="45.847095502540469" lon="7.933637732639909">
        <ele>1297.9200000000001</ele>
        <time>2019-02-03T09:57:56Z</time>
      </trkpt>
      <trkpt lat="45.847043115645647" lon="7.933641672134399">
        <ele>1301.28</ele>
        <time>2019-02-03T09:58:03Z</time>
      </trkpt>
      <trkpt lat="45.847010174766183" lon="7.933640079572797">
        <ele>1303.2</ele>
        <time>2019-02-03T09:58:07Z</time>
      </trkpt>
      <trkpt lat="45.846995003521442" lon="7.933635301887989">
        <ele>1304.1700000000001</ele>
        <time>2019-02-03T09:58:08Z</time>
      </trkpt>
      <trkpt lat="45.846985280513763" lon="7.933630775660276">
        <ele>1304.1700000000001</ele>
        <time>2019-02-03T09:58:09Z</time>
      </trkpt>
      <trkpt lat="45.846975725144148" lon="7.933621723204851">
        <ele>1304.1700000000001</ele>
        <time>2019-02-03T09:58:10Z</time>
      </trkpt>
      <trkpt lat="45.846952255815268" lon="7.933578304946423">
        <ele>1307.53</ele>
        <time>2019-02-03T09:58:16Z</time>
      </trkpt>
      <trkpt lat="45.846902383491397" lon="7.933520469814539">
        <ele>1309.9300000000001</ele>
        <time>2019-02-03T09:58:27Z</time>
      </trkpt>
      <trkpt lat="45.8468815125525" lon="7.933488702401519">
        <ele>1311.3800000000001</ele>
        <time>2019-02-03T09:58:30Z</time>
      </trkpt>
      <trkpt lat="45.846823761239648" lon="7.933447882533073">
        <ele>1313.78</ele>
        <time>2019-02-03T09:58:40Z</time>
      </trkpt>
      <trkpt lat="45.846812026575208" lon="7.933445787057281">
        <ele>1313.78</ele>
        <time>2019-02-03T09:58:41Z</time>
      </trkpt>
      <trkpt lat="45.846778834238648" lon="7.933415109291673">
        <ele>1314.26</ele>
        <time>2019-02-03T09:58:46Z</time>
      </trkpt>
      <trkpt lat="45.846758466213942" lon="7.933276975527406">
        <ele>1314.26</ele>
        <time>2019-02-03T09:58:56Z</time>
      </trkpt>
      <trkpt lat="45.846729213371873" lon="7.933190809562802">
        <ele>1314.74</ele>
        <time>2019-02-03T09:59:05Z</time>
      </trkpt>
      <trkpt lat="45.84670758806169" lon="7.933124508708715">
        <ele>1315.22</ele>
        <time>2019-02-03T09:59:13Z</time>
      </trkpt>
      <trkpt lat="45.846693590283394" lon="7.933035241439939">
        <ele>1315.7</ele>
        <time>2019-02-03T09:59:23Z</time>
      </trkpt>
      <trkpt lat="45.846637431532145" lon="7.932983441278338">
        <ele>1316.6600000000001</ele>
        <time>2019-02-03T09:59:34Z</time>
      </trkpt>
      <trkpt lat="45.846600970253348" lon="7.932952595874667">
        <ele>1317.1400000000001</ele>
        <time>2019-02-03T09:59:43Z</time>
      </trkpt>
      <trkpt lat="45.846533328294754" lon="7.932938933372498">
        <ele>1318.5899999999999</ele>
        <time>2019-02-03T09:59:54Z</time>
      </trkpt>
      <trkpt lat="45.84646912291646" lon="7.932953517884016">
        <ele>1319.0699999999999</ele>
        <time>2019-02-03T10:00:04Z</time>
      </trkpt>
      <trkpt lat="45.846446240320802" lon="7.932970281690359">
        <ele>1320.51</ele>
        <time>2019-02-03T10:00:16Z</time>
      </trkpt>
      <trkpt lat="45.846390668302774" lon="7.932999785989523">
        <ele>1321.47</ele>
        <time>2019-02-03T10:00:26Z</time>
      </trkpt>
      <trkpt lat="45.846371222287416" lon="7.932961899787188">
        <ele>1322.4300000000001</ele>
        <time>2019-02-03T10:00:36Z</time>
      </trkpt>
      <trkpt lat="45.846360074356198" lon="7.932913955301046">
        <ele>1323.8699999999999</ele>
        <time>2019-02-03T10:00:46Z</time>
      </trkpt>
      <trkpt lat="45.846336269751191" lon="7.932895850390196">
        <ele>1325.3099999999999</ele>
        <time>2019-02-03T10:00:53Z</time>
      </trkpt>
      <trkpt lat="45.84633719176054" lon="7.932797865942121">
        <ele>1322.9100000000001</ele>
        <time>2019-02-03T10:01:04Z</time>
      </trkpt>
      <trkpt lat="45.84631472826004" lon="7.932813204824925">
        <ele>1322.9100000000001</ele>
        <time>2019-02-03T10:01:14Z</time>
      </trkpt>
      <trkpt lat="45.8463029935956" lon="7.932722931727767">
        <ele>1321.47</ele>
        <time>2019-02-03T10:01:24Z</time>
      </trkpt>
      <trkpt lat="45.846250355243683" lon="7.932698959484696">
        <ele>1323.3900000000001</ele>
        <time>2019-02-03T10:01:35Z</time>
      </trkpt>
      <trkpt lat="45.846229735761881" lon="7.932663001120091">
        <ele>1323.8699999999999</ele>
        <time>2019-02-03T10:01:43Z</time>
      </trkpt>
      <trkpt lat="45.846199728548527" lon="7.932609356939793">
        <ele>1325.8</ele>
        <time>2019-02-03T10:01:53Z</time>
      </trkpt>
      <trkpt lat="45.846158489584923" lon="7.932561915367842">
        <ele>1325.3099999999999</ele>
        <time>2019-02-03T10:02:02Z</time>
      </trkpt>
      <trkpt lat="45.846116160973907" lon="7.932526962831616">
        <ele>1325.8</ele>
        <time>2019-02-03T10:02:13Z</time>
      </trkpt>
      <trkpt lat="45.846076095476747" lon="7.932474911212921">
        <ele>1324.3499999999999</ele>
        <time>2019-02-03T10:02:24Z</time>
      </trkpt>
      <trkpt lat="45.846044244244695" lon="7.932420261204243">
        <ele>1323.8699999999999</ele>
        <time>2019-02-03T10:02:33Z</time>
      </trkpt>
      <trkpt lat="45.84601029753685" lon="7.932383799925447">
        <ele>1321.95</ele>
        <time>2019-02-03T10:02:42Z</time>
      </trkpt>
      <trkpt lat="45.846007280051708" lon="7.932339459657669">
        <ele>1321.95</ele>
        <time>2019-02-03T10:02:52Z</time>
      </trkpt>
      <trkpt lat="45.845996886491776" lon="7.932303082197905">
        <ele>1322.9100000000001</ele>
        <time>2019-02-03T10:03:02Z</time>
      </trkpt>
      <trkpt lat="45.846024798229337" lon="7.932306015864015">
        <ele>1326.28</ele>
        <time>2019-02-03T10:03:06Z</time>
      </trkpt>
      <trkpt lat="45.846031839028001" lon="7.93231506831944">
        <ele>1328.2</ele>
        <time>2019-02-03T10:03:09Z</time>
      </trkpt>
      <trkpt lat="45.846034437417984" lon="7.932307189330459">
        <ele>1331.5599999999999</ele>
        <time>2019-02-03T10:03:18Z</time>
      </trkpt>
      <trkpt lat="45.846049105748534" lon="7.932321019470692">
        <ele>1334.9300000000001</ele>
        <time>2019-02-03T10:03:24Z</time>
      </trkpt>
      <trkpt lat="45.846044076606631" lon="7.932334765791893">
        <ele>1337.8099999999999</ele>
        <time>2019-02-03T10:03:34Z</time>
      </trkpt>
      <trkpt lat="45.846051285043359" lon="7.932334933429956">
        <ele>1340.7</ele>
        <time>2019-02-03T10:03:50Z</time>
      </trkpt>
      <trkpt lat="45.846047513186932" lon="7.932338705286384">
        <ele>1343.0999999999999</ele>
        <time>2019-02-03T10:04:03Z</time>
      </trkpt>
      <trkpt lat="45.846057571470737" lon="7.932364102452993">
        <ele>1344.54</ele>
        <time>2019-02-03T10:04:22Z</time>
      </trkpt>
      <trkpt lat="45.846072994172573" lon="7.932356558740139">
        <ele>1344.0599999999999</ele>
        <time>2019-02-03T10:04:40Z</time>
      </trkpt>
      <trkpt lat="45.846061175689101" lon="7.932356642559171">
        <ele>1345.98</ele>
        <time>2019-02-03T10:04:56Z</time>
      </trkpt>
      <trkpt lat="45.846080286428332" lon="7.932340381667018">
        <ele>1348.3900000000001</ele>
        <time>2019-02-03T10:05:11Z</time>
      </trkpt>
      <trkpt lat="45.846080034971237" lon="7.932327976450324">
        <ele>1347.4300000000001</ele>
        <time>2019-02-03T10:05:24Z</time>
      </trkpt>
      <trkpt lat="45.846066204831004" lon="7.932337364181876">
        <ele>1348.3900000000001</ele>
        <time>2019-02-03T10:05:37Z</time>
      </trkpt>
      <trkpt lat="45.846045836806297" lon="7.932365527376533">
        <ele>1348.3900000000001</ele>
        <time>2019-02-03T10:05:52Z</time>
      </trkpt>
      <trkpt lat="45.846038293093443" lon="7.932368041947484">
        <ele>1349.3499999999999</ele>
        <time>2019-02-03T10:06:09Z</time>
      </trkpt>
      <trkpt lat="45.845988923683763" lon="7.932365024462342">
        <ele>1351.27</ele>
        <time>2019-02-03T10:06:26Z</time>
      </trkpt>
      <trkpt lat="45.846013315021992" lon="7.932364773005247">
        <ele>1352.71</ele>
        <time>2019-02-03T10:06:44Z</time>
      </trkpt>
      <trkpt lat="45.846014823764563" lon="7.932371897622943">
        <ele>1353.1900000000001</ele>
        <time>2019-02-03T10:07:01Z</time>
      </trkpt>
      <trkpt lat="45.846034185960889" lon="7.932378686964512">
        <ele>1355.1199999999999</ele>
        <time>2019-02-03T10:07:22Z</time>
      </trkpt>
      <trkpt lat="45.845995796844363" lon="7.932377429679036">
        <ele>1356.0799999999999</ele>
        <time>2019-02-03T10:07:35Z</time>
      </trkpt>
      <trkpt lat="45.84597953595221" lon="7.932321187108755">
        <ele>1355.5999999999999</ele>
        <time>2019-02-03T10:07:44Z</time>
      </trkpt>
      <trkpt lat="45.845956234261394" lon="7.93224566616118">
        <ele>1354.6300000000001</ele>
        <time>2019-02-03T10:07:53Z</time>
      </trkpt>
      <trkpt lat="45.845937458798289" lon="7.932158913463354">
        <ele>1353.6700000000001</ele>
        <time>2019-02-03T10:08:05Z</time>
      </trkpt>
      <trkpt lat="45.84591063670814" lon="7.932118345052004">
        <ele>1354.6300000000001</ele>
        <time>2019-02-03T10:08:13Z</time>
      </trkpt>
      <trkpt lat="45.845829583704472" lon="7.932071406394243">
        <ele>1354.6300000000001</ele>
        <time>2019-02-03T10:08:25Z</time>
      </trkpt>
      <trkpt lat="45.84580460563302" lon="7.931991191580892">
        <ele>1352.71</ele>
        <time>2019-02-03T10:08:34Z</time>
      </trkpt>
      <trkpt lat="45.845826398581266" lon="7.931920699775219">
        <ele>1349.8299999999999</ele>
        <time>2019-02-03T10:08:45Z</time>
      </trkpt>
      <trkpt lat="45.845793373882771" lon="7.931875856593251">
        <ele>1349.8299999999999</ele>
        <time>2019-02-03T10:08:56Z</time>
      </trkpt>
      <trkpt lat="45.845758924260736" lon="7.931835204362869">
        <ele>1352.23</ele>
        <time>2019-02-03T10:09:05Z</time>
      </trkpt>
      <trkpt lat="45.845790524035692" lon="7.931812489405274">
        <ele>1352.71</ele>
        <time>2019-02-03T10:09:14Z</time>
      </trkpt>
      <trkpt lat="45.845785243436694" lon="7.93176831677556">
        <ele>1353.6700000000001</ele>
        <time>2019-02-03T10:09:24Z</time>
      </trkpt>
      <trkpt lat="45.845764707773924" lon="7.931726407259703">
        <ele>1353.6700000000001</ele>
        <time>2019-02-03T10:09:33Z</time>
      </trkpt>
      <trkpt lat="45.845743920654058" lon="7.931730849668384">
        <ele>1355.1199999999999</ele>
        <time>2019-02-03T10:09:37Z</time>
      </trkpt>
      <trkpt lat="45.845717014744878" lon="7.931688940152526">
        <ele>1356.0799999999999</ele>
        <time>2019-02-03T10:09:46Z</time>
      </trkpt>
      <trkpt lat="45.845747189596295" lon="7.931651305407286">
        <ele>1357.04</ele>
        <time>2019-02-03T10:09:56Z</time>
      </trkpt>
      <trkpt lat="45.845736209303141" lon="7.931614760309458">
        <ele>1357.52</ele>
        <time>2019-02-03T10:10:05Z</time>
      </trkpt>
      <trkpt lat="45.845689103007317" lon="7.931592715904117">
        <ele>1357.52</ele>
        <time>2019-02-03T10:10:16Z</time>
      </trkpt>
      <trkpt lat="45.845676781609654" lon="7.931559942662716">
        <ele>1358.48</ele>
        <time>2019-02-03T10:10:22Z</time>
      </trkpt>
      <trkpt lat="45.845657251775265" lon="7.931518452242017">
        <ele>1360.4000000000001</ele>
        <time>2019-02-03T10:10:31Z</time>
      </trkpt>
      <trkpt lat="45.845696981996298" lon="7.931487271562219">
        <ele>1360.4000000000001</ele>
        <time>2019-02-03T10:10:41Z</time>
      </trkpt>
      <trkpt lat="45.845726821571589" lon="7.931455336511135">
        <ele>1362.8099999999999</ele>
        <time>2019-02-03T10:10:51Z</time>
      </trkpt>
      <trkpt lat="45.845721960067749" lon="7.931451397016645">
        <ele>1364.73</ele>
        <time>2019-02-03T10:10:55Z</time>
      </trkpt>
      <trkpt lat="45.845754984766245" lon="7.931404961273074">
        <ele>1366.6500000000001</ele>
        <time>2019-02-03T10:11:06Z</time>
      </trkpt>
      <trkpt lat="45.845717266201973" lon="7.931383084505796">
        <ele>1367.6099999999999</ele>
        <time>2019-02-03T10:11:18Z</time>
      </trkpt>
      <trkpt lat="45.845752051100135" lon="7.931330027058721">
        <ele>1368.5699999999999</ele>
        <time>2019-02-03T10:11:27Z</time>
      </trkpt>
      <trkpt lat="45.845748446881771" lon="7.93129088357091">
        <ele>1370.98</ele>
        <time>2019-02-03T10:11:37Z</time>
      </trkpt>
      <trkpt lat="45.845772670581937" lon="7.931218966841698">
        <ele>1370.98</ele>
        <time>2019-02-03T10:11:46Z</time>
      </trkpt>
      <trkpt lat="45.84575280547142" lon="7.931130453944206">
        <ele>1370.02</ele>
        <time>2019-02-03T10:11:58Z</time>
      </trkpt>
      <trkpt lat="45.845748614519835" lon="7.931061219424009">
        <ele>1371.46</ele>
        <time>2019-02-03T10:12:07Z</time>
      </trkpt>
      <trkpt lat="45.845732688903809" lon="7.931042695418">
        <ele>1373.3800000000001</ele>
        <time>2019-02-03T10:12:17Z</time>
      </trkpt>
      <trkpt lat="45.845742076635361" lon="7.93107295408845">
        <ele>1375.78</ele>
        <time>2019-02-03T10:12:25Z</time>
      </trkpt>
      <trkpt lat="45.845694299787283" lon="7.931052669882774">
        <ele>1376.75</ele>
        <time>2019-02-03T10:12:35Z</time>
      </trkpt>
      <trkpt lat="45.845689941197634" lon="7.930981088429689">
        <ele>1377.71</ele>
        <time>2019-02-03T10:12:45Z</time>
      </trkpt>
      <trkpt lat="45.845699831843376" lon="7.930941944941878">
        <ele>1377.71</ele>
        <time>2019-02-03T10:12:53Z</time>
      </trkpt>
      <trkpt lat="45.845711147412658" lon="7.930878829210997">
        <ele>1375.3</ele>
        <time>2019-02-03T10:13:01Z</time>
      </trkpt>
      <trkpt lat="45.845692791044712" lon="7.930820239707828">
        <ele>1376.75</ele>
        <time>2019-02-03T10:13:09Z</time>
      </trkpt>
      <trkpt lat="45.845691785216331" lon="7.930855946615338">
        <ele>1380.1099999999999</ele>
        <time>2019-02-03T10:13:18Z</time>
      </trkpt>
      <trkpt lat="45.845696311444044" lon="7.930865585803986">
        <ele>1380.1099999999999</ele>
        <time>2019-02-03T10:13:19Z</time>
      </trkpt>
      <trkpt lat="45.845672925934196" lon="7.930852761492133">
        <ele>1379.6300000000001</ele>
        <time>2019-02-03T10:13:28Z</time>
      </trkpt>
      <trkpt lat="45.845659431070089" lon="7.930765589699149">
        <ele>1381.0699999999999</ele>
        <time>2019-02-03T10:13:40Z</time>
      </trkpt>
      <trkpt lat="45.845649959519506" lon="7.930766260251403">
        <ele>1382.03</ele>
        <time>2019-02-03T10:13:42Z</time>
      </trkpt>
      <trkpt lat="45.84560327231884" lon="7.930784616619349">
        <ele>1384.4400000000001</ele>
        <time>2019-02-03T10:13:53Z</time>
      </trkpt>
      <trkpt lat="45.845579551532865" lon="7.930750669911504">
        <ele>1385.4000000000001</ele>
        <time>2019-02-03T10:14:02Z</time>
      </trkpt>
      <trkpt lat="45.845567313954234" lon="7.9306835308671">
        <ele>1387.3199999999999</ele>
        <time>2019-02-03T10:14:13Z</time>
      </trkpt>
      <trkpt lat="45.845553483814001" lon="7.930677076801658">
        <ele>1387.8</ele>
        <time>2019-02-03T10:14:23Z</time>
      </trkpt>
      <trkpt lat="45.845570079982281" lon="7.930677328258753">
        <ele>1387.3199999999999</ele>
        <time>2019-02-03T10:14:36Z</time>
      </trkpt>
      <trkpt lat="45.84556077606976" lon="7.930668359622359">
        <ele>1388.28</ele>
        <time>2019-02-03T10:14:42Z</time>
      </trkpt>
      <trkpt lat="45.845544850453734" lon="7.930663917213678">
        <ele>1388.28</ele>
        <time>2019-02-03T10:14:44Z</time>
      </trkpt>
      <trkpt lat="45.845524482429028" lon="7.93066400103271">
        <ele>1387.8</ele>
        <time>2019-02-03T10:14:46Z</time>
      </trkpt>
      <trkpt lat="45.845496486872435" lon="7.930672885850072">
        <ele>1387.8</ele>
        <time>2019-02-03T10:14:55Z</time>
      </trkpt>
      <trkpt lat="45.845511322841048" lon="7.930680848658085">
        <ele>1388.76</ele>
        <time>2019-02-03T10:15:06Z</time>
      </trkpt>
      <trkpt lat="45.845496486872435" lon="7.930706832557917">
        <ele>1390.2</ele>
        <time>2019-02-03T10:15:20Z</time>
      </trkpt>
      <trkpt lat="45.845473604276776" lon="7.930692750960589">
        <ele>1393.0899999999999</ele>
        <time>2019-02-03T10:15:39Z</time>
      </trkpt>
      <trkpt lat="45.84551777690649" lon="7.930687721818686">
        <ele>1396.9300000000001</ele>
        <time>2019-02-03T10:15:56Z</time>
      </trkpt>
      <trkpt lat="45.845509814098477" lon="7.930669952183962">
        <ele>1399.8199999999999</ele>
        <time>2019-02-03T10:16:11Z</time>
      </trkpt>
      <trkpt lat="45.845540072768927" lon="7.930696690455079">
        <ele>1403.6600000000001</ele>
        <time>2019-02-03T10:16:26Z</time>
      </trkpt>
      <trkpt lat="45.845544766634703" lon="7.930700797587633">
        <ele>1404.1400000000001</ele>
        <time>2019-02-03T10:16:28Z</time>
      </trkpt>
      <trkpt lat="45.845560021698475" lon="7.930699037387967">
        <ele>1406.0699999999999</ele>
        <time>2019-02-03T10:16:34Z</time>
      </trkpt>
      <trkpt lat="45.845529763028026" lon="7.930727787315846">
        <ele>1407.99</ele>
        <time>2019-02-03T10:16:46Z</time>
      </trkpt>
      <trkpt lat="45.845539150759578" lon="7.930722758173943">
        <ele>1409.9100000000001</ele>
        <time>2019-02-03T10:16:58Z</time>
      </trkpt>
      <trkpt lat="45.845538564026356" lon="7.930736085399985">
        <ele>1411.8299999999999</ele>
        <time>2019-02-03T10:17:05Z</time>
      </trkpt>
      <trkpt lat="45.84553780965507" lon="7.930740779265761">
        <ele>1412.79</ele>
        <time>2019-02-03T10:17:14Z</time>
      </trkpt>
      <trkpt lat="45.845528589561582" lon="7.930755112320185">
        <ele>1414.24</ele>
        <time>2019-02-03T10:17:27Z</time>
      </trkpt>
      <trkpt lat="45.84556370973587" lon="7.930736755952239">
        <ele>1415.6800000000001</ele>
        <time>2019-02-03T10:17:40Z</time>
      </trkpt>
      <trkpt lat="45.845516519621015" lon="7.930789310485125">
        <ele>1415.2</ele>
        <time>2019-02-03T10:17:52Z</time>
      </trkpt>
      <trkpt lat="45.845533702522516" lon="7.930788304656744">
        <ele>1416.1600000000001</ele>
        <time>2019-02-03T10:18:06Z</time>
      </trkpt>
      <trkpt lat="45.845518447458744" lon="7.930816970765591">
        <ele>1416.1600000000001</ele>
        <time>2019-02-03T10:18:17Z</time>
      </trkpt>
      <trkpt lat="45.845524650067091" lon="7.930780844762921">
        <ele>1415.6800000000001</ele>
        <time>2019-02-03T10:18:25Z</time>
      </trkpt>
      <trkpt lat="45.845515849068761" lon="7.930854437872767">
        <ele>1415.6800000000001</ele>
        <time>2019-02-03T10:18:40Z</time>
      </trkpt>
      <trkpt lat="45.845502689480782" lon="7.930855359882116">
        <ele>1416.1600000000001</ele>
        <time>2019-02-03T10:18:52Z</time>
      </trkpt>
      <trkpt lat="45.845541162416339" lon="7.930825771763921">
        <ele>1413.76</ele>
        <time>2019-02-03T10:19:10Z</time>
      </trkpt>
      <trkpt lat="45.845555076375604" lon="7.930771205574274">
        <ele>1410.3900000000001</ele>
        <time>2019-02-03T10:19:14Z</time>
      </trkpt>
      <trkpt lat="45.845562368631363" lon="7.930748071521521">
        <ele>1408.47</ele>
        <time>2019-02-03T10:19:17Z</time>
      </trkpt>
      <trkpt lat="45.845588855445385" lon="7.930710352957249">
        <ele>1409.4300000000001</ele>
        <time>2019-02-03T10:19:35Z</time>
      </trkpt>
      <trkpt lat="45.845595309510827" lon="7.930710017681122">
        <ele>1412.79</ele>
        <time>2019-02-03T10:19:48Z</time>
      </trkpt>
      <trkpt lat="45.845611318945885" lon="7.930694846436381">
        <ele>1413.28</ele>
        <time>2019-02-03T10:20:00Z</time>
      </trkpt>
      <trkpt lat="45.845578294247389" lon="7.930705407634378">
        <ele>1412.79</ele>
        <time>2019-02-03T10:20:11Z</time>
      </trkpt>
      <trkpt lat="45.845573013648391" lon="7.93072896078229">
        <ele>1409.9100000000001</ele>
        <time>2019-02-03T10:20:17Z</time>
      </trkpt>
      <trkpt lat="45.8455690741539" lon="7.930740443989635">
        <ele>1410.8699999999999</ele>
        <time>2019-02-03T10:20:31Z</time>
      </trkpt>
      <trkpt lat="45.845553483814001" lon="7.930714124813676">
        <ele>1409.9100000000001</ele>
        <time>2019-02-03T10:20:44Z</time>
      </trkpt>
      <trkpt lat="45.845585418865085" lon="7.930633155629039">
        <ele>1408.95</ele>
        <time>2019-02-03T10:20:51Z</time>
      </trkpt>
      <trkpt lat="45.845567146316171" lon="7.930585546419025">
        <ele>1408.47</ele>
        <time>2019-02-03T10:21:00Z</time>
      </trkpt>
      <trkpt lat="45.845515597611666" lon="7.930631646886468">
        <ele>1407.51</ele>
        <time>2019-02-03T10:21:11Z</time>
      </trkpt>
      <trkpt lat="45.845462288707495" lon="7.930595185607672">
        <ele>1407.03</ele>
        <time>2019-02-03T10:21:21Z</time>
      </trkpt>
      <trkpt lat="45.845478884875774" lon="7.930506505072117">
        <ele>1405.5799999999999</ele>
        <time>2019-02-03T10:21:31Z</time>
      </trkpt>
      <trkpt lat="45.845463881269097" lon="7.930423943325877">
        <ele>1403.6600000000001</ele>
        <time>2019-02-03T10:21:40Z</time>
      </trkpt>
      <trkpt lat="45.845424151048064" lon="7.930358313024044">
        <ele>1405.5799999999999</ele>
        <time>2019-02-03T10:21:51Z</time>
      </trkpt>
      <trkpt lat="45.845419960096478" lon="7.930291257798672">
        <ele>1405.0999999999999</ele>
        <time>2019-02-03T10:22:02Z</time>
      </trkpt>
      <trkpt lat="45.845394060015678" lon="7.930226381868124">
        <ele>1405.5799999999999</ele>
        <time>2019-02-03T10:22:11Z</time>
      </trkpt>
      <trkpt lat="45.845380565151572" lon="7.930202577263117">
        <ele>1407.51</ele>
        <time>2019-02-03T10:22:23Z</time>
      </trkpt>
      <trkpt lat="45.845386935397983" lon="7.930118087679148">
        <ele>1408.47</ele>
        <time>2019-02-03T10:22:33Z</time>
      </trkpt>
      <trkpt lat="45.845364388078451" lon="7.930110963061452">
        <ele>1407.99</ele>
        <time>2019-02-03T10:22:42Z</time>
      </trkpt>
      <trkpt lat="45.845373189076781" lon="7.930159494280815">
        <ele>1410.8699999999999</ele>
        <time>2019-02-03T10:22:51Z</time>
      </trkpt>
      <trkpt lat="45.845342930406332" lon="7.93022864498198">
        <ele>1412.3099999999999</ele>
        <time>2019-02-03T10:23:01Z</time>
      </trkpt>
      <trkpt lat="45.845319293439388" lon="7.930259238928556">
        <ele>1413.28</ele>
        <time>2019-02-03T10:23:10Z</time>
      </trkpt>
      <trkpt lat="45.845299428328872" lon="7.930260915309191">
        <ele>1412.3099999999999</ele>
        <time>2019-02-03T10:23:19Z</time>
      </trkpt>
      <trkpt lat="45.845277635380626" lon="7.930276840925217">
        <ele>1413.76</ele>
        <time>2019-02-03T10:23:29Z</time>
      </trkpt>
      <trkpt lat="45.845221728086472" lon="7.930284384638071">
        <ele>1415.6800000000001</ele>
        <time>2019-02-03T10:23:38Z</time>
      </trkpt>
      <trkpt lat="45.845177890732884" lon="7.930300896987319">
        <ele>1418.5599999999999</ele>
        <time>2019-02-03T10:23:48Z</time>
      </trkpt>
      <trkpt lat="45.845135059207678" lon="7.930284468457103">
        <ele>1419.04</ele>
        <time>2019-02-03T10:23:56Z</time>
      </trkpt>
      <trkpt lat="45.84507361985743" lon="7.930265106260777">
        <ele>1422.4100000000001</ele>
        <time>2019-02-03T10:24:05Z</time>
      </trkpt>
      <trkpt lat="45.845069931820035" lon="7.930227471515536">
        <ele>1423.8499999999999</ele>
        <time>2019-02-03T10:24:14Z</time>
      </trkpt>
      <trkpt lat="45.845093904063106" lon="7.930191680788994">
        <ele>1424.8099999999999</ele>
        <time>2019-02-03T10:24:24Z</time>
      </trkpt>
      <trkpt lat="45.845085857436061" lon="7.930129151791334">
        <ele>1424.8099999999999</ele>
        <time>2019-02-03T10:24:35Z</time>
      </trkpt>
      <trkpt lat="45.845083175227046" lon="7.93008103966713">
        <ele>1426.25</ele>
        <time>2019-02-03T10:24:42Z</time>
      </trkpt>
      <trkpt lat="45.845074877142906" lon="7.929981797933579">
        <ele>1428.1800000000001</ele>
        <time>2019-02-03T10:24:53Z</time>
      </trkpt>
      <trkpt lat="45.845077056437731" lon="7.929922705516219">
        <ele>1427.7</ele>
        <time>2019-02-03T10:25:02Z</time>
      </trkpt>
      <trkpt lat="45.845126509666443" lon="7.929924884811044">
        <ele>1429.6199999999999</ele>
        <time>2019-02-03T10:25:11Z</time>
      </trkpt>
      <trkpt lat="45.845170011743903" lon="7.929862523451448">
        <ele>1430.5799999999999</ele>
        <time>2019-02-03T10:25:22Z</time>
      </trkpt>
      <trkpt lat="45.845154589042068" lon="7.929776776582003">
        <ele>1430.5799999999999</ele>
        <time>2019-02-03T10:25:36Z</time>
      </trkpt>
      <trkpt lat="45.845112847164273" lon="7.929745595902205">
        <ele>1432.02</ele>
        <time>2019-02-03T10:25:43Z</time>
      </trkpt>
      <trkpt lat="45.845081247389317" lon="7.929730592295528">
        <ele>1433.46</ele>
        <time>2019-02-03T10:25:47Z</time>
      </trkpt>
      <trkpt lat="45.845027603209019" lon="7.929713660851121">
        <ele>1435.3900000000001</ele>
        <time>2019-02-03T10:25:57Z</time>
      </trkpt>
      <trkpt lat="45.844972534105182" lon="7.929728496819735">
        <ele>1436.8299999999999</ele>
        <time>2019-02-03T10:26:11Z</time>
      </trkpt>
      <trkpt lat="45.844918387010694" lon="7.929712822660804">
        <ele>1438.27</ele>
        <time>2019-02-03T10:26:21Z</time>
      </trkpt>
      <trkpt lat="45.844848398119211" lon="7.92972581461072">
        <ele>1440.1900000000001</ele>
        <time>2019-02-03T10:26:32Z</time>
      </trkpt>
      <trkpt lat="45.844841105863452" lon="7.929657334461808">
        <ele>1441.1500000000001</ele>
        <time>2019-02-03T10:26:44Z</time>
      </trkpt>
      <trkpt lat="45.844834735617042" lon="7.929612826555967">
        <ele>1441.6300000000001</ele>
        <time>2019-02-03T10:26:53Z</time>
      </trkpt>
      <trkpt lat="45.844850912690163" lon="7.929539903998375">
        <ele>1442.5999999999999</ele>
        <time>2019-02-03T10:27:02Z</time>
      </trkpt>
      <trkpt lat="45.8448800817132" lon="7.929470418021083">
        <ele>1443.5599999999999</ele>
        <time>2019-02-03T10:27:12Z</time>
      </trkpt>
      <trkpt lat="45.844891984015703" lon="7.929419036954641">
        <ele>1442.5999999999999</ele>
        <time>2019-02-03T10:27:21Z</time>
      </trkpt>
      <trkpt lat="45.844922745600343" lon="7.929364638403058">
        <ele>1442.1099999999999</ele>
        <time>2019-02-03T10:27:30Z</time>
      </trkpt>
      <trkpt lat="45.8449871186167" lon="7.929348628968">
        <ele>1441.6300000000001</ele>
        <time>2019-02-03T10:27:39Z</time>
      </trkpt>
      <trkpt lat="45.845011426135898" lon="7.92927629314363">
        <ele>1440.1900000000001</ele>
        <time>2019-02-03T10:27:48Z</time>
      </trkpt>
      <trkpt lat="45.845000194385648" lon="7.929238406941295">
        <ele>1441.6300000000001</ele>
        <time>2019-02-03T10:27:59Z</time>
      </trkpt>
      <trkpt lat="45.844986280426383" lon="7.929235389456153">
        <ele>1442.5999999999999</ele>
        <time>2019-02-03T10:28:07Z</time>
      </trkpt>
      <trkpt lat="45.844949232414365" lon="7.929237987846136">
        <ele>1443.5599999999999</ele>
        <time>2019-02-03T10:28:19Z</time>
      </trkpt>
      <trkpt lat="45.844932049512863" lon="7.92923865839839">
        <ele>1446.9200000000001</ele>
        <time>2019-02-03T10:28:28Z</time>
      </trkpt>
      <trkpt lat="45.844934396445751" lon="7.929232623428106">
        <ele>1448.8399999999999</ele>
        <time>2019-02-03T10:28:40Z</time>
      </trkpt>
      <trkpt lat="45.844919057562947" lon="7.929232036694884">
        <ele>1448.8399999999999</ele>
        <time>2019-02-03T10:28:43Z</time>
      </trkpt>
      <trkpt lat="45.844899443909526" lon="7.929223235696554">
        <ele>1448.8399999999999</ele>
        <time>2019-02-03T10:28:45Z</time>
      </trkpt>
      <trkpt lat="45.844892151653767" lon="7.929214853793383">
        <ele>1448.8399999999999</ele>
        <time>2019-02-03T10:28:46Z</time>
      </trkpt>
      <trkpt lat="45.844871364533901" lon="7.929189456626773">
        <ele>1449.3199999999999</ele>
        <time>2019-02-03T10:28:50Z</time>
      </trkpt>
      <trkpt lat="45.844840183854103" lon="7.929173950105906">
        <ele>1450.29</ele>
        <time>2019-02-03T10:28:57Z</time>
      </trkpt>
      <trkpt lat="45.8447867911309" lon="7.929139668121934">
        <ele>1453.1700000000001</ele>
        <time>2019-02-03T10:29:08Z</time>
      </trkpt>
      <trkpt lat="45.844829371199012" lon="7.929125418886542">
        <ele>1453.6500000000001</ele>
        <time>2019-02-03T10:29:17Z</time>
      </trkpt>
      <trkpt lat="45.844848901033401" lon="7.929089460521936">
        <ele>1453.6500000000001</ele>
        <time>2019-02-03T10:29:29Z</time>
      </trkpt>
      <trkpt lat="45.844906568527222" lon="7.928991056978703">
        <ele>1453.1700000000001</ele>
        <time>2019-02-03T10:29:41Z</time>
      </trkpt>
      <trkpt lat="45.844928193837404" lon="7.928954930976033">
        <ele>1454.1300000000001</ele>
        <time>2019-02-03T10:29:50Z</time>
      </trkpt>
      <trkpt lat="45.844945209100842" lon="7.928893072530627">
        <ele>1455.5699999999999</ele>
        <time>2019-02-03T10:30:01Z</time>
      </trkpt>
      <trkpt lat="45.844993405044079" lon="7.928868513554335">
        <ele>1457.5</ele>
        <time>2019-02-03T10:30:10Z</time>
      </trkpt>
      <trkpt lat="45.845001870766282" lon="7.928815623745322">
        <ele>1457.98</ele>
        <time>2019-02-03T10:30:20Z</time>
      </trkpt>
      <trkpt lat="45.844999523833394" lon="7.928795926272869">
        <ele>1460.8599999999999</ele>
        <time>2019-02-03T10:30:28Z</time>
      </trkpt>
      <trkpt lat="45.844962643459439" lon="7.928773127496243">
        <ele>1458.9400000000001</ele>
        <time>2019-02-03T10:30:34Z</time>
      </trkpt>
      <trkpt lat="45.844970187172294" lon="7.928785951808095">
        <ele>1461.3399999999999</ele>
        <time>2019-02-03T10:30:43Z</time>
      </trkpt>
      <trkpt lat="45.844964738935232" lon="7.928787376731634">
        <ele>1461.8199999999999</ele>
        <time>2019-02-03T10:30:45Z</time>
      </trkpt>
      <trkpt lat="45.844941940158606" lon="7.928799027577043">
        <ele>1463.26</ele>
        <time>2019-02-03T10:30:54Z</time>
      </trkpt>
      <trkpt lat="45.844891313463449" lon="7.928816797211766">
        <ele>1464.71</ele>
        <time>2019-02-03T10:31:02Z</time>
      </trkpt>
      <trkpt lat="45.844860887154937" lon="7.928769439458847">
        <ele>1464.71</ele>
        <time>2019-02-03T10:31:11Z</time>
      </trkpt>
      <trkpt lat="45.844902629032731" lon="7.928724931553006">
        <ele>1465.6700000000001</ele>
        <time>2019-02-03T10:31:19Z</time>
      </trkpt>
      <trkpt lat="45.84491184912622" lon="7.928701043128967">
        <ele>1465.6700000000001</ele>
        <time>2019-02-03T10:31:28Z</time>
      </trkpt>
      <trkpt lat="45.844920733943582" lon="7.928631557151675">
        <ele>1466.6300000000001</ele>
        <time>2019-02-03T10:31:40Z</time>
      </trkpt>
      <trkpt lat="45.844909083098173" lon="7.928599286824465">
        <ele>1469.51</ele>
        <time>2019-02-03T10:31:50Z</time>
      </trkpt>
      <trkpt lat="45.844898438081145" lon="7.92858243919909">
        <ele>1470.95</ele>
        <time>2019-02-03T10:31:54Z</time>
      </trkpt>
      <trkpt lat="45.844860635697842" lon="7.928577829152346">
        <ele>1471.9200000000001</ele>
        <time>2019-02-03T10:32:05Z</time>
      </trkpt>
      <trkpt lat="45.844822665676475" lon="7.928559305146337">
        <ele>1474.8</ele>
        <time>2019-02-03T10:32:13Z</time>
      </trkpt>
      <trkpt lat="45.844818893820047" lon="7.92853306978941">
        <ele>1477.6800000000001</ele>
        <time>2019-02-03T10:32:19Z</time>
      </trkpt>
      <trkpt lat="45.844850996509194" lon="7.928484957665205">
        <ele>1479.6099999999999</ele>
        <time>2019-02-03T10:32:29Z</time>
      </trkpt>
      <trkpt lat="45.844891984015703" lon="7.928427373990417">
        <ele>1480.0899999999999</ele>
        <time>2019-02-03T10:32:40Z</time>
      </trkpt>
      <trkpt lat="45.844875052571297" lon="7.928381357342005">
        <ele>1482.01</ele>
        <time>2019-02-03T10:32:55Z</time>
      </trkpt>
      <trkpt lat="45.844861390069127" lon="7.928407676517963">
        <ele>1483.45</ele>
        <time>2019-02-03T10:32:58Z</time>
      </trkpt>
      <trkpt lat="45.844849403947592" lon="7.928401976823807">
        <ele>1486.8199999999999</ele>
        <time>2019-02-03T10:33:02Z</time>
      </trkpt>
      <trkpt lat="45.844840854406357" lon="7.928403150290251">
        <ele>1486.8199999999999</ele>
        <time>2019-02-03T10:33:03Z</time>
      </trkpt>
      <trkpt lat="45.844819732010365" lon="7.928398121148348">
        <ele>1489.7</ele>
        <time>2019-02-03T10:33:09Z</time>
      </trkpt>
      <trkpt lat="45.844810009002686" lon="7.928339280188084">
        <ele>1490.1800000000001</ele>
        <time>2019-02-03T10:33:17Z</time>
      </trkpt>
      <trkpt lat="45.844822414219379" lon="7.92826040647924">
        <ele>1491.1400000000001</ele>
        <time>2019-02-03T10:33:28Z</time>
      </trkpt>
      <trkpt lat="45.844858707860112" lon="7.928195614367724">
        <ele>1493.0599999999999</ele>
        <time>2019-02-03T10:33:38Z</time>
      </trkpt>
      <trkpt lat="45.844861725345254" lon="7.928122356534004">
        <ele>1495.47</ele>
        <time>2019-02-03T10:33:52Z</time>
      </trkpt>
      <trkpt lat="45.844853594899178" lon="7.928137527778745">
        <ele>1497.8699999999999</ele>
        <time>2019-02-03T10:33:57Z</time>
      </trkpt>
      <trkpt lat="45.844844626262784" lon="7.928153704851866">
        <ele>1501.24</ele>
        <time>2019-02-03T10:34:06Z</time>
      </trkpt>
      <trkpt lat="45.84482585079968" lon="7.928193937987089">
        <ele>1504.5999999999999</ele>
        <time>2019-02-03T10:34:18Z</time>
      </trkpt>
      <trkpt lat="45.844836328178644" lon="7.928184969350696">
        <ele>1507.48</ele>
        <time>2019-02-03T10:34:38Z</time>
      </trkpt>
      <trkpt lat="45.84481755271554" lon="7.928239619359374">
        <ele>1507</ele>
        <time>2019-02-03T10:34:54Z</time>
      </trkpt>
      <trkpt lat="45.844815960153937" lon="7.928256634622812">
        <ele>1507.97</ele>
        <time>2019-02-03T10:35:08Z</time>
      </trkpt>
      <trkpt lat="45.844824844971299" lon="7.92823207564652">
        <ele>1508.9300000000001</ele>
        <time>2019-02-03T10:35:28Z</time>
      </trkpt>
      <trkpt lat="45.844812775030732" lon="7.928280020132661">
        <ele>1512.29</ele>
        <time>2019-02-03T10:35:42Z</time>
      </trkpt>
      <trkpt lat="45.844810344278812" lon="7.928285216912627">
        <ele>1515.6600000000001</ele>
        <time>2019-02-03T10:35:47Z</time>
      </trkpt>
      <trkpt lat="45.844793915748596" lon="7.92833031155169">
        <ele>1513.73</ele>
        <time>2019-02-03T10:36:05Z</time>
      </trkpt>
      <trkpt lat="45.844817385077477" lon="7.928342632949352">
        <ele>1514.21</ele>
        <time>2019-02-03T10:36:22Z</time>
      </trkpt>
      <trkpt lat="45.844800369814038" lon="7.928360821679235">
        <ele>1517.0999999999999</ele>
        <time>2019-02-03T10:36:39Z</time>
      </trkpt>
      <trkpt lat="45.844787377864122" lon="7.92837230488658">
        <ele>1519.02</ele>
        <time>2019-02-03T10:36:52Z</time>
      </trkpt>
      <trkpt lat="45.844780504703522" lon="7.928401222452521">
        <ele>1520.9400000000001</ele>
        <time>2019-02-03T10:37:06Z</time>
      </trkpt>
      <trkpt lat="45.844786707311869" lon="7.928441455587745">
        <ele>1523.3499999999999</ele>
        <time>2019-02-03T10:37:13Z</time>
      </trkpt>
      <trkpt lat="45.844785701483488" lon="7.92843977920711">
        <ele>1523.8299999999999</ele>
        <time>2019-02-03T10:37:32Z</time>
      </trkpt>
      <trkpt lat="45.844747480005026" lon="7.928301058709621">
        <ele>1520.46</ele>
        <time>2019-02-03T10:37:40Z</time>
      </trkpt>
      <trkpt lat="45.844740606844425" lon="7.928297789767385">
        <ele>1519.98</ele>
        <time>2019-02-03T10:37:41Z</time>
      </trkpt>
      <trkpt lat="45.844747563824058" lon="7.928117578849196">
        <ele>1517.0999999999999</ele>
        <time>2019-02-03T10:37:52Z</time>
      </trkpt>
      <trkpt lat="45.84479508921504" lon="7.927952455356717">
        <ele>1513.73</ele>
        <time>2019-02-03T10:38:04Z</time>
      </trkpt>
      <trkpt lat="45.84478092379868" lon="7.927893279120326">
        <ele>1515.1800000000001</ele>
        <time>2019-02-03T10:38:15Z</time>
      </trkpt>
      <trkpt lat="45.844790227711201" lon="7.927856147289276">
        <ele>1516.6199999999999</ele>
        <time>2019-02-03T10:38:25Z</time>
      </trkpt>
      <trkpt lat="45.844866754487157" lon="7.927784398198128">
        <ele>1516.6199999999999</ele>
        <time>2019-02-03T10:38:36Z</time>
      </trkpt>
      <trkpt lat="45.844922326505184" lon="7.927760593593121">
        <ele>1519.02</ele>
        <time>2019-02-03T10:38:42Z</time>
      </trkpt>
      <trkpt lat="45.84495191462338" lon="7.927723964676261">
        <ele>1520.9400000000001</ele>
        <time>2019-02-03T10:38:51Z</time>
      </trkpt>
      <trkpt lat="45.84494411945343" lon="7.927721366286278">
        <ele>1523.8299999999999</ele>
        <time>2019-02-03T10:38:56Z</time>
      </trkpt>
      <trkpt lat="45.844939593225718" lon="7.927656741812825">
        <ele>1525.75</ele>
        <time>2019-02-03T10:39:07Z</time>
      </trkpt>
      <trkpt lat="45.844944203272462" lon="7.927652886137366">
        <ele>1525.27</ele>
        <time>2019-02-03T10:39:17Z</time>
      </trkpt>
      <trkpt lat="45.844905981794" lon="7.927653305232525">
        <ele>1525.27</ele>
        <time>2019-02-03T10:39:28Z</time>
      </trkpt>
      <trkpt lat="45.844953507184982" lon="7.927586250007153">
        <ele>1525.75</ele>
        <time>2019-02-03T10:39:39Z</time>
      </trkpt>
      <trkpt lat="45.844914447516203" lon="7.927514752373099">
        <ele>1524.79</ele>
        <time>2019-02-03T10:39:54Z</time>
      </trkpt>
      <trkpt lat="45.844860384240746" lon="7.927527576684952">
        <ele>1527.6700000000001</ele>
        <time>2019-02-03T10:40:11Z</time>
      </trkpt>
      <trkpt lat="45.84486348554492" lon="7.927557835355401">
        <ele>1529.5899999999999</ele>
        <time>2019-02-03T10:40:21Z</time>
      </trkpt>
      <trkpt lat="45.844830293208361" lon="7.927545262500644">
        <ele>1532</ele>
        <time>2019-02-03T10:40:31Z</time>
      </trkpt>
      <trkpt lat="45.844794251024723" lon="7.927475860342383">
        <ele>1533.4400000000001</ele>
        <time>2019-02-03T10:40:42Z</time>
      </trkpt>
      <trkpt lat="45.844808667898178" lon="7.927398663014174">
        <ele>1533.9200000000001</ele>
        <time>2019-02-03T10:40:51Z</time>
      </trkpt>
      <trkpt lat="45.844882428646088" lon="7.927431771531701">
        <ele>1536.3199999999999</ele>
        <time>2019-02-03T10:41:02Z</time>
      </trkpt>
      <trkpt lat="45.844865748658776" lon="7.927384078502655">
        <ele>1538.73</ele>
        <time>2019-02-03T10:41:16Z</time>
      </trkpt>
      <trkpt lat="45.844835406169295" lon="7.927347617223859">
        <ele>1540.1700000000001</ele>
        <time>2019-02-03T10:41:24Z</time>
      </trkpt>
      <trkpt lat="45.844800034537911" lon="7.927350969985127">
        <ele>1542.0899999999999</ele>
        <time>2019-02-03T10:41:33Z</time>
      </trkpt>
      <trkpt lat="45.844769021496177" lon="7.927308389917016">
        <ele>1541.6099999999999</ele>
        <time>2019-02-03T10:41:43Z</time>
      </trkpt>
      <trkpt lat="45.844739684835076" lon="7.927225325256586">
        <ele>1543.05</ele>
        <time>2019-02-03T10:41:55Z</time>
      </trkpt>
      <trkpt lat="45.844769440591335" lon="7.927192049100995">
        <ele>1543.05</ele>
        <time>2019-02-03T10:42:04Z</time>
      </trkpt>
      <trkpt lat="45.844850661233068" lon="7.927184170112014">
        <ele>1543.05</ele>
        <time>2019-02-03T10:42:13Z</time>
      </trkpt>
      <trkpt lat="45.844895923510194" lon="7.927155420184135">
        <ele>1543.05</ele>
        <time>2019-02-03T10:42:24Z</time>
      </trkpt>
      <trkpt lat="45.844953674823046" lon="7.927142595872283">
        <ele>1542.5699999999999</ele>
        <time>2019-02-03T10:42:36Z</time>
      </trkpt>
      <trkpt lat="45.845029363408685" lon="7.927092807367444">
        <ele>1545.9400000000001</ele>
        <time>2019-02-03T10:42:44Z</time>
      </trkpt>
      <trkpt lat="45.845030788332224" lon="7.927089454606175">
        <ele>1547.3800000000001</ele>
        <time>2019-02-03T10:42:48Z</time>
      </trkpt>
      <trkpt lat="45.844957279041409" lon="7.927111079916358">
        <ele>1548.3399999999999</ele>
        <time>2019-02-03T10:42:59Z</time>
      </trkpt>
      <trkpt lat="45.844894833862782" lon="7.927118958905339">
        <ele>1547.8599999999999</ele>
        <time>2019-02-03T10:43:09Z</time>
      </trkpt>
      <trkpt lat="45.844855522736907" lon="7.927019549533725">
        <ele>1547.8599999999999</ele>
        <time>2019-02-03T10:43:21Z</time>
      </trkpt>
      <trkpt lat="45.84484932012856" lon="7.926985351368785">
        <ele>1548.3399999999999</ele>
        <time>2019-02-03T10:43:28Z</time>
      </trkpt>
      <trkpt lat="45.844859629869461" lon="7.926992811262608">
        <ele>1549.78</ele>
        <time>2019-02-03T10:43:32Z</time>
      </trkpt>
      <trkpt lat="45.844942526891828" lon="7.926990129053593">
        <ele>1549.78</ele>
        <time>2019-02-03T10:43:41Z</time>
      </trkpt>
      <trkpt lat="45.84494017995894" lon="7.926931623369455">
        <ele>1551.71</ele>
        <time>2019-02-03T10:43:54Z</time>
      </trkpt>
      <trkpt lat="45.844887625426054" lon="7.926944196224213">
        <ele>1552.1900000000001</ele>
        <time>2019-02-03T10:44:05Z</time>
      </trkpt>
      <trkpt lat="45.844878824427724" lon="7.926926510408521">
        <ele>1553.6300000000001</ele>
        <time>2019-02-03T10:44:08Z</time>
      </trkpt>
      <trkpt lat="45.84485468454659" lon="7.926927851513028">
        <ele>1556.51</ele>
        <time>2019-02-03T10:44:16Z</time>
      </trkpt>
      <trkpt lat="45.844821743667126" lon="7.926901364699006">
        <ele>1557.47</ele>
        <time>2019-02-03T10:44:25Z</time>
      </trkpt>
      <trkpt lat="45.844811517745256" lon="7.926837997511029">
        <ele>1558.9200000000001</ele>
        <time>2019-02-03T10:44:36Z</time>
      </trkpt>
      <trkpt lat="45.844800788909197" lon="7.926767002791166">
        <ele>1559.8800000000001</ele>
        <time>2019-02-03T10:44:45Z</time>
      </trkpt>
      <trkpt lat="45.844788551330566" lon="7.926653595641255">
        <ele>1559.8800000000001</ele>
        <time>2019-02-03T10:44:57Z</time>
      </trkpt>
      <trkpt lat="45.84477455355227" lon="7.926562316715717">
        <ele>1560.8399999999999</ele>
        <time>2019-02-03T10:45:07Z</time>
      </trkpt>
      <trkpt lat="45.844792909920216" lon="7.926524262875319">
        <ele>1563.24</ele>
        <time>2019-02-03T10:45:16Z</time>
      </trkpt>
      <trkpt lat="45.844810931012034" lon="7.926471708342433">
        <ele>1566.1199999999999</ele>
        <time>2019-02-03T10:45:25Z</time>
      </trkpt>
      <trkpt lat="45.844807913526893" lon="7.926386212930083">
        <ele>1568.53</ele>
        <time>2019-02-03T10:45:35Z</time>
      </trkpt>
      <trkpt lat="45.844832304865122" lon="7.926404485478997">
        <ele>1570.9300000000001</ele>
        <time>2019-02-03T10:45:45Z</time>
      </trkpt>
      <trkpt lat="45.844881758093834" lon="7.926399875432253">
        <ele>1574.3</ele>
        <time>2019-02-03T10:46:03Z</time>
      </trkpt>
      <trkpt lat="45.844854852184653" lon="7.926426194608212">
        <ele>1575.74</ele>
        <time>2019-02-03T10:46:26Z</time>
      </trkpt>
      <trkpt lat="45.844851415604353" lon="7.926450502127409">
        <ele>1575.74</ele>
        <time>2019-02-03T10:46:39Z</time>
      </trkpt>
      <trkpt lat="45.844859294593334" lon="7.926441198214889">
        <ele>1575.26</ele>
        <time>2019-02-03T10:46:57Z</time>
      </trkpt>
      <trkpt lat="45.844863820821047" lon="7.92646617628634">
        <ele>1575.74</ele>
        <time>2019-02-03T10:47:15Z</time>
      </trkpt>
      <trkpt lat="45.844868514686823" lon="7.926445137709379">
        <ele>1575.74</ele>
        <time>2019-02-03T10:47:30Z</time>
      </trkpt>
      <trkpt lat="45.844852672889829" lon="7.926421919837594">
        <ele>1573.3299999999999</ele>
        <time>2019-02-03T10:47:44Z</time>
      </trkpt>
      <trkpt lat="45.84485711529851" lon="7.926425524055958">
        <ele>1573.3299999999999</ele>
        <time>2019-02-03T10:47:58Z</time>
      </trkpt>
      <trkpt lat="45.844865832477808" lon="7.926409430801868">
        <ele>1574.3</ele>
        <time>2019-02-03T10:48:13Z</time>
      </trkpt>
      <trkpt lat="45.844859797507524" lon="7.926408676430583">
        <ele>1573.8199999999999</ele>
        <time>2019-02-03T10:48:23Z</time>
      </trkpt>
      <trkpt lat="45.844859965145588" lon="7.926436671987176">
        <ele>1572.8499999999999</ele>
        <time>2019-02-03T10:48:34Z</time>
      </trkpt>
      <trkpt lat="45.844874046742916" lon="7.926477743312717">
        <ele>1575.74</ele>
        <time>2019-02-03T10:48:41Z</time>
      </trkpt>
      <trkpt lat="45.844903886318207" lon="7.92651847936213">
        <ele>1577.6600000000001</ele>
        <time>2019-02-03T10:48:47Z</time>
      </trkpt>
      <trkpt lat="45.844955099746585" lon="7.92655318044126">
        <ele>1579.0999999999999</ele>
        <time>2019-02-03T10:48:58Z</time>
      </trkpt>
      <trkpt lat="45.845034224912524" lon="7.926561143249273">
        <ele>1580.54</ele>
        <time>2019-02-03T10:49:08Z</time>
      </trkpt>
      <trkpt lat="45.84506624378264" lon="7.926508504897356">
        <ele>1582.47</ele>
        <time>2019-02-03T10:49:21Z</time>
      </trkpt>
      <trkpt lat="45.845115361735225" lon="7.926472295075655">
        <ele>1580.0599999999999</ele>
        <time>2019-02-03T10:49:33Z</time>
      </trkpt>
      <trkpt lat="45.845163473859429" lon="7.926422758027911">
        <ele>1580.0599999999999</ele>
        <time>2019-02-03T10:49:44Z</time>
      </trkpt>
      <trkpt lat="45.845199013128877" lon="7.92641437612474">
        <ele>1581.51</ele>
        <time>2019-02-03T10:49:50Z</time>
      </trkpt>
      <trkpt lat="45.845257770270109" lon="7.9264026414603">
        <ele>1584.3900000000001</ele>
        <time>2019-02-03T10:49:59Z</time>
      </trkpt>
      <trkpt lat="45.845314851030707" lon="7.926379591226578">
        <ele>1587.27</ele>
        <time>2019-02-03T10:50:09Z</time>
      </trkpt>
      <trkpt lat="45.845330692827702" lon="7.926342040300369">
        <ele>1588.24</ele>
        <time>2019-02-03T10:50:20Z</time>
      </trkpt>
      <trkpt lat="45.845385175198317" lon="7.926279008388519">
        <ele>1589.2</ele>
        <time>2019-02-03T10:50:37Z</time>
      </trkpt>
      <trkpt lat="45.845440328121185" lon="7.926224945113063">
        <ele>1590.1600000000001</ele>
        <time>2019-02-03T10:50:49Z</time>
      </trkpt>
      <trkpt lat="45.845433371141553" lon="7.926179096102715">
        <ele>1591.1199999999999</ele>
        <time>2019-02-03T10:51:06Z</time>
      </trkpt>
      <trkpt lat="45.845436807721853" lon="7.926130397245288">
        <ele>1592.0799999999999</ele>
        <time>2019-02-03T10:51:20Z</time>
      </trkpt>
      <trkpt lat="45.845532445237041" lon="7.926155626773834">
        <ele>1594.96</ele>
        <time>2019-02-03T10:51:32Z</time>
      </trkpt>
      <trkpt lat="45.845610480755568" lon="7.926119668409228">
        <ele>1596.4100000000001</ele>
        <time>2019-02-03T10:51:46Z</time>
      </trkpt>
      <trkpt lat="45.84567409940064" lon="7.926143389195204">
        <ele>1598.3299999999999</ele>
        <time>2019-02-03T10:52:01Z</time>
      </trkpt>
      <trkpt lat="45.845608385279775" lon="7.926116064190865">
        <ele>1598.3299999999999</ele>
        <time>2019-02-03T10:52:13Z</time>
      </trkpt>
      <trkpt lat="45.845578126609325" lon="7.926071723923087">
        <ele>1598.3299999999999</ele>
        <time>2019-02-03T10:52:23Z</time>
      </trkpt>
      <trkpt lat="45.845561530441046" lon="7.926054792478681">
        <ele>1598.8099999999999</ele>
        <time>2019-02-03T10:52:34Z</time>
      </trkpt>
      <trkpt lat="45.845533618703485" lon="7.925985474139452">
        <ele>1598.8099999999999</ele>
        <time>2019-02-03T10:52:46Z</time>
      </trkpt>
      <trkpt lat="45.84553780965507" lon="7.925928896293044">
        <ele>1598.3299999999999</ele>
        <time>2019-02-03T10:52:57Z</time>
      </trkpt>
      <trkpt lat="45.845508640632033" lon="7.925841640681028">
        <ele>1601.21</ele>
        <time>2019-02-03T10:53:12Z</time>
      </trkpt>
      <trkpt lat="45.845486093312502" lon="7.92578992433846">
        <ele>1602.6600000000001</ele>
        <time>2019-02-03T10:53:26Z</time>
      </trkpt>
      <trkpt lat="45.84546597674489" lon="7.925714738667011">
        <ele>1606.02</ele>
        <time>2019-02-03T10:53:35Z</time>
      </trkpt>
      <trkpt lat="45.845460360869765" lon="7.925626393407583">
        <ele>1605.54</ele>
        <time>2019-02-03T10:53:45Z</time>
      </trkpt>
      <trkpt lat="45.845438316464424" lon="7.925566462799907">
        <ele>1605.0599999999999</ele>
        <time>2019-02-03T10:53:54Z</time>
      </trkpt>
      <trkpt lat="45.845453906804323" lon="7.925560176372528">
        <ele>1606.5</ele>
        <time>2019-02-03T10:54:08Z</time>
      </trkpt>
      <trkpt lat="45.8454361371696" lon="7.925472669303417">
        <ele>1607.9400000000001</ele>
        <time>2019-02-03T10:54:21Z</time>
      </trkpt>
      <trkpt lat="45.845411326736212" lon="7.925390861928463">
        <ele>1610.3499999999999</ele>
        <time>2019-02-03T10:54:33Z</time>
      </trkpt>
      <trkpt lat="45.845392551273108" lon="7.925328752025962">
        <ele>1612.27</ele>
        <time>2019-02-03T10:54:47Z</time>
      </trkpt>
      <trkpt lat="45.845376458019018" lon="7.925256667658687">
        <ele>1613.71</ele>
        <time>2019-02-03T10:54:57Z</time>
      </trkpt>
      <trkpt lat="45.845395233482122" lon="7.925294972956181">
        <ele>1617.0699999999999</ele>
        <time>2019-02-03T10:55:05Z</time>
      </trkpt>
      <trkpt lat="45.845381151884794" lon="7.925245184451342">
        <ele>1619.48</ele>
        <time>2019-02-03T10:55:22Z</time>
      </trkpt>
      <trkpt lat="45.845370087772608" lon="7.925145020708442">
        <ele>1618.52</ele>
        <time>2019-02-03T10:55:32Z</time>
      </trkpt>
      <trkpt lat="45.845331866294146" lon="7.925094394013286">
        <ele>1617.0699999999999</ele>
        <time>2019-02-03T10:55:42Z</time>
      </trkpt>
      <trkpt lat="45.845257686451077" lon="7.925007389858365">
        <ele>1618.52</ele>
        <time>2019-02-03T10:55:56Z</time>
      </trkpt>
      <trkpt lat="45.84521627984941" lon="7.924836650490761">
        <ele>1616.5899999999999</ele>
        <time>2019-02-03T10:56:11Z</time>
      </trkpt>
      <trkpt lat="45.845243269577622" lon="7.92485224083066">
        <ele>1619.96</ele>
        <time>2019-02-03T10:56:24Z</time>
      </trkpt>
      <trkpt lat="45.84520211443305" lon="7.924773450940847">
        <ele>1619.96</ele>
        <time>2019-02-03T10:56:38Z</time>
      </trkpt>
      <trkpt lat="45.845177555456758" lon="7.924651242792606">
        <ele>1618.52</ele>
        <time>2019-02-03T10:56:49Z</time>
      </trkpt>
      <trkpt lat="45.845173113048077" lon="7.92464017868042">
        <ele>1619.96</ele>
        <time>2019-02-03T10:56:53Z</time>
      </trkpt>
      <trkpt lat="45.845092730596662" lon="7.924522161483765">
        <ele>1619.48</ele>
        <time>2019-02-03T10:57:07Z</time>
      </trkpt>
      <trkpt lat="45.845027519389987" lon="7.924388218671084">
        <ele>1621.8800000000001</ele>
        <time>2019-02-03T10:57:16Z</time>
      </trkpt>
      <trkpt lat="45.845014024525881" lon="7.92428445070982">
        <ele>1624.28</ele>
        <time>2019-02-03T10:57:30Z</time>
      </trkpt>
      <trkpt lat="45.845017125830054" lon="7.924211025238037">
        <ele>1627.1700000000001</ele>
        <time>2019-02-03T10:57:37Z</time>
      </trkpt>
      <trkpt lat="45.84499491378665" lon="7.924092169851065">
        <ele>1629.5699999999999</ele>
        <time>2019-02-03T10:57:51Z</time>
      </trkpt>
      <trkpt lat="45.84498125128448" lon="7.924006003886461">
        <ele>1626.21</ele>
        <time>2019-02-03T10:57:59Z</time>
      </trkpt>
      <trkpt lat="45.844951411709189" lon="7.923879269510508">
        <ele>1626.6900000000001</ele>
        <time>2019-02-03T10:58:12Z</time>
      </trkpt>
      <trkpt lat="45.844943197444081" lon="7.923869043588638">
        <ele>1629.0899999999999</ele>
        <time>2019-02-03T10:58:17Z</time>
      </trkpt>
      <trkpt lat="45.844937916845083" lon="7.923787068575621">
        <ele>1628.6099999999999</ele>
        <time>2019-02-03T10:58:28Z</time>
      </trkpt>
      <trkpt lat="45.844919895753264" lon="7.923725042492151">
        <ele>1631.98</ele>
        <time>2019-02-03T10:58:36Z</time>
      </trkpt>
      <trkpt lat="45.84493582136929" lon="7.923719258978963">
        <ele>1634.8599999999999</ele>
        <time>2019-02-03T10:58:42Z</time>
      </trkpt>
      <trkpt lat="45.844935989007354" lon="7.923688078299165">
        <ele>1638.7</ele>
        <time>2019-02-03T10:58:54Z</time>
      </trkpt>
      <trkpt lat="45.844953507184982" lon="7.923672068864107">
        <ele>1642.0699999999999</ele>
        <time>2019-02-03T10:59:04Z</time>
      </trkpt>
      <trkpt lat="45.844972869381309" lon="7.923698136582971">
        <ele>1644.95</ele>
        <time>2019-02-03T10:59:21Z</time>
      </trkpt>
      <trkpt lat="45.84497781470418" lon="7.923654885962606">
        <ele>1645.9100000000001</ele>
        <time>2019-02-03T10:59:40Z</time>
      </trkpt>
      <trkpt lat="45.84497588686645" lon="7.923674248158932">
        <ele>1643.51</ele>
        <time>2019-02-03T10:59:59Z</time>
      </trkpt>
      <trkpt lat="45.844979239627719" lon="7.923665614798665">
        <ele>1643.51</ele>
        <time>2019-02-03T11:00:12Z</time>
      </trkpt>
      <trkpt lat="45.845011509954929" lon="7.923668129369617">
        <ele>1646.8800000000001</ele>
        <time>2019-02-03T11:00:30Z</time>
      </trkpt>
      <trkpt lat="45.84489475004375" lon="7.923635188490152">
        <ele>1646.4000000000001</ele>
        <time>2019-02-03T11:00:42Z</time>
      </trkpt>
      <trkpt lat="45.84486591629684" lon="7.923592273145914">
        <ele>1643.03</ele>
        <time>2019-02-03T11:00:49Z</time>
      </trkpt>
      <trkpt lat="45.844839848577976" lon="7.923526642844081">
        <ele>1639.6700000000001</ele>
        <time>2019-02-03T11:00:57Z</time>
      </trkpt>
      <trkpt lat="45.844837669283152" lon="7.923508202657104">
        <ele>1638.7</ele>
        <time>2019-02-03T11:00:59Z</time>
      </trkpt>
      <trkpt lat="45.844819396734238" lon="7.9234186001122">
        <ele>1639.1900000000001</ele>
        <time>2019-02-03T11:01:14Z</time>
      </trkpt>
      <trkpt lat="45.844787880778313" lon="7.923332015052438">
        <ele>1641.5899999999999</ele>
        <time>2019-02-03T11:01:28Z</time>
      </trkpt>
      <trkpt lat="45.844759717583656" lon="7.923262109979987">
        <ele>1643.03</ele>
        <time>2019-02-03T11:01:40Z</time>
      </trkpt>
      <trkpt lat="45.84474865347147" lon="7.923185499384999">
        <ele>1645.9100000000001</ele>
        <time>2019-02-03T11:01:53Z</time>
      </trkpt>
      <trkpt lat="45.844752341508865" lon="7.923165047541261">
        <ele>1647.3599999999999</ele>
        <time>2019-02-03T11:02:02Z</time>
      </trkpt>
      <trkpt lat="45.844758795574307" lon="7.923172926530242">
        <ele>1650.72</ele>
        <time>2019-02-03T11:02:16Z</time>
      </trkpt>
      <trkpt lat="45.844753934070468" lon="7.923191953450441">
        <ele>1653.5999999999999</ele>
        <time>2019-02-03T11:02:30Z</time>
      </trkpt>
      <trkpt lat="45.844758627936244" lon="7.923191450536251">
        <ele>1651.2</ele>
        <time>2019-02-03T11:02:49Z</time>
      </trkpt>
      <trkpt lat="45.844750916585326" lon="7.923169657588005">
        <ele>1648.8</ele>
        <time>2019-02-03T11:03:08Z</time>
      </trkpt>
      <trkpt lat="45.844761729240417" lon="7.923156665638089">
        <ele>1652.1600000000001</ele>
        <time>2019-02-03T11:03:25Z</time>
      </trkpt>
      <trkpt lat="45.844749072566628" lon="7.923156330361962">
        <ele>1653.5999999999999</ele>
        <time>2019-02-03T11:03:44Z</time>
      </trkpt>
      <trkpt lat="45.844745635986328" lon="7.923165634274483">
        <ele>1651.2</ele>
        <time>2019-02-03T11:04:04Z</time>
      </trkpt>
      <trkpt lat="45.844735745340586" lon="7.923113331198692">
        <ele>1649.76</ele>
        <time>2019-02-03T11:04:28Z</time>
      </trkpt>
      <trkpt lat="45.844721999019384" lon="7.923116013407707">
        <ele>1653.1199999999999</ele>
        <time>2019-02-03T11:04:52Z</time>
      </trkpt>
      <trkpt lat="45.844737505540252" lon="7.923136800527573">
        <ele>1655.53</ele>
        <time>2019-02-03T11:05:11Z</time>
      </trkpt>
      <trkpt lat="45.844774469733238" lon="7.923159096390009">
        <ele>1654.5699999999999</ele>
        <time>2019-02-03T11:05:25Z</time>
      </trkpt>
      <trkpt lat="45.844741109758615" lon="7.923104446381331">
        <ele>1651.6800000000001</ele>
        <time>2019-02-03T11:05:40Z</time>
      </trkpt>
      <trkpt lat="45.844747899100184" lon="7.923085670918226">
        <ele>1651.6800000000001</ele>
        <time>2019-02-03T11:05:51Z</time>
      </trkpt>
      <trkpt lat="45.844785533845425" lon="7.923104446381331">
        <ele>1652.1600000000001</ele>
        <time>2019-02-03T11:06:03Z</time>
      </trkpt>
      <trkpt lat="45.844827191904187" lon="7.923135291785002">
        <ele>1651.6800000000001</ele>
        <time>2019-02-03T11:06:14Z</time>
      </trkpt>
      <trkpt lat="45.844804476946592" lon="7.923104194924235">
        <ele>1648.8</ele>
        <time>2019-02-03T11:06:22Z</time>
      </trkpt>
      <trkpt lat="45.844794167205691" lon="7.923112157732248">
        <ele>1644.95</ele>
        <time>2019-02-03T11:06:33Z</time>
      </trkpt>
      <trkpt lat="45.844788635149598" lon="7.923099501058459">
        <ele>1643.03</ele>
        <time>2019-02-03T11:06:51Z</time>
      </trkpt>
      <trkpt lat="45.844805734232068" lon="7.923162532970309">
        <ele>1645.9100000000001</ele>
        <time>2019-02-03T11:07:09Z</time>
      </trkpt>
      <trkpt lat="45.844778073951602" lon="7.923131100833416">
        <ele>1648.3199999999999</ele>
        <time>2019-02-03T11:07:30Z</time>
      </trkpt>
      <trkpt lat="45.844784947112203" lon="7.923124311491847">
        <ele>1649.28</ele>
        <time>2019-02-03T11:07:52Z</time>
      </trkpt>
      <trkpt lat="45.844774385914207" lon="7.923035128042102">
        <ele>1649.28</ele>
        <time>2019-02-03T11:08:03Z</time>
      </trkpt>
      <trkpt lat="45.844816295430064" lon="7.923010317608714">
        <ele>1650.24</ele>
        <time>2019-02-03T11:08:14Z</time>
      </trkpt>
      <trkpt lat="45.844808919355273" lon="7.922998750582337">
        <ele>1650.24</ele>
        <time>2019-02-03T11:08:27Z</time>
      </trkpt>
      <trkpt lat="45.844814367592335" lon="7.923022722825408">
        <ele>1648.3199999999999</ele>
        <time>2019-02-03T11:08:39Z</time>
      </trkpt>
      <trkpt lat="45.84482685662806" lon="7.922966899350286">
        <ele>1649.28</ele>
        <time>2019-02-03T11:08:51Z</time>
      </trkpt>
      <trkpt lat="45.844828700646758" lon="7.922857012599707">
        <ele>1650.24</ele>
        <time>2019-02-03T11:09:03Z</time>
      </trkpt>
      <trkpt lat="45.84481118246913" lon="7.922789119184017">
        <ele>1649.28</ele>
        <time>2019-02-03T11:09:13Z</time>
      </trkpt>
      <trkpt lat="45.844782516360283" lon="7.922714520245791">
        <ele>1651.2</ele>
        <time>2019-02-03T11:09:25Z</time>
      </trkpt>
      <trkpt lat="45.844793077558279" lon="7.922722063958645">
        <ele>1653.1199999999999</ele>
        <time>2019-02-03T11:09:39Z</time>
      </trkpt>
      <trkpt lat="45.844797771424055" lon="7.922628438100219">
        <ele>1653.1199999999999</ele>
        <time>2019-02-03T11:09:50Z</time>
      </trkpt>
      <trkpt lat="45.844796933233738" lon="7.922503212466836">
        <ele>1653.5999999999999</ele>
        <time>2019-02-03T11:10:02Z</time>
      </trkpt>
      <trkpt lat="45.844827108085155" lon="7.922387793660164">
        <ele>1656.49</ele>
        <time>2019-02-03T11:10:19Z</time>
      </trkpt>
      <trkpt lat="45.844830796122551" lon="7.922375472262502">
        <ele>1656.49</ele>
        <time>2019-02-03T11:10:20Z</time>
      </trkpt>
      <trkpt lat="45.844836328178644" lon="7.922229040414095">
        <ele>1657.45</ele>
        <time>2019-02-03T11:10:32Z</time>
      </trkpt>
      <trkpt lat="45.844842279329896" lon="7.922079507261515">
        <ele>1659.3699999999999</ele>
        <time>2019-02-03T11:10:45Z</time>
      </trkpt>
      <trkpt lat="45.844841776415706" lon="7.921962076798081">
        <ele>1659.3699999999999</ele>
        <time>2019-02-03T11:10:55Z</time>
      </trkpt>
      <trkpt lat="45.844841105863452" lon="7.921877587214112">
        <ele>1661.3</ele>
        <time>2019-02-03T11:11:04Z</time>
      </trkpt>
      <trkpt lat="45.844824677333236" lon="7.921786727383733">
        <ele>1663.7</ele>
        <time>2019-02-03T11:11:17Z</time>
      </trkpt>
      <trkpt lat="45.844811936840415" lon="7.921766946092248">
        <ele>1665.1400000000001</ele>
        <time>2019-02-03T11:11:27Z</time>
      </trkpt>
      <trkpt lat="45.8448126912117" lon="7.921679690480232">
        <ele>1665.1400000000001</ele>
        <time>2019-02-03T11:11:39Z</time>
      </trkpt>
      <trkpt lat="45.844823084771633" lon="7.92167030274868">
        <ele>1668.02</ele>
        <time>2019-02-03T11:11:48Z</time>
      </trkpt>
      <trkpt lat="45.844796514138579" lon="7.921580448746681">
        <ele>1668.02</ele>
        <time>2019-02-03T11:12:00Z</time>
      </trkpt>
      <trkpt lat="45.844796430319548" lon="7.921511800959706">
        <ele>1667.54</ele>
        <time>2019-02-03T11:12:11Z</time>
      </trkpt>
      <trkpt lat="45.844759047031403" lon="7.921377941966057">
        <ele>1667.0599999999999</ele>
        <time>2019-02-03T11:12:24Z</time>
      </trkpt>
      <trkpt lat="45.844742115586996" lon="7.921286495402455">
        <ele>1668.02</ele>
        <time>2019-02-03T11:12:36Z</time>
      </trkpt>
      <trkpt lat="45.84474228322506" lon="7.92130627669394">
        <ele>1669.47</ele>
        <time>2019-02-03T11:12:51Z</time>
      </trkpt>
      <trkpt lat="45.844748234376311" lon="7.921329997479916">
        <ele>1668.51</ele>
        <time>2019-02-03T11:13:00Z</time>
      </trkpt>
      <trkpt lat="45.844726944342256" lon="7.921304348856211">
        <ele>1667.54</ele>
        <time>2019-02-03T11:13:17Z</time>
      </trkpt>
      <trkpt lat="45.844724094495177" lon="7.921309042721987">
        <ele>1667.0599999999999</ele>
        <time>2019-02-03T11:13:40Z</time>
      </trkpt>
      <trkpt lat="45.84472032263875" lon="7.921279286965728">
        <ele>1667.54</ele>
        <time>2019-02-03T11:14:09Z</time>
      </trkpt>
      <trkpt lat="45.844707749783993" lon="7.921265121549368">
        <ele>1664.6600000000001</ele>
        <time>2019-02-03T11:14:25Z</time>
      </trkpt>
      <trkpt lat="45.844732141122222" lon="7.921241484582424">
        <ele>1663.7</ele>
        <time>2019-02-03T11:14:53Z</time>
      </trkpt>
      <trkpt lat="45.844728704541922" lon="7.921241233125329">
        <ele>1665.6199999999999</ele>
        <time>2019-02-03T11:15:19Z</time>
      </trkpt>
      <trkpt lat="45.844766842201352" lon="7.921237209811807">
        <ele>1667.0599999999999</ele>
        <time>2019-02-03T11:15:46Z</time>
      </trkpt>
      <trkpt lat="45.844764327630401" lon="7.921251710504293">
        <ele>1669.47</ele>
        <time>2019-02-03T11:16:18Z</time>
      </trkpt>
      <trkpt lat="45.844735410064459" lon="7.921295966953039">
        <ele>1671.8699999999999</ele>
        <time>2019-02-03T11:16:43Z</time>
      </trkpt>
      <trkpt lat="45.844774385914207" lon="7.921280628070235">
        <ele>1674.75</ele>
        <time>2019-02-03T11:17:16Z</time>
      </trkpt>
      <trkpt lat="45.844773966819048" lon="7.921291273087263">
        <ele>1677.6400000000001</ele>
        <time>2019-02-03T11:17:44Z</time>
      </trkpt>
      <trkpt lat="45.844757203012705" lon="7.921307282522321">
        <ele>1681</ele>
        <time>2019-02-03T11:18:07Z</time>
      </trkpt>
      <trkpt lat="45.844785701483488" lon="7.921287333592773">
        <ele>1683.8900000000001</ele>
        <time>2019-02-03T11:18:21Z</time>
      </trkpt>
      <trkpt lat="45.844804979860783" lon="7.921282723546028">
        <ele>1687.25</ele>
        <time>2019-02-03T11:18:38Z</time>
      </trkpt>
      <trkpt lat="45.844775224104524" lon="7.921301415190101">
        <ele>1685.8099999999999</ele>
        <time>2019-02-03T11:19:03Z</time>
      </trkpt>
      <trkpt lat="45.844772960990667" lon="7.921295547857881">
        <ele>1683.8900000000001</ele>
        <time>2019-02-03T11:19:09Z</time>
      </trkpt>
      <trkpt lat="45.84476625546813" lon="7.921295296400785">
        <ele>1680.52</ele>
        <time>2019-02-03T11:19:16Z</time>
      </trkpt>
      <trkpt lat="45.844766087830067" lon="7.921278951689601">
        <ele>1677.1600000000001</ele>
        <time>2019-02-03T11:19:22Z</time>
      </trkpt>
      <trkpt lat="45.844760639593005" lon="7.921269815415144">
        <ele>1673.79</ele>
        <time>2019-02-03T11:19:28Z</time>
      </trkpt>
      <trkpt lat="45.844755945727229" lon="7.921254811808467">
        <ele>1670.9100000000001</ele>
        <time>2019-02-03T11:19:49Z</time>
      </trkpt>
      <trkpt lat="45.844771368429065" lon="7.921259002760053">
        <ele>1671.8699999999999</ele>
        <time>2019-02-03T11:20:21Z</time>
      </trkpt>
      <trkpt lat="45.844781175255775" lon="7.92123394086957">
        <ele>1672.8299999999999</ele>
        <time>2019-02-03T11:20:38Z</time>
      </trkpt>
      <trkpt lat="45.844775140285492" lon="7.921240143477917">
        <ele>1673.79</ele>
        <time>2019-02-03T11:21:03Z</time>
      </trkpt>
      <trkpt lat="45.844778073951602" lon="7.921248693019152">
        <ele>1675.23</ele>
        <time>2019-02-03T11:21:25Z</time>
      </trkpt>
      <trkpt lat="45.844773212447762" lon="7.921247016638517">
        <ele>1673.79</ele>
        <time>2019-02-03T11:21:49Z</time>
      </trkpt>
      <trkpt lat="45.844776146113873" lon="7.921257996931672">
        <ele>1675.72</ele>
        <time>2019-02-03T11:22:12Z</time>
      </trkpt>
      <trkpt lat="45.844769775867462" lon="7.921264367178083">
        <ele>1678.5999999999999</ele>
        <time>2019-02-03T11:22:42Z</time>
      </trkpt>
      <trkpt lat="45.84478628821671" lon="7.921242658048868">
        <ele>1680.04</ele>
        <time>2019-02-03T11:23:06Z</time>
      </trkpt>
      <trkpt lat="45.844795759767294" lon="7.9212652053684">
        <ele>1681</ele>
        <time>2019-02-03T11:23:27Z</time>
      </trkpt>
      <trkpt lat="45.844803471118212" lon="7.921264031901956">
        <ele>1682.9300000000001</ele>
        <time>2019-02-03T11:23:53Z</time>
      </trkpt>
      <trkpt lat="45.844764327630401" lon="7.92125933803618">
        <ele>1679.5599999999999</ele>
        <time>2019-02-03T11:24:16Z</time>
      </trkpt>
      <trkpt lat="45.844781259074807" lon="7.921273838728666">
        <ele>1678.1199999999999</ele>
        <time>2019-02-03T11:24:34Z</time>
      </trkpt>
      <trkpt lat="45.844759549945593" lon="7.921258416026831">
        <ele>1675.72</ele>
        <time>2019-02-03T11:24:56Z</time>
      </trkpt>
      <trkpt lat="45.844755861908197" lon="7.921243831515312">
        <ele>1674.75</ele>
        <time>2019-02-03T11:25:18Z</time>
      </trkpt>
      <trkpt lat="45.844736499711871" lon="7.921247016638517">
        <ele>1671.8699999999999</ele>
        <time>2019-02-03T11:25:42Z</time>
      </trkpt>
      <trkpt lat="45.844743456691504" lon="7.921247854828835">
        <ele>1669.95</ele>
        <time>2019-02-03T11:26:15Z</time>
      </trkpt>
      <trkpt lat="45.844741612672806" lon="7.921233354136348">
        <ele>1670.4300000000001</ele>
        <time>2019-02-03T11:26:48Z</time>
      </trkpt>
      <trkpt lat="45.844733398407698" lon="7.921259086579084">
        <ele>1672.3499999999999</ele>
        <time>2019-02-03T11:27:11Z</time>
      </trkpt>
      <trkpt lat="45.844749743118882" lon="7.921238467097282">
        <ele>1674.75</ele>
        <time>2019-02-03T11:27:31Z</time>
      </trkpt>
      <trkpt lat="45.844758208841085" lon="7.921232935041189">
        <ele>1674.75</ele>
        <time>2019-02-03T11:27:52Z</time>
      </trkpt>
      <trkpt lat="45.844762986525893" lon="7.921232515946031">
        <ele>1675.72</ele>
        <time>2019-02-03T11:28:18Z</time>
      </trkpt>
      <trkpt lat="45.844779666513205" lon="7.921220529824495">
        <ele>1676.2</ele>
        <time>2019-02-03T11:28:43Z</time>
      </trkpt>
      <trkpt lat="45.844776313751936" lon="7.921234359964728">
        <ele>1672.8299999999999</ele>
        <time>2019-02-03T11:29:04Z</time>
      </trkpt>
      <trkpt lat="45.844767009839416" lon="7.921253219246864">
        <ele>1671.3900000000001</ele>
        <time>2019-02-03T11:29:26Z</time>
      </trkpt>
      <trkpt lat="45.844763405621052" lon="7.921248693019152">
        <ele>1669.95</ele>
        <time>2019-02-03T11:29:52Z</time>
      </trkpt>
      <trkpt lat="45.844785952940583" lon="7.921245843172073">
        <ele>1669.95</ele>
        <time>2019-02-03T11:30:18Z</time>
      </trkpt>
      <trkpt lat="45.844772709533572" lon="7.921241149306297">
        <ele>1670.4300000000001</ele>
        <time>2019-02-03T11:30:37Z</time>
      </trkpt>
      <trkpt lat="45.844771955162287" lon="7.921254392713308">
        <ele>1672.8299999999999</ele>
        <time>2019-02-03T11:31:00Z</time>
      </trkpt>
      <trkpt lat="45.844769440591335" lon="7.921265540644527">
        <ele>1674.27</ele>
        <time>2019-02-03T11:31:22Z</time>
      </trkpt>
      <trkpt lat="45.844736834987998" lon="7.921262187883258">
        <ele>1671.3900000000001</ele>
        <time>2019-02-03T11:31:50Z</time>
      </trkpt>
      <trkpt lat="45.844751335680485" lon="7.921271910890937">
        <ele>1672.3499999999999</ele>
        <time>2019-02-03T11:32:20Z</time>
      </trkpt>
      <trkpt lat="45.844767009839416" lon="7.921275347471237">
        <ele>1674.27</ele>
        <time>2019-02-03T11:32:47Z</time>
      </trkpt>
      <trkpt lat="45.844801040366292" lon="7.921241819858551">
        <ele>1677.1600000000001</ele>
        <time>2019-02-03T11:33:02Z</time>
      </trkpt>
      <trkpt lat="45.84477111697197" lon="7.921270150691271">
        <ele>1674.27</ele>
        <time>2019-02-03T11:33:20Z</time>
      </trkpt>
      <trkpt lat="45.844771787524223" lon="7.92127107270062">
        <ele>1673.79</ele>
        <time>2019-02-03T11:33:21Z</time>
      </trkpt>
      <trkpt lat="45.844772206619382" lon="7.921268809586763">
        <ele>1670.9100000000001</ele>
        <time>2019-02-03T11:33:39Z</time>
      </trkpt>
      <trkpt lat="45.844758544117212" lon="7.921270150691271">
        <ele>1668.99</ele>
        <time>2019-02-03T11:34:00Z</time>
      </trkpt>
      <trkpt lat="45.84472862072289" lon="7.921291943639517">
        <ele>1668.02</ele>
        <time>2019-02-03T11:34:26Z</time>
      </trkpt>
      <trkpt lat="45.844704816117883" lon="7.921301834285259">
        <ele>1668.51</ele>
        <time>2019-02-03T11:34:55Z</time>
      </trkpt>
      <trkpt lat="45.844699032604694" lon="7.921310635283589">
        <ele>1667.54</ele>
        <time>2019-02-03T11:35:17Z</time>
      </trkpt>
      <trkpt lat="45.844700541347265" lon="7.921295966953039">
        <ele>1667.0599999999999</ele>
        <time>2019-02-03T11:35:38Z</time>
      </trkpt>
      <trkpt lat="45.844711270183325" lon="7.921277107670903">
        <ele>1666.0999999999999</ele>
        <time>2019-02-03T11:36:03Z</time>
      </trkpt>
      <trkpt lat="45.844709677621722" lon="7.92129403911531">
        <ele>1668.99</ele>
        <time>2019-02-03T11:36:29Z</time>
      </trkpt>
      <trkpt lat="45.844735912978649" lon="7.921259589493275">
        <ele>1671.3900000000001</ele>
        <time>2019-02-03T11:36:59Z</time>
      </trkpt>
      <trkpt lat="45.844749407842755" lon="7.921258248388767">
        <ele>1670.9100000000001</ele>
        <time>2019-02-03T11:37:23Z</time>
      </trkpt>
      <trkpt lat="45.844733901321888" lon="7.921281298622489">
        <ele>1670.9100000000001</ele>
        <time>2019-02-03T11:37:53Z</time>
      </trkpt>
      <trkpt lat="45.844744630157948" lon="7.92127107270062">
        <ele>1672.3499999999999</ele>
        <time>2019-02-03T11:38:19Z</time>
      </trkpt>
      <trkpt lat="45.84474672563374" lon="7.921278700232506">
        <ele>1672.8299999999999</ele>
        <time>2019-02-03T11:38:45Z</time>
      </trkpt>
      <trkpt lat="45.844752760604024" lon="7.921261098235846">
        <ele>1674.27</ele>
        <time>2019-02-03T11:39:09Z</time>
      </trkpt>
      <trkpt lat="45.844770530238748" lon="7.921238802373409">
        <ele>1674.27</ele>
        <time>2019-02-03T11:39:34Z</time>
      </trkpt>
      <trkpt lat="45.844781510531902" lon="7.921232515946031">
        <ele>1674.75</ele>
        <time>2019-02-03T11:39:56Z</time>
      </trkpt>
      <trkpt lat="45.844804812222719" lon="7.921215752139688">
        <ele>1673.3099999999999</ele>
        <time>2019-02-03T11:40:21Z</time>
      </trkpt>
      <trkpt lat="45.844795173034072" lon="7.921215835958719">
        <ele>1671.3900000000001</ele>
        <time>2019-02-03T11:40:39Z</time>
      </trkpt>
      <trkpt lat="45.844775140285492" lon="7.921241149306297">
        <ele>1672.3499999999999</ele>
        <time>2019-02-03T11:41:00Z</time>
      </trkpt>
      <trkpt lat="45.844775140285492" lon="7.921239556744695">
        <ele>1673.3099999999999</ele>
        <time>2019-02-03T11:41:18Z</time>
      </trkpt>
      <trkpt lat="45.84478922188282" lon="7.92123343795538">
        <ele>1673.79</ele>
        <time>2019-02-03T11:41:42Z</time>
      </trkpt>
      <trkpt lat="45.844787377864122" lon="7.921232180669904">
        <ele>1673.79</ele>
        <time>2019-02-03T11:42:05Z</time>
      </trkpt>
      <trkpt lat="45.844780085608363" lon="7.921232767403126">
        <ele>1674.75</ele>
        <time>2019-02-03T11:42:25Z</time>
      </trkpt>
      <trkpt lat="45.844783186912537" lon="7.921234192326665">
        <ele>1674.75</ele>
        <time>2019-02-03T11:42:49Z</time>
      </trkpt>
      <trkpt lat="45.844752760604024" lon="7.921270905062556">
        <ele>1671.3900000000001</ele>
        <time>2019-02-03T11:43:09Z</time>
      </trkpt>
      <trkpt lat="45.844752425327897" lon="7.921260092407465">
        <ele>1671.3900000000001</ele>
        <time>2019-02-03T11:43:28Z</time>
      </trkpt>
      <trkpt lat="45.844757286831737" lon="7.921274676918984">
        <ele>1668.51</ele>
        <time>2019-02-03T11:43:43Z</time>
      </trkpt>
      <trkpt lat="45.844752760604024" lon="7.921288087964058">
        <ele>1667.0599999999999</ele>
        <time>2019-02-03T11:44:07Z</time>
      </trkpt>
      <trkpt lat="45.844749994575977" lon="7.921295631676912">
        <ele>1669.47</ele>
        <time>2019-02-03T11:44:30Z</time>
      </trkpt>
      <trkpt lat="45.844755442813039" lon="7.921288004145026">
        <ele>1668.99</ele>
        <time>2019-02-03T11:44:45Z</time>
      </trkpt>
      <trkpt lat="45.844753934070468" lon="7.921283226460218">
        <ele>1668.02</ele>
        <time>2019-02-03T11:45:06Z</time>
      </trkpt>
      <trkpt lat="45.844749910756946" lon="7.921295631676912">
        <ele>1666.0999999999999</ele>
        <time>2019-02-03T11:45:33Z</time>
      </trkpt>
      <trkpt lat="45.844727531075478" lon="7.921311054378748">
        <ele>1665.1400000000001</ele>
        <time>2019-02-03T11:45:52Z</time>
      </trkpt>
      <trkpt lat="45.844724429771304" lon="7.921306109055877">
        <ele>1664.1800000000001</ele>
        <time>2019-02-03T11:46:14Z</time>
      </trkpt>
      <trkpt lat="45.844735242426395" lon="7.92128331027925">
        <ele>1664.6600000000001</ele>
        <time>2019-02-03T11:46:31Z</time>
      </trkpt>
      <trkpt lat="45.844732727855444" lon="7.92130334302783">
        <ele>1663.22</ele>
        <time>2019-02-03T11:46:52Z</time>
      </trkpt>
      <trkpt lat="45.844727531075478" lon="7.921306025236845">
        <ele>1663.22</ele>
        <time>2019-02-03T11:47:12Z</time>
      </trkpt>
      <trkpt lat="45.844728788360953" lon="7.921289345249534">
        <ele>1664.1800000000001</ele>
        <time>2019-02-03T11:47:30Z</time>
      </trkpt>
      <trkpt lat="45.844738511368632" lon="7.921293200924993">
        <ele>1665.1400000000001</ele>
        <time>2019-02-03T11:47:50Z</time>
      </trkpt>
      <trkpt lat="45.844746977090836" lon="7.921284232288599">
        <ele>1667.0599999999999</ele>
        <time>2019-02-03T11:48:15Z</time>
      </trkpt>
      <trkpt lat="45.844728536903858" lon="7.921305187046528">
        <ele>1667.0599999999999</ele>
        <time>2019-02-03T11:48:36Z</time>
      </trkpt>
      <trkpt lat="45.844744797796011" lon="7.921311557292938">
        <ele>1668.02</ele>
        <time>2019-02-03T11:48:53Z</time>
      </trkpt>
      <trkpt lat="45.844766423106194" lon="7.921290770173073">
        <ele>1668.02</ele>
        <time>2019-02-03T11:49:18Z</time>
      </trkpt>
      <trkpt lat="45.844774134457111" lon="7.921287668868899">
        <ele>1666.5799999999999</ele>
        <time>2019-02-03T11:49:35Z</time>
      </trkpt>
      <trkpt lat="45.844762902706861" lon="7.921290434896946">
        <ele>1667.0599999999999</ele>
        <time>2019-02-03T11:49:55Z</time>
      </trkpt>
      <trkpt lat="45.844771703705192" lon="7.921288507059217">
        <ele>1668.99</ele>
        <time>2019-02-03T11:50:16Z</time>
      </trkpt>
      <trkpt lat="45.844774805009365" lon="7.921285154297948">
        <ele>1669.95</ele>
        <time>2019-02-03T11:50:30Z</time>
      </trkpt>
      <trkpt lat="45.844771955162287" lon="7.9212945420295">
        <ele>1670.9100000000001</ele>
        <time>2019-02-03T11:50:46Z</time>
      </trkpt>
      <trkpt lat="45.844764998182654" lon="7.92129160836339">
        <ele>1672.3499999999999</ele>
        <time>2019-02-03T11:51:07Z</time>
      </trkpt>
      <trkpt lat="45.844767177477479" lon="7.921277778223157">
        <ele>1670.9100000000001</ele>
        <time>2019-02-03T11:51:28Z</time>
      </trkpt>
      <trkpt lat="45.844754353165627" lon="7.921280041337013">
        <ele>1669.47</ele>
        <time>2019-02-03T11:51:47Z</time>
      </trkpt>
      <trkpt lat="45.844755694270134" lon="7.921276185661554">
        <ele>1668.51</ele>
        <time>2019-02-03T11:52:07Z</time>
      </trkpt>
      <trkpt lat="45.844743875786662" lon="7.921292446553707">
        <ele>1667.54</ele>
        <time>2019-02-03T11:52:27Z</time>
      </trkpt>
      <trkpt lat="45.844748402014375" lon="7.921281382441521">
        <ele>1666.5799999999999</ele>
        <time>2019-02-03T11:52:42Z</time>
      </trkpt>
      <trkpt lat="45.844749575480819" lon="7.921275431290269">
        <ele>1667.54</ele>
        <time>2019-02-03T11:53:03Z</time>
      </trkpt>
      <trkpt lat="45.844770027324557" lon="7.921255482360721">
        <ele>1668.99</ele>
        <time>2019-02-03T11:53:20Z</time>
      </trkpt>
      <trkpt lat="45.844773380085826" lon="7.921270150691271">
        <ele>1669.47</ele>
        <time>2019-02-03T11:53:40Z</time>
      </trkpt>
      <trkpt lat="45.844774637371302" lon="7.92126621119678">
        <ele>1669.95</ele>
        <time>2019-02-03T11:53:58Z</time>
      </trkpt>
      <trkpt lat="45.84477405063808" lon="7.921275850385428">
        <ele>1669.95</ele>
        <time>2019-02-03T11:54:15Z</time>
      </trkpt>
      <trkpt lat="45.84476969204843" lon="7.921292027458549">
        <ele>1669.95</ele>
        <time>2019-02-03T11:54:34Z</time>
      </trkpt>
      <trkpt lat="45.844746557995677" lon="7.921329746022821">
        <ele>1669.47</ele>
        <time>2019-02-03T11:54:55Z</time>
      </trkpt>
      <trkpt lat="45.844744713976979" lon="7.921330081298947">
        <ele>1670.4300000000001</ele>
        <time>2019-02-03T11:55:09Z</time>
      </trkpt>
      <trkpt lat="45.844771033152938" lon="7.92130577377975">
        <ele>1671.8699999999999</ele>
        <time>2019-02-03T11:55:30Z</time>
      </trkpt>
      <trkpt lat="45.844764914363623" lon="7.921331757679582">
        <ele>1670.9100000000001</ele>
        <time>2019-02-03T11:55:48Z</time>
      </trkpt>
      <trkpt lat="45.84473398514092" lon="7.921375846490264">
        <ele>1669.95</ele>
        <time>2019-02-03T11:56:07Z</time>
      </trkpt>
      <trkpt lat="45.844718981534243" lon="7.921364447101951">
        <ele>1670.4300000000001</ele>
        <time>2019-02-03T11:56:28Z</time>
      </trkpt>
      <trkpt lat="45.844741528853774" lon="7.921296805143356">
        <ele>1669.47</ele>
        <time>2019-02-03T11:56:54Z</time>
      </trkpt>
      <trkpt lat="45.844771200791001" lon="7.921290518715978">
        <ele>1670.9100000000001</ele>
        <time>2019-02-03T11:57:15Z</time>
      </trkpt>
      <trkpt lat="45.844773296266794" lon="7.921253135427833">
        <ele>1672.8299999999999</ele>
        <time>2019-02-03T11:57:33Z</time>
      </trkpt>
      <trkpt lat="45.84477405063808" lon="7.92123494669795">
        <ele>1674.27</ele>
        <time>2019-02-03T11:57:56Z</time>
      </trkpt>
      <trkpt lat="45.844771368429065" lon="7.921251794323325">
        <ele>1674.75</ele>
        <time>2019-02-03T11:58:21Z</time>
      </trkpt>
      <trkpt lat="45.844777319580317" lon="7.9212393052876">
        <ele>1671.3900000000001</ele>
        <time>2019-02-03T11:58:28Z</time>
      </trkpt>
      <trkpt lat="45.844787377864122" lon="7.921232432126999">
        <ele>1669.47</ele>
        <time>2019-02-03T11:58:52Z</time>
      </trkpt>
      <trkpt lat="45.844771368429065" lon="7.921248860657215">
        <ele>1669.95</ele>
        <time>2019-02-03T11:59:07Z</time>
      </trkpt>
      <trkpt lat="45.844773463904858" lon="7.921237461268902">
        <ele>1670.4300000000001</ele>
        <time>2019-02-03T11:59:19Z</time>
      </trkpt>
      <trkpt lat="45.844750748947263" lon="7.921260092407465">
        <ele>1670.9100000000001</ele>
        <time>2019-02-03T11:59:41Z</time>
      </trkpt>
      <trkpt lat="45.844720741733909" lon="7.921310132369399">
        <ele>1669.95</ele>
        <time>2019-02-03T11:59:59Z</time>
      </trkpt>
      <trkpt lat="45.844692746177316" lon="7.921383222565055">
        <ele>1671.8699999999999</ele>
        <time>2019-02-03T12:00:26Z</time>
      </trkpt>
      <trkpt lat="45.844658799469471" lon="7.921410799026489">
        <ele>1668.99</ele>
        <time>2019-02-03T12:00:46Z</time>
      </trkpt>
      <trkpt lat="45.844660643488169" lon="7.921364866197109">
        <ele>1667.0599999999999</ele>
        <time>2019-02-03T12:01:03Z</time>
      </trkpt>
      <trkpt lat="45.844683609902859" lon="7.921314407140017">
        <ele>1667.0599999999999</ele>
        <time>2019-02-03T12:01:27Z</time>
      </trkpt>
      <trkpt lat="45.844711354002357" lon="7.921294290572405">
        <ele>1668.51</ele>
        <time>2019-02-03T12:01:45Z</time>
      </trkpt>
      <trkpt lat="45.844715125858784" lon="7.921278113499284">
        <ele>1668.51</ele>
        <time>2019-02-03T12:02:06Z</time>
      </trkpt>
      <trkpt lat="45.844679083675146" lon="7.92133167386055">
        <ele>1668.51</ele>
        <time>2019-02-03T12:02:27Z</time>
      </trkpt>
      <trkpt lat="45.844642706215382" lon="7.92143477126956">
        <ele>1665.1400000000001</ele>
        <time>2019-02-03T12:02:41Z</time>
      </trkpt>
      <trkpt lat="45.844631223008037" lon="7.921484559774399">
        <ele>1665.6199999999999</ele>
        <time>2019-02-03T12:03:03Z</time>
      </trkpt>
      <trkpt lat="45.844664331525564" lon="7.921458492055535">
        <ele>1668.99</ele>
        <time>2019-02-03T12:03:12Z</time>
      </trkpt>
      <trkpt lat="45.844685286283493" lon="7.921465616673231">
        <ele>1671.3900000000001</ele>
        <time>2019-02-03T12:03:31Z</time>
      </trkpt>
      <trkpt lat="45.844667684286833" lon="7.921516997739673">
        <ele>1668.99</ele>
        <time>2019-02-03T12:03:53Z</time>
      </trkpt>
      <trkpt lat="45.844647902995348" lon="7.921537030488253">
        <ele>1671.8699999999999</ele>
        <time>2019-02-03T12:04:17Z</time>
      </trkpt>
      <trkpt lat="45.844634408131242" lon="7.921531163156033">
        <ele>1674.27</ele>
        <time>2019-02-03T12:04:40Z</time>
      </trkpt>
      <trkpt lat="45.844642538577318" lon="7.921503838151693">
        <ele>1673.3099999999999</ele>
        <time>2019-02-03T12:05:02Z</time>
      </trkpt>
      <trkpt lat="45.844650501385331" lon="7.921476764604449">
        <ele>1670.4300000000001</ele>
        <time>2019-02-03T12:05:22Z</time>
      </trkpt>
      <trkpt lat="45.84467489272356" lon="7.921422030776739">
        <ele>1668.99</ele>
        <time>2019-02-03T12:05:40Z</time>
      </trkpt>
      <trkpt lat="45.844673719257116" lon="7.92140107601881">
        <ele>1668.99</ele>
        <time>2019-02-03T12:06:03Z</time>
      </trkpt>
      <trkpt lat="45.844692829996347" lon="7.921381294727325">
        <ele>1668.02</ele>
        <time>2019-02-03T12:06:29Z</time>
      </trkpt>
      <trkpt lat="45.844690818339586" lon="7.921343743801117">
        <ele>1667.0599999999999</ele>
        <time>2019-02-03T12:06:51Z</time>
      </trkpt>
      <trkpt lat="45.844684364274144" lon="7.921343659982085">
        <ele>1664.6600000000001</ele>
        <time>2019-02-03T12:07:13Z</time>
      </trkpt>
      <trkpt lat="45.844648657366633" lon="7.921398729085922">
        <ele>1663.7</ele>
        <time>2019-02-03T12:07:35Z</time>
      </trkpt>
      <trkpt lat="45.844670617952943" lon="7.921380456537008">
        <ele>1667.0599999999999</ele>
        <time>2019-02-03T12:07:48Z</time>
      </trkpt>
      <trkpt lat="45.844656620174646" lon="7.921439968049526">
        <ele>1669.95</ele>
        <time>2019-02-03T12:08:13Z</time>
      </trkpt>
      <trkpt lat="45.844656117260456" lon="7.921443488448858">
        <ele>1670.4300000000001</ele>
        <time>2019-02-03T12:08:35Z</time>
      </trkpt>
      <trkpt lat="45.844684280455112" lon="7.921359501779079">
        <ele>1673.3099999999999</ele>
        <time>2019-02-03T12:08:55Z</time>
      </trkpt>
      <trkpt lat="45.844689980149269" lon="7.921341815963388">
        <ele>1675.23</ele>
        <time>2019-02-03T12:09:19Z</time>
      </trkpt>
      <trkpt lat="45.844689561054111" lon="7.921364111825824">
        <ele>1675.72</ele>
        <time>2019-02-03T12:09:36Z</time>
      </trkpt>
      <trkpt lat="45.844708336517215" lon="7.921345504000783">
        <ele>1674.27</ele>
        <time>2019-02-03T12:09:59Z</time>
      </trkpt>
      <trkpt lat="45.844711186364293" lon="7.921367716044188">
        <ele>1675.72</ele>
        <time>2019-02-03T12:10:19Z</time>
      </trkpt>
      <trkpt lat="45.844737086445093" lon="7.921323459595442">
        <ele>1673.79</ele>
        <time>2019-02-03T12:10:38Z</time>
      </trkpt>
      <trkpt lat="45.844725016504526" lon="7.921312982216477">
        <ele>1675.72</ele>
        <time>2019-02-03T12:10:59Z</time>
      </trkpt>
      <trkpt lat="45.844764830544591" lon="7.921254141256213">
        <ele>1675.72</ele>
        <time>2019-02-03T12:11:31Z</time>
      </trkpt>
      <trkpt lat="45.84476675838232" lon="7.921250453218818">
        <ele>1674.75</ele>
        <time>2019-02-03T12:12:00Z</time>
      </trkpt>
      <trkpt lat="45.844779498875141" lon="7.921256739646196">
        <ele>1675.23</ele>
        <time>2019-02-03T12:12:23Z</time>
      </trkpt>
      <trkpt lat="45.844753012061119" lon="7.92131214402616">
        <ele>1674.27</ele>
        <time>2019-02-03T12:12:48Z</time>
      </trkpt>
      <trkpt lat="45.844803806394339" lon="7.921250704675913">
        <ele>1675.72</ele>
        <time>2019-02-03T12:13:12Z</time>
      </trkpt>
      <trkpt lat="45.844778325408697" lon="7.921312814578414">
        <ele>1675.72</ele>
        <time>2019-02-03T12:13:37Z</time>
      </trkpt>
      <trkpt lat="45.844749072566628" lon="7.92131700553">
        <ele>1672.8299999999999</ele>
        <time>2019-02-03T12:14:02Z</time>
      </trkpt>
      <trkpt lat="45.844772038981318" lon="7.921271827071905">
        <ele>1675.23</ele>
        <time>2019-02-03T12:14:16Z</time>
      </trkpt>
      <trkpt lat="45.844784444198012" lon="7.921262690797448">
        <ele>1676.6800000000001</ele>
        <time>2019-02-03T12:14:36Z</time>
      </trkpt>
      <trkpt lat="45.844788635149598" lon="7.921247938647866">
        <ele>1677.6400000000001</ele>
        <time>2019-02-03T12:14:59Z</time>
      </trkpt>
      <trkpt lat="45.844795675948262" lon="7.921241400763392">
        <ele>1677.6400000000001</ele>
        <time>2019-02-03T12:15:21Z</time>
      </trkpt>
      <trkpt lat="45.844781259074807" lon="7.921246429905295">
        <ele>1674.75</ele>
        <time>2019-02-03T12:15:28Z</time>
      </trkpt>
      <trkpt lat="45.84475502371788" lon="7.921291943639517">
        <ele>1672.8299999999999</ele>
        <time>2019-02-03T12:15:38Z</time>
      </trkpt>
      <trkpt lat="45.844727531075478" lon="7.921300241723657">
        <ele>1674.75</ele>
        <time>2019-02-03T12:15:46Z</time>
      </trkpt>
      <trkpt lat="45.844702636823058" lon="7.921337960287929">
        <ele>1675.72</ele>
        <time>2019-02-03T12:16:02Z</time>
      </trkpt>
      <trkpt lat="45.844695763662457" lon="7.921352377161384">
        <ele>1676.2</ele>
        <time>2019-02-03T12:16:15Z</time>
      </trkpt>
      <trkpt lat="45.844705570489168" lon="7.921325638890266">
        <ele>1677.1600000000001</ele>
        <time>2019-02-03T12:16:26Z</time>
      </trkpt>
      <trkpt lat="45.844721077010036" lon="7.921310467645526">
        <ele>1678.1199999999999</ele>
        <time>2019-02-03T12:16:47Z</time>
      </trkpt>
      <trkpt lat="45.844741277396679" lon="7.921292530372739">
        <ele>1677.6400000000001</ele>
        <time>2019-02-03T12:17:03Z</time>
      </trkpt>
      <trkpt lat="45.844725854694843" lon="7.921289512887597">
        <ele>1677.1600000000001</ele>
        <time>2019-02-03T12:17:05Z</time>
      </trkpt>
      <trkpt lat="45.844715293496847" lon="7.921236790716648">
        <ele>1677.1600000000001</ele>
        <time>2019-02-03T12:17:08Z</time>
      </trkpt>
      <trkpt lat="45.844702972099185" lon="7.921081054955721">
        <ele>1678.1199999999999</ele>
        <time>2019-02-03T12:17:18Z</time>
      </trkpt>
      <trkpt lat="45.844701547175646" lon="7.920951554551721">
        <ele>1679.0799999999999</ele>
        <time>2019-02-03T12:17:28Z</time>
      </trkpt>
      <trkpt lat="45.844679418951273" lon="7.920851809903979">
        <ele>1681</ele>
        <time>2019-02-03T12:17:38Z</time>
      </trkpt>
      <trkpt lat="45.844639437273145" lon="7.920782743021846">
        <ele>1681.96</ele>
        <time>2019-02-03T12:17:48Z</time>
      </trkpt>
      <trkpt lat="45.844628708437085" lon="7.920656260102987">
        <ele>1683.8900000000001</ele>
        <time>2019-02-03T12:17:59Z</time>
      </trkpt>
      <trkpt lat="45.844642706215382" lon="7.920535979792476">
        <ele>1685.3299999999999</ele>
        <time>2019-02-03T12:18:11Z</time>
      </trkpt>
      <trkpt lat="45.84464362822473" lon="7.920416789129376">
        <ele>1686.77</ele>
        <time>2019-02-03T12:18:21Z</time>
      </trkpt>
      <trkpt lat="45.844652345404029" lon="7.920312853530049">
        <ele>1686.29</ele>
        <time>2019-02-03T12:18:31Z</time>
      </trkpt>
      <trkpt lat="45.844647400081158" lon="7.920230710878968">
        <ele>1687.25</ele>
        <time>2019-02-03T12:18:41Z</time>
      </trkpt>
      <trkpt lat="45.844632145017385" lon="7.920140102505684">
        <ele>1687.25</ele>
        <time>2019-02-03T12:18:50Z</time>
      </trkpt>
      <trkpt lat="45.844593923538923" lon="7.920028287917376">
        <ele>1688.21</ele>
        <time>2019-02-03T12:19:00Z</time>
      </trkpt>
      <trkpt lat="45.844589481130242" lon="7.920012027025223">
        <ele>1685.3299999999999</ele>
        <time>2019-02-03T12:19:02Z</time>
      </trkpt>
      <trkpt lat="45.844587637111545" lon="7.920000459998846">
        <ele>1684.3699999999999</ele>
        <time>2019-02-03T12:19:03Z</time>
      </trkpt>
      <trkpt lat="45.844584535807371" lon="7.919979421421886">
        <ele>1683.4100000000001</ele>
        <time>2019-02-03T12:19:07Z</time>
      </trkpt>
      <trkpt lat="45.844618650153279" lon="7.919901637360454">
        <ele>1683.8900000000001</ele>
        <time>2019-02-03T12:19:20Z</time>
      </trkpt>
      <trkpt lat="45.84465779364109" lon="7.919823182746768">
        <ele>1685.3299999999999</ele>
        <time>2019-02-03T12:19:31Z</time>
      </trkpt>
      <trkpt lat="45.844729039818048" lon="7.919752858579159">
        <ele>1686.29</ele>
        <time>2019-02-03T12:19:43Z</time>
      </trkpt>
      <trkpt lat="45.844789640977979" lon="7.919696951285005">
        <ele>1689.1700000000001</ele>
        <time>2019-02-03T12:19:56Z</time>
      </trkpt>
      <trkpt lat="45.844846135005355" lon="7.919672224670649">
        <ele>1691.5799999999999</ele>
        <time>2019-02-03T12:20:08Z</time>
      </trkpt>
      <trkpt lat="45.844907658174634" lon="7.919630650430918">
        <ele>1693.98</ele>
        <time>2019-02-03T12:20:20Z</time>
      </trkpt>
      <trkpt lat="45.844931965693831" lon="7.919559823349118">
        <ele>1694.9400000000001</ele>
        <time>2019-02-03T12:20:32Z</time>
      </trkpt>
      <trkpt lat="45.844978652894497" lon="7.91948170401156">
        <ele>1694.9400000000001</ele>
        <time>2019-02-03T12:20:43Z</time>
      </trkpt>
      <trkpt lat="45.845009246841073" lon="7.919457983225584">
        <ele>1694.9400000000001</ele>
        <time>2019-02-03T12:20:52Z</time>
      </trkpt>
      <trkpt lat="45.845008324831724" lon="7.919460665434599">
        <ele>1695.4200000000001</ele>
        <time>2019-02-03T12:21:01Z</time>
      </trkpt>
      <trkpt lat="45.845004133880138" lon="7.919411044567823">
        <ele>1696.8599999999999</ele>
        <time>2019-02-03T12:21:14Z</time>
      </trkpt>
      <trkpt lat="45.845025926828384" lon="7.91932538151741">
        <ele>1698.79</ele>
        <time>2019-02-03T12:21:25Z</time>
      </trkpt>
      <trkpt lat="45.845011845231056" lon="7.919213064014912">
        <ele>1700.71</ele>
        <time>2019-02-03T12:21:37Z</time>
      </trkpt>
      <trkpt lat="45.845020730048418" lon="7.919121030718088">
        <ele>1702.6300000000001</ele>
        <time>2019-02-03T12:21:47Z</time>
      </trkpt>
      <trkpt lat="45.845009246841073" lon="7.919002594426274">
        <ele>1705.04</ele>
        <time>2019-02-03T12:21:57Z</time>
      </trkpt>
      <trkpt lat="45.844982592388988" lon="7.918883403763175">
        <ele>1706.48</ele>
        <time>2019-02-03T12:22:07Z</time>
      </trkpt>
      <trkpt lat="45.844953423365951" lon="7.918772846460342">
        <ele>1707.4400000000001</ele>
        <time>2019-02-03T12:22:18Z</time>
      </trkpt>
      <trkpt lat="45.844918387010694" lon="7.918679136782885">
        <ele>1709.8399999999999</ele>
        <time>2019-02-03T12:22:28Z</time>
      </trkpt>
      <trkpt lat="45.844903467223048" lon="7.918620547279716">
        <ele>1711.28</ele>
        <time>2019-02-03T12:22:37Z</time>
      </trkpt>
      <trkpt lat="45.84487572312355" lon="7.91852792724967">
        <ele>1711.76</ele>
        <time>2019-02-03T12:22:47Z</time>
      </trkpt>
      <trkpt lat="45.844851667061448" lon="7.918426841497421">
        <ele>1713.6900000000001</ele>
        <time>2019-02-03T12:22:58Z</time>
      </trkpt>
      <trkpt lat="45.844832556322217" lon="7.918347967788577">
        <ele>1713.6900000000001</ele>
        <time>2019-02-03T12:23:08Z</time>
      </trkpt>
      <trkpt lat="45.844796933233738" lon="7.918258951976895">
        <ele>1716.5699999999999</ele>
        <time>2019-02-03T12:23:22Z</time>
      </trkpt>
      <trkpt lat="45.844771284610033" lon="7.918136827647686">
        <ele>1718.01</ele>
        <time>2019-02-03T12:23:37Z</time>
      </trkpt>
      <trkpt lat="45.844765920192003" lon="7.918050829321146">
        <ele>1718.97</ele>
        <time>2019-02-03T12:23:48Z</time>
      </trkpt>
      <trkpt lat="45.844727111980319" lon="7.917976817116141">
        <ele>1721.8599999999999</ele>
        <time>2019-02-03T12:24:00Z</time>
      </trkpt>
      <trkpt lat="45.844667600467801" lon="7.917894003912807">
        <ele>1725.7</ele>
        <time>2019-02-03T12:24:11Z</time>
      </trkpt>
      <trkpt lat="45.844642287120223" lon="7.917865673080087">
        <ele>1726.6700000000001</ele>
        <time>2019-02-03T12:24:24Z</time>
      </trkpt>
      <trkpt lat="45.844623427838087" lon="7.917840359732509">
        <ele>1724.26</ele>
        <time>2019-02-03T12:24:33Z</time>
      </trkpt>
      <trkpt lat="45.844630384817719" lon="7.917840108275414">
        <ele>1723.78</ele>
        <time>2019-02-03T12:24:51Z</time>
      </trkpt>
      <trkpt lat="45.844635078683496" lon="7.917858045548201">
        <ele>1725.22</ele>
        <time>2019-02-03T12:25:11Z</time>
      </trkpt>
      <trkpt lat="45.844620913267136" lon="7.917832983657718">
        <ele>1724.74</ele>
        <time>2019-02-03T12:25:13Z</time>
      </trkpt>
      <trkpt lat="45.84460012614727" lon="7.91777640581131">
        <ele>1723.78</ele>
        <time>2019-02-03T12:25:18Z</time>
      </trkpt>
      <trkpt lat="45.844549834728241" lon="7.91764447465539">
        <ele>1724.74</ele>
        <time>2019-02-03T12:25:30Z</time>
      </trkpt>
      <trkpt lat="45.844498705118895" lon="7.917541628703475">
        <ele>1724.74</ele>
        <time>2019-02-03T12:25:40Z</time>
      </trkpt>
      <trkpt lat="45.844448832795024" lon="7.917435094714165">
        <ele>1725.7</ele>
        <time>2019-02-03T12:25:50Z</time>
      </trkpt>
      <trkpt lat="45.844412455335259" lon="7.917337026447058">
        <ele>1726.1800000000001</ele>
        <time>2019-02-03T12:25:59Z</time>
      </trkpt>
      <trkpt lat="45.844366690143943" lon="7.917233761399984">
        <ele>1727.1500000000001</ele>
        <time>2019-02-03T12:26:09Z</time>
      </trkpt>
      <trkpt lat="45.844323271885514" lon="7.917145751416683">
        <ele>1728.5899999999999</ele>
        <time>2019-02-03T12:26:18Z</time>
      </trkpt>
      <trkpt lat="45.844304161146283" lon="7.91708305478096">
        <ele>1728.5899999999999</ele>
        <time>2019-02-03T12:26:24Z</time>
      </trkpt>
      <trkpt lat="45.844299215823412" lon="7.916969060897827">
        <ele>1730.03</ele>
        <time>2019-02-03T12:26:34Z</time>
      </trkpt>
      <trkpt lat="45.844292594119906" lon="7.91689638979733">
        <ele>1731.47</ele>
        <time>2019-02-03T12:26:42Z</time>
      </trkpt>
      <trkpt lat="45.844259904697537" lon="7.916834196075797">
        <ele>1732.4300000000001</ele>
        <time>2019-02-03T12:26:49Z</time>
      </trkpt>
      <trkpt lat="45.844210032373667" lon="7.916712239384651">
        <ele>1732.9100000000001</ele>
        <time>2019-02-03T12:27:01Z</time>
      </trkpt>
      <trkpt lat="45.844179103150964" lon="7.916604783385992">
        <ele>1734.8399999999999</ele>
        <time>2019-02-03T12:27:12Z</time>
      </trkpt>
      <trkpt lat="45.844177426770329" lon="7.916591372340918">
        <ele>1734.8399999999999</ele>
        <time>2019-02-03T12:27:13Z</time>
      </trkpt>
      <trkpt lat="45.84414909593761" lon="7.916503697633743">
        <ele>1735.3199999999999</ele>
        <time>2019-02-03T12:27:23Z</time>
      </trkpt>
      <trkpt lat="45.84414322860539" lon="7.916454495862126">
        <ele>1735.3199999999999</ele>
        <time>2019-02-03T12:27:32Z</time>
      </trkpt>
      <trkpt lat="45.844135517254472" lon="7.916322480887175">
        <ele>1735.8</ele>
        <time>2019-02-03T12:27:43Z</time>
      </trkpt>
      <trkpt lat="45.84414029493928" lon="7.916221562772989">
        <ele>1736.76</ele>
        <time>2019-02-03T12:27:53Z</time>
      </trkpt>
      <trkpt lat="45.844153119251132" lon="7.916141767054796">
        <ele>1738.6800000000001</ele>
        <time>2019-02-03T12:28:01Z</time>
      </trkpt>
      <trkpt lat="45.844167955219746" lon="7.916053924709559">
        <ele>1740.5999999999999</ele>
        <time>2019-02-03T12:28:09Z</time>
      </trkpt>
      <trkpt lat="45.84420190192759" lon="7.915949150919914">
        <ele>1742.53</ele>
        <time>2019-02-03T12:28:20Z</time>
      </trkpt>
      <trkpt lat="45.8442048355937" lon="7.91593381203711">
        <ele>1742.53</ele>
        <time>2019-02-03T12:28:21Z</time>
      </trkpt>
      <trkpt lat="45.844240793958306" lon="7.915823003277183">
        <ele>1743.49</ele>
        <time>2019-02-03T12:28:31Z</time>
      </trkpt>
      <trkpt lat="45.844236435368657" lon="7.91578478179872">
        <ele>1743.01</ele>
        <time>2019-02-03T12:28:35Z</time>
      </trkpt>
      <trkpt lat="45.844222940504551" lon="7.915738597512245">
        <ele>1740.5999999999999</ele>
        <time>2019-02-03T12:28:45Z</time>
      </trkpt>
      <trkpt lat="45.844233250245452" lon="7.915752930566669">
        <ele>1741.0799999999999</ele>
        <time>2019-02-03T12:28:59Z</time>
      </trkpt>
      <trkpt lat="45.844238614663482" lon="7.915751505643129">
        <ele>1741.0799999999999</ele>
        <time>2019-02-03T12:29:00Z</time>
      </trkpt>
      <trkpt lat="45.844237441197038" lon="7.91575200855732">
        <ele>1739.6400000000001</ele>
        <time>2019-02-03T12:29:09Z</time>
      </trkpt>
      <trkpt lat="45.844233082607388" lon="7.915766760706902">
        <ele>1740.1199999999999</ele>
        <time>2019-02-03T12:29:16Z</time>
      </trkpt>
      <trkpt lat="45.844211792573333" lon="7.915745638310909">
        <ele>1740.5999999999999</ele>
        <time>2019-02-03T12:29:29Z</time>
      </trkpt>
      <trkpt lat="45.844201650470495" lon="7.915755864232779">
        <ele>1740.5999999999999</ele>
        <time>2019-02-03T12:29:46Z</time>
      </trkpt>
      <trkpt lat="45.844208607450128" lon="7.915733149275184">
        <ele>1739.6400000000001</ele>
        <time>2019-02-03T12:29:59Z</time>
      </trkpt>
      <trkpt lat="45.844225287437439" lon="7.915751002728939">
        <ele>1741.0799999999999</ele>
        <time>2019-02-03T12:30:16Z</time>
      </trkpt>
      <trkpt lat="45.844229897484183" lon="7.915736334398389">
        <ele>1740.5999999999999</ele>
        <time>2019-02-03T12:30:30Z</time>
      </trkpt>
      <trkpt lat="45.844220425933599" lon="7.915754858404398">
        <ele>1740.1199999999999</ele>
        <time>2019-02-03T12:30:43Z</time>
      </trkpt>
      <trkpt lat="45.844224113970995" lon="7.915745219215751">
        <ele>1740.5999999999999</ele>
        <time>2019-02-03T12:30:54Z</time>
      </trkpt>
      <trkpt lat="45.844232412055135" lon="7.91577254422009">
        <ele>1741.0799999999999</ele>
        <time>2019-02-03T12:31:05Z</time>
      </trkpt>
      <trkpt lat="45.844210870563984" lon="7.91576961055398">
        <ele>1739.6400000000001</ele>
        <time>2019-02-03T12:31:08Z</time>
      </trkpt>
      <trkpt lat="45.844202404841781" lon="7.915767850354314">
        <ele>1740.5999999999999</ele>
        <time>2019-02-03T12:31:21Z</time>
      </trkpt>
      <trkpt lat="45.844205170869827" lon="7.915762821212411">
        <ele>1741.5699999999999</ele>
        <time>2019-02-03T12:31:23Z</time>
      </trkpt>
      <trkpt lat="45.844195950776339" lon="7.915758462622762">
        <ele>1741.5699999999999</ele>
        <time>2019-02-03T12:31:38Z</time>
      </trkpt>
      <trkpt lat="45.844197291880846" lon="7.915753852576017">
        <ele>1741.5699999999999</ele>
        <time>2019-02-03T12:31:54Z</time>
      </trkpt>
      <trkpt lat="45.844201315194368" lon="7.915752343833447">
        <ele>1741.5699999999999</ele>
        <time>2019-02-03T12:32:08Z</time>
      </trkpt>
      <trkpt lat="45.844186982139945" lon="7.915752176195383">
        <ele>1741.0799999999999</ele>
        <time>2019-02-03T12:32:20Z</time>
      </trkpt>
      <trkpt lat="45.84419846534729" lon="7.915743794292212">
        <ele>1743.01</ele>
        <time>2019-02-03T12:32:35Z</time>
      </trkpt>
      <trkpt lat="45.844195280224085" lon="7.91573834605515">
        <ele>1743.01</ele>
        <time>2019-02-03T12:32:47Z</time>
      </trkpt>
      <trkpt lat="45.844191089272499" lon="7.915743626654148">
        <ele>1742.05</ele>
        <time>2019-02-03T12:32:57Z</time>
      </trkpt>
      <trkpt lat="45.844208523631096" lon="7.915752176195383">
        <ele>1741.5699999999999</ele>
        <time>2019-02-03T12:33:11Z</time>
      </trkpt>
      <trkpt lat="45.844205925241113" lon="7.91575544513762">
        <ele>1740.5999999999999</ele>
        <time>2019-02-03T12:33:30Z</time>
      </trkpt>
      <trkpt lat="45.84421799518168" lon="7.915752762928605">
        <ele>1740.5999999999999</ele>
        <time>2019-02-03T12:33:48Z</time>
      </trkpt>
      <trkpt lat="45.844222269952297" lon="7.915733819827437">
        <ele>1740.5999999999999</ele>
        <time>2019-02-03T12:33:59Z</time>
      </trkpt>
      <trkpt lat="45.844212295487523" lon="7.915692999958992">
        <ele>1738.6800000000001</ele>
        <time>2019-02-03T12:34:07Z</time>
      </trkpt>
      <trkpt lat="45.844212379306555" lon="7.915668273344636">
        <ele>1739.1600000000001</ele>
        <time>2019-02-03T12:34:10Z</time>
      </trkpt>
      <trkpt lat="45.844144569709897" lon="7.915528463199735">
        <ele>1738.6800000000001</ele>
        <time>2019-02-03T12:34:21Z</time>
      </trkpt>
      <trkpt lat="45.844094781205058" lon="7.915469706058502">
        <ele>1738.2</ele>
        <time>2019-02-03T12:34:28Z</time>
      </trkpt>
      <trkpt lat="45.844064690172672" lon="7.915490912273526">
        <ele>1737.72</ele>
        <time>2019-02-03T12:34:32Z</time>
      </trkpt>
      <trkpt lat="45.844018589705229" lon="7.915383037179709">
        <ele>1736.76</ele>
        <time>2019-02-03T12:34:41Z</time>
      </trkpt>
      <trkpt lat="45.844013728201389" lon="7.915338193997741">
        <ele>1736.28</ele>
        <time>2019-02-03T12:34:44Z</time>
      </trkpt>
      <trkpt lat="45.843977937474847" lon="7.915215650573373">
        <ele>1734.3599999999999</ele>
        <time>2019-02-03T12:34:54Z</time>
      </trkpt>
      <trkpt lat="45.843959078192711" lon="7.915170807391405">
        <ele>1734.8399999999999</ele>
        <time>2019-02-03T12:35:04Z</time>
      </trkpt>
      <trkpt lat="45.843957401812077" lon="7.915157228708267">
        <ele>1735.3199999999999</ele>
        <time>2019-02-03T12:35:11Z</time>
      </trkpt>
      <trkpt lat="45.843976428732276" lon="7.915140548720956">
        <ele>1736.28</ele>
        <time>2019-02-03T12:35:22Z</time>
      </trkpt>
      <trkpt lat="45.8439682982862" lon="7.915147757157683">
        <ele>1736.76</ele>
        <time>2019-02-03T12:35:29Z</time>
      </trkpt>
      <trkpt lat="45.843974752351642" lon="7.915158402174711">
        <ele>1737.72</ele>
        <time>2019-02-03T12:35:40Z</time>
      </trkpt>
      <trkpt lat="45.843947343528271" lon="7.915154211223126">
        <ele>1736.76</ele>
        <time>2019-02-03T12:35:50Z</time>
      </trkpt>
      <trkpt lat="45.843888586387038" lon="7.915093023329973">
        <ele>1734.3599999999999</ele>
        <time>2019-02-03T12:35:59Z</time>
      </trkpt>
      <trkpt lat="45.843834774568677" lon="7.915113475173712">
        <ele>1731.95</ele>
        <time>2019-02-03T12:36:09Z</time>
      </trkpt>
      <trkpt lat="45.843804012984037" lon="7.915116157382727">
        <ele>1731.47</ele>
        <time>2019-02-03T12:36:19Z</time>
      </trkpt>
      <trkpt lat="45.84374307654798" lon="7.915133088827133">
        <ele>1730.51</ele>
        <time>2019-02-03T12:36:29Z</time>
      </trkpt>
      <trkpt lat="45.843723881989717" lon="7.915144572034478">
        <ele>1730.03</ele>
        <time>2019-02-03T12:36:31Z</time>
      </trkpt>
      <trkpt lat="45.843656742945313" lon="7.915153205394745">
        <ele>1727.6300000000001</ele>
        <time>2019-02-03T12:36:41Z</time>
      </trkpt>
      <trkpt lat="45.843580132350326" lon="7.915188912302256">
        <ele>1726.6700000000001</ele>
        <time>2019-02-03T12:36:51Z</time>
      </trkpt>
      <trkpt lat="45.843515172600746" lon="7.915216321125627">
        <ele>1725.7</ele>
        <time>2019-02-03T12:36:59Z</time>
      </trkpt>
      <trkpt lat="45.84348164498806" lon="7.915158234536648">
        <ele>1726.1800000000001</ele>
        <time>2019-02-03T12:37:09Z</time>
      </trkpt>
      <trkpt lat="45.843373686075211" lon="7.915127724409103">
        <ele>1725.22</ele>
        <time>2019-02-03T12:37:22Z</time>
      </trkpt>
      <trkpt lat="45.843361113220453" lon="7.915098555386066">
        <ele>1724.74</ele>
        <time>2019-02-03T12:37:33Z</time>
      </trkpt>
      <trkpt lat="45.843354575335979" lon="7.915094532072544">
        <ele>1725.22</ele>
        <time>2019-02-03T12:37:36Z</time>
      </trkpt>
      <trkpt lat="45.843338733538985" lon="7.91505815461278">
        <ele>1726.6700000000001</ele>
        <time>2019-02-03T12:37:48Z</time>
      </trkpt>
      <trkpt lat="45.843349378556013" lon="7.91508112102747">
        <ele>1725.7</ele>
        <time>2019-02-03T12:37:59Z</time>
      </trkpt>
      <trkpt lat="45.84335315041244" lon="7.915048012509942">
        <ele>1726.6700000000001</ele>
        <time>2019-02-03T12:38:15Z</time>
      </trkpt>
      <trkpt lat="45.843351390212774" lon="7.915056729689241">
        <ele>1726.6700000000001</ele>
        <time>2019-02-03T12:38:30Z</time>
      </trkpt>
      <trkpt lat="45.84335801191628" lon="7.915075924247503">
        <ele>1726.6700000000001</ele>
        <time>2019-02-03T12:38:46Z</time>
      </trkpt>
      <trkpt lat="45.843362119048834" lon="7.915084138512611">
        <ele>1727.6300000000001</ele>
        <time>2019-02-03T12:38:58Z</time>
      </trkpt>
      <trkpt lat="45.843355664983392" lon="7.915062932297587">
        <ele>1728.1099999999999</ele>
        <time>2019-02-03T12:39:17Z</time>
      </trkpt>
      <trkpt lat="45.843344684690237" lon="7.915058741346002">
        <ele>1727.6300000000001</ele>
        <time>2019-02-03T12:39:37Z</time>
      </trkpt>
      <trkpt lat="45.843342589214444" lon="7.915061842650175">
        <ele>1729.0699999999999</ele>
        <time>2019-02-03T12:39:49Z</time>
      </trkpt>
      <trkpt lat="45.843333285301924" lon="7.915051532909274">
        <ele>1728.5899999999999</ele>
        <time>2019-02-03T12:40:11Z</time>
      </trkpt>
      <trkpt lat="45.843339655548334" lon="7.915054885670543">
        <ele>1729.0699999999999</ele>
        <time>2019-02-03T12:40:24Z</time>
      </trkpt>
      <trkpt lat="45.843335883691907" lon="7.915066536515951">
        <ele>1730.51</ele>
        <time>2019-02-03T12:40:44Z</time>
      </trkpt>
      <trkpt lat="45.843345606699586" lon="7.91507232002914">
        <ele>1729.0699999999999</ele>
        <time>2019-02-03T12:41:04Z</time>
      </trkpt>
      <trkpt lat="45.843342673033476" lon="7.915072655305266">
        <ele>1728.5899999999999</ele>
        <time>2019-02-03T12:41:23Z</time>
      </trkpt>
      <trkpt lat="45.843335464596748" lon="7.91495606303215">
        <ele>1728.1099999999999</ele>
        <time>2019-02-03T12:41:33Z</time>
      </trkpt>
      <trkpt lat="45.843337392434478" lon="7.914842152968049">
        <ele>1725.22</ele>
        <time>2019-02-03T12:41:41Z</time>
      </trkpt>
      <trkpt lat="45.84334191866219" lon="7.914803177118301">
        <ele>1724.74</ele>
        <time>2019-02-03T12:41:44Z</time>
      </trkpt>
      <trkpt lat="45.843317024409771" lon="7.914709970355034">
        <ele>1723.3</ele>
        <time>2019-02-03T12:41:51Z</time>
      </trkpt>
      <trkpt lat="45.843312749639153" lon="7.914655487984419">
        <ele>1723.78</ele>
        <time>2019-02-03T12:41:56Z</time>
      </trkpt>
      <trkpt lat="45.843331022188067" lon="7.914563119411469">
        <ele>1724.74</ele>
        <time>2019-02-03T12:42:06Z</time>
      </trkpt>
      <trkpt lat="45.843324400484562" lon="7.914512325078249">
        <ele>1726.1800000000001</ele>
        <time>2019-02-03T12:42:13Z</time>
      </trkpt>
      <trkpt lat="45.843320712447166" lon="7.914461530745029">
        <ele>1725.7</ele>
        <time>2019-02-03T12:42:16Z</time>
      </trkpt>
      <trkpt lat="45.843379218131304" lon="7.914367318153381">
        <ele>1726.1800000000001</ele>
        <time>2019-02-03T12:42:26Z</time>
      </trkpt>
      <trkpt lat="45.843439819291234" lon="7.914295569062233">
        <ele>1728.1099999999999</ele>
        <time>2019-02-03T12:42:37Z</time>
      </trkpt>
      <trkpt lat="45.843467228114605" lon="7.914256593212485">
        <ele>1730.51</ele>
        <time>2019-02-03T12:42:43Z</time>
      </trkpt>
      <trkpt lat="45.843491451814771" lon="7.914353739470244">
        <ele>1729.0699999999999</ele>
        <time>2019-02-03T12:42:53Z</time>
      </trkpt>
      <trkpt lat="45.843494888395071" lon="7.914366815239191">
        <ele>1729.0699999999999</ele>
        <time>2019-02-03T12:42:54Z</time>
      </trkpt>
      <trkpt lat="45.843525985255837" lon="7.914468487724662">
        <ele>1730.99</ele>
        <time>2019-02-03T12:43:05Z</time>
      </trkpt>
      <trkpt lat="45.843528583645821" lon="7.914482653141022">
        <ele>1730.99</ele>
        <time>2019-02-03T12:43:06Z</time>
      </trkpt>
      <trkpt lat="45.843559009954333" lon="7.91459740139544">
        <ele>1731.95</ele>
        <time>2019-02-03T12:43:17Z</time>
      </trkpt>
      <trkpt lat="45.843551214784384" lon="7.914653643965721">
        <ele>1731.95</ele>
        <time>2019-02-03T12:43:27Z</time>
      </trkpt>
      <trkpt lat="45.843553394079208" lon="7.914659511297941">
        <ele>1731.95</ele>
        <time>2019-02-03T12:43:36Z</time>
      </trkpt>
      <trkpt lat="45.843563284724951" lon="7.914728410542011">
        <ele>1730.99</ele>
        <time>2019-02-03T12:43:48Z</time>
      </trkpt>
      <trkpt lat="45.843591447919607" lon="7.914818348363042">
        <ele>1730.03</ele>
        <time>2019-02-03T12:44:04Z</time>
      </trkpt>
      <trkpt lat="45.843640565872192" lon="7.914829747751355">
        <ele>1730.03</ele>
        <time>2019-02-03T12:44:11Z</time>
      </trkpt>
      <trkpt lat="45.843652971088886" lon="7.914895126596093">
        <ele>1731.95</ele>
        <time>2019-02-03T12:44:23Z</time>
      </trkpt>
      <trkpt lat="45.843637464568019" lon="7.914970060810447">
        <ele>1732.4300000000001</ele>
        <time>2019-02-03T12:44:33Z</time>
      </trkpt>
      <trkpt lat="45.843648193404078" lon="7.915057400241494">
        <ele>1730.99</ele>
        <time>2019-02-03T12:44:41Z</time>
      </trkpt>
      <trkpt lat="45.843697227537632" lon="7.915124204009771">
        <ele>1729.0699999999999</ele>
        <time>2019-02-03T12:44:51Z</time>
      </trkpt>
      <trkpt lat="45.84374793805182" lon="7.915218668058515">
        <ele>1730.03</ele>
        <time>2019-02-03T12:45:02Z</time>
      </trkpt>
      <trkpt lat="45.84373427554965" lon="7.915331488475204">
        <ele>1730.51</ele>
        <time>2019-02-03T12:45:14Z</time>
      </trkpt>
      <trkpt lat="45.843725390732288" lon="7.915368536487222">
        <ele>1730.51</ele>
        <time>2019-02-03T12:45:22Z</time>
      </trkpt>
      <trkpt lat="45.843736622482538" lon="7.915362166240811">
        <ele>1730.51</ele>
        <time>2019-02-03T12:45:34Z</time>
      </trkpt>
      <trkpt lat="45.843739220872521" lon="7.9153713863343">
        <ele>1731.95</ele>
        <time>2019-02-03T12:45:51Z</time>
      </trkpt>
      <trkpt lat="45.843738801777363" lon="7.915349844843149">
        <ele>1732.4300000000001</ele>
        <time>2019-02-03T12:46:07Z</time>
      </trkpt>
      <trkpt lat="45.843722457066178" lon="7.915389407426119">
        <ele>1731.95</ele>
        <time>2019-02-03T12:46:16Z</time>
      </trkpt>
      <trkpt lat="45.843720948323607" lon="7.915385467931628">
        <ele>1731.95</ele>
        <time>2019-02-03T12:46:29Z</time>
      </trkpt>
      <trkpt lat="45.843719942495227" lon="7.915391251444817">
        <ele>1732.4300000000001</ele>
        <time>2019-02-03T12:46:48Z</time>
      </trkpt>
      <trkpt lat="45.843719439581037" lon="7.915386725217104">
        <ele>1731.95</ele>
        <time>2019-02-03T12:47:05Z</time>
      </trkpt>
      <trkpt lat="45.843714997172356" lon="7.915390580892563">
        <ele>1733.3900000000001</ele>
        <time>2019-02-03T12:47:20Z</time>
      </trkpt>
      <trkpt lat="45.843729916960001" lon="7.915399381890893">
        <ele>1733.3900000000001</ele>
        <time>2019-02-03T12:47:38Z</time>
      </trkpt>
      <trkpt lat="45.843743579462171" lon="7.915445063263178">
        <ele>1734.3599999999999</ele>
        <time>2019-02-03T12:47:47Z</time>
      </trkpt>
      <trkpt lat="45.843757577240467" lon="7.915540030226111">
        <ele>1733.8800000000001</ele>
        <time>2019-02-03T12:47:58Z</time>
      </trkpt>
      <trkpt lat="45.843768557533622" lon="7.915636757388711">
        <ele>1732.9100000000001</ele>
        <time>2019-02-03T12:48:07Z</time>
      </trkpt>
      <trkpt lat="45.843796636909246" lon="7.915721917524934">
        <ele>1733.3900000000001</ele>
        <time>2019-02-03T12:48:18Z</time>
      </trkpt>
      <trkpt lat="45.843829913064837" lon="7.915788218379021">
        <ele>1733.3900000000001</ele>
        <time>2019-02-03T12:48:30Z</time>
      </trkpt>
      <trkpt lat="45.843807449564338" lon="7.9158272780478">
        <ele>1733.8800000000001</ele>
        <time>2019-02-03T12:48:40Z</time>
      </trkpt>
      <trkpt lat="45.84384374320507" lon="7.9157789144665">
        <ele>1733.8800000000001</ele>
        <time>2019-02-03T12:48:52Z</time>
      </trkpt>
      <trkpt lat="45.843864530324936" lon="7.915751421824098">
        <ele>1733.8800000000001</ele>
        <time>2019-02-03T12:48:55Z</time>
      </trkpt>
      <trkpt lat="45.843927729874849" lon="7.915689144283533">
        <ele>1734.8399999999999</ele>
        <time>2019-02-03T12:49:04Z</time>
      </trkpt>
      <trkpt lat="45.843984642997384" lon="7.915676152333617">
        <ele>1735.3199999999999</ele>
        <time>2019-02-03T12:49:13Z</time>
      </trkpt>
      <trkpt lat="45.843999227508903" lon="7.915670704096556">
        <ele>1735.8</ele>
        <time>2019-02-03T12:49:15Z</time>
      </trkpt>
      <trkpt lat="45.844056559726596" lon="7.915651425719261">
        <ele>1738.2</ele>
        <time>2019-02-03T12:49:24Z</time>
      </trkpt>
      <trkpt lat="45.844115819782019" lon="7.915632147341967">
        <ele>1740.5999999999999</ele>
        <time>2019-02-03T12:49:33Z</time>
      </trkpt>
      <trkpt lat="45.844172313809395" lon="7.915661986917257">
        <ele>1740.1199999999999</ele>
        <time>2019-02-03T12:49:43Z</time>
      </trkpt>
      <trkpt lat="45.844184719026089" lon="7.915776148438454">
        <ele>1739.6400000000001</ele>
        <time>2019-02-03T12:49:51Z</time>
      </trkpt>
      <trkpt lat="45.844185473397374" lon="7.915891399607062">
        <ele>1740.5999999999999</ele>
        <time>2019-02-03T12:50:02Z</time>
      </trkpt>
      <trkpt lat="45.84421556442976" lon="7.915975805372">
        <ele>1741.0799999999999</ele>
        <time>2019-02-03T12:50:14Z</time>
      </trkpt>
      <trkpt lat="45.844194525852799" lon="7.916075130924583">
        <ele>1740.1199999999999</ele>
        <time>2019-02-03T12:50:24Z</time>
      </trkpt>
      <trkpt lat="45.844170469790697" lon="7.916168253868818">
        <ele>1740.1199999999999</ele>
        <time>2019-02-03T12:50:34Z</time>
      </trkpt>
      <trkpt lat="45.844145240262151" lon="7.916262215003371">
        <ele>1739.6400000000001</ele>
        <time>2019-02-03T12:50:44Z</time>
      </trkpt>
      <trkpt lat="45.844141049310565" lon="7.916313679888845">
        <ele>1737.72</ele>
        <time>2019-02-03T12:50:49Z</time>
      </trkpt>
      <trkpt lat="45.844133086502552" lon="7.916446784511209">
        <ele>1736.28</ele>
        <time>2019-02-03T12:51:00Z</time>
      </trkpt>
      <trkpt lat="45.844151694327593" lon="7.916504787281156">
        <ele>1736.76</ele>
        <time>2019-02-03T12:51:06Z</time>
      </trkpt>
      <trkpt lat="45.84418429993093" lon="7.916630767285824">
        <ele>1735.8</ele>
        <time>2019-02-03T12:51:17Z</time>
      </trkpt>
      <trkpt lat="45.844212044030428" lon="7.916724644601345">
        <ele>1734.8399999999999</ele>
        <time>2019-02-03T12:51:26Z</time>
      </trkpt>
      <trkpt lat="45.844252947717905" lon="7.916833525523543">
        <ele>1733.8800000000001</ele>
        <time>2019-02-03T12:51:36Z</time>
      </trkpt>
      <trkpt lat="45.844295360147953" lon="7.916948525235057">
        <ele>1732.4300000000001</ele>
        <time>2019-02-03T12:51:46Z</time>
      </trkpt>
      <trkpt lat="45.844300892204046" lon="7.917053466662765">
        <ele>1730.99</ele>
        <time>2019-02-03T12:51:54Z</time>
      </trkpt>
      <trkpt lat="45.844302736222744" lon="7.917081210762262">
        <ele>1730.99</ele>
        <time>2019-02-03T12:51:56Z</time>
      </trkpt>
      <trkpt lat="45.844357972964644" lon="7.917241221293807">
        <ele>1728.5899999999999</ele>
        <time>2019-02-03T12:52:08Z</time>
      </trkpt>
      <trkpt lat="45.844378089532256" lon="7.917290506884456">
        <ele>1728.5899999999999</ele>
        <time>2019-02-03T12:52:12Z</time>
      </trkpt>
      <trkpt lat="45.844440786167979" lon="7.917443225160241">
        <ele>1727.6300000000001</ele>
        <time>2019-02-03T12:52:24Z</time>
      </trkpt>
      <trkpt lat="45.844491748139262" lon="7.917555961757898">
        <ele>1727.1500000000001</ele>
        <time>2019-02-03T12:52:35Z</time>
      </trkpt>
      <trkpt lat="45.844541033729911" lon="7.917667524889112">
        <ele>1725.22</ele>
        <time>2019-02-03T12:52:46Z</time>
      </trkpt>
      <trkpt lat="45.844586044549942" lon="7.917764838784933">
        <ele>1723.78</ele>
        <time>2019-02-03T12:52:56Z</time>
      </trkpt>
      <trkpt lat="45.844636838883162" lon="7.917875060811639">
        <ele>1723.3</ele>
        <time>2019-02-03T12:53:07Z</time>
      </trkpt>
      <trkpt lat="45.844696350395679" lon="7.917940942570567">
        <ele>1722.8199999999999</ele>
        <time>2019-02-03T12:53:18Z</time>
      </trkpt>
      <trkpt lat="45.844744965434074" lon="7.918029874563217">
        <ele>1721.3800000000001</ele>
        <time>2019-02-03T12:53:28Z</time>
      </trkpt>
      <trkpt lat="45.84476918913424" lon="7.918125595897436">
        <ele>1720.4200000000001</ele>
        <time>2019-02-03T12:53:38Z</time>
      </trkpt>
      <trkpt lat="45.844779750332236" lon="7.918223412707448">
        <ele>1718.49</ele>
        <time>2019-02-03T12:53:48Z</time>
      </trkpt>
      <trkpt lat="45.844804979860783" lon="7.918305387720466">
        <ele>1717.05</ele>
        <time>2019-02-03T12:53:57Z</time>
      </trkpt>
      <trkpt lat="45.844842614606023" lon="7.918400606140494">
        <ele>1713.6900000000001</ele>
        <time>2019-02-03T12:54:06Z</time>
      </trkpt>
      <trkpt lat="45.844866167753935" lon="7.918491717427969">
        <ele>1711.28</ele>
        <time>2019-02-03T12:54:14Z</time>
      </trkpt>
      <trkpt lat="45.844893744215369" lon="7.918602945283055">
        <ele>1710.3199999999999</ele>
        <time>2019-02-03T12:54:25Z</time>
      </trkpt>
      <trkpt lat="45.844916878268123" lon="7.918674442917109">
        <ele>1708.8800000000001</ele>
        <time>2019-02-03T12:54:31Z</time>
      </trkpt>
      <trkpt lat="45.844965744763613" lon="7.918785754591227">
        <ele>1707.4400000000001</ele>
        <time>2019-02-03T12:54:42Z</time>
      </trkpt>
      <trkpt lat="45.84499005228281" lon="7.918887427076697">
        <ele>1706.48</ele>
        <time>2019-02-03T12:54:50Z</time>
      </trkpt>
      <trkpt lat="45.845014778897166" lon="7.919045509770513">
        <ele>1705.04</ele>
        <time>2019-02-03T12:55:02Z</time>
      </trkpt>
      <trkpt lat="45.845021149143577" lon="7.919132178649306">
        <ele>1704.55</ele>
        <time>2019-02-03T12:55:11Z</time>
      </trkpt>
      <trkpt lat="45.845002373680472" lon="7.919226055964828">
        <ele>1703.5899999999999</ele>
        <time>2019-02-03T12:55:21Z</time>
      </trkpt>
      <trkpt lat="45.845019891858101" lon="7.919304426759481">
        <ele>1701.6700000000001</ele>
        <time>2019-02-03T12:55:31Z</time>
      </trkpt>
      <trkpt lat="45.845014778897166" lon="7.91940844617784">
        <ele>1701.1900000000001</ele>
        <time>2019-02-03T12:55:42Z</time>
      </trkpt>
      <trkpt lat="45.845005977898836" lon="7.919503077864647">
        <ele>1698.3099999999999</ele>
        <time>2019-02-03T12:55:52Z</time>
      </trkpt>
      <trkpt lat="45.844972031190991" lon="7.919563762843609">
        <ele>1696.3800000000001</ele>
        <time>2019-02-03T12:55:59Z</time>
      </trkpt>
      <trkpt lat="45.844930289313197" lon="7.919626794755459">
        <ele>1694.9400000000001</ele>
        <time>2019-02-03T12:56:09Z</time>
      </trkpt>
      <trkpt lat="45.844902209937572" lon="7.919695191085339">
        <ele>1693.02</ele>
        <time>2019-02-03T12:56:19Z</time>
      </trkpt>
      <trkpt lat="45.844894330948591" lon="7.919710865244269">
        <ele>1693.02</ele>
        <time>2019-02-03T12:56:27Z</time>
      </trkpt>
      <trkpt lat="45.844886116683483" lon="7.919734669849277">
        <ele>1692.54</ele>
        <time>2019-02-03T12:56:29Z</time>
      </trkpt>
      <trkpt lat="45.844857031479478" lon="7.919775154441595">
        <ele>1690.1400000000001</ele>
        <time>2019-02-03T12:56:34Z</time>
      </trkpt>
      <trkpt lat="45.844833645969629" lon="7.919845646247268">
        <ele>1688.21</ele>
        <time>2019-02-03T12:56:43Z</time>
      </trkpt>
      <trkpt lat="45.844823000952601" lon="7.919891327619553">
        <ele>1687.25</ele>
        <time>2019-02-03T12:56:48Z</time>
      </trkpt>
      <trkpt lat="45.844791317358613" lon="7.919943043962121">
        <ele>1686.29</ele>
        <time>2019-02-03T12:56:58Z</time>
      </trkpt>
      <trkpt lat="45.844798777252436" lon="7.919940948486328">
        <ele>1686.29</ele>
        <time>2019-02-03T12:57:02Z</time>
      </trkpt>
      <trkpt lat="45.84478578530252" lon="7.919959556311369">
        <ele>1685.8099999999999</ele>
        <time>2019-02-03T12:57:04Z</time>
      </trkpt>
      <trkpt lat="45.844750078395009" lon="7.920054355636239">
        <ele>1684.3699999999999</ele>
        <time>2019-02-03T12:57:13Z</time>
      </trkpt>
      <trkpt lat="45.844742031767964" lon="7.920079166069627">
        <ele>1683.8900000000001</ele>
        <time>2019-02-03T12:57:15Z</time>
      </trkpt>
      <trkpt lat="45.844708001241088" lon="7.920177737250924">
        <ele>1682.9300000000001</ele>
        <time>2019-02-03T12:57:24Z</time>
      </trkpt>
      <trkpt lat="45.844704145565629" lon="7.920189471915364">
        <ele>1682.4400000000001</ele>
        <time>2019-02-03T12:57:25Z</time>
      </trkpt>
      <trkpt lat="45.844672797247767" lon="7.920317798852921">
        <ele>1681</ele>
        <time>2019-02-03T12:57:35Z</time>
      </trkpt>
      <trkpt lat="45.844658715650439" lon="7.920421399176121">
        <ele>1680.52</ele>
        <time>2019-02-03T12:57:43Z</time>
      </trkpt>
      <trkpt lat="45.844656536355615" lon="7.920463560149074">
        <ele>1680.04</ele>
        <time>2019-02-03T12:57:47Z</time>
      </trkpt>
      <trkpt lat="45.844660811126232" lon="7.920554671436548">
        <ele>1678.5999999999999</ele>
        <time>2019-02-03T12:57:58Z</time>
      </trkpt>
      <trkpt lat="45.844663996249437" lon="7.920633628964424">
        <ele>1679.0799999999999</ele>
        <time>2019-02-03T12:58:06Z</time>
      </trkpt>
      <trkpt lat="45.844645304605365" lon="7.920725410804153">
        <ele>1678.1199999999999</ele>
        <time>2019-02-03T12:58:15Z</time>
      </trkpt>
      <trkpt lat="45.844657961279154" lon="7.920782659202814">
        <ele>1677.6400000000001</ele>
        <time>2019-02-03T12:58:28Z</time>
      </trkpt>
      <trkpt lat="45.844653602689505" lon="7.920782323926687">
        <ele>1677.6400000000001</ele>
        <time>2019-02-03T12:58:30Z</time>
      </trkpt>
      <trkpt lat="45.844629462808371" lon="7.920766146853566">
        <ele>1677.6400000000001</ele>
        <time>2019-02-03T12:58:39Z</time>
      </trkpt>
      <trkpt lat="45.844626780599356" lon="7.920830519869924">
        <ele>1677.1600000000001</ele>
        <time>2019-02-03T12:58:46Z</time>
      </trkpt>
      <trkpt lat="45.84462602622807" lon="7.920984914526343">
        <ele>1675.72</ele>
        <time>2019-02-03T12:58:57Z</time>
      </trkpt>
      <trkpt lat="45.84461135789752" lon="7.921129250898957">
        <ele>1674.75</ele>
        <time>2019-02-03T12:59:08Z</time>
      </trkpt>
      <trkpt lat="45.844602053985" lon="7.921188594773412">
        <ele>1674.27</ele>
        <time>2019-02-03T12:59:19Z</time>
      </trkpt>
      <trkpt lat="45.844603981822729" lon="7.92119923979044">
        <ele>1674.75</ele>
        <time>2019-02-03T12:59:25Z</time>
      </trkpt>
      <trkpt lat="45.84459375590086" lon="7.921246094629169">
        <ele>1674.27</ele>
        <time>2019-02-03T12:59:29Z</time>
      </trkpt>
      <trkpt lat="45.844582188874483" lon="7.921325722709298">
        <ele>1674.27</ele>
        <time>2019-02-03T12:59:34Z</time>
      </trkpt>
      <trkpt lat="45.844561150297523" lon="7.921358663588762">
        <ele>1674.27</ele>
        <time>2019-02-03T12:59:37Z</time>
      </trkpt>
      <trkpt lat="45.844538519158959" lon="7.921382384374738">
        <ele>1673.79</ele>
        <time>2019-02-03T12:59:40Z</time>
      </trkpt>
      <trkpt lat="45.844458304345608" lon="7.921519177034497">
        <ele>1672.8299999999999</ele>
        <time>2019-02-03T12:59:51Z</time>
      </trkpt>
      <trkpt lat="45.84438412450254" lon="7.921618083491921">
        <ele>1672.8299999999999</ele>
        <time>2019-02-03T13:00:01Z</time>
      </trkpt>
      <trkpt lat="45.844351770356297" lon="7.921687485650182">
        <ele>1671.8699999999999</ele>
        <time>2019-02-03T13:00:10Z</time>
      </trkpt>
      <trkpt lat="45.844355458393693" lon="7.921667117625475">
        <ele>1670.9100000000001</ele>
        <time>2019-02-03T13:00:12Z</time>
      </trkpt>
      <trkpt lat="45.844332072883844" lon="7.921670638024807">
        <ele>1669.47</ele>
        <time>2019-02-03T13:00:22Z</time>
      </trkpt>
      <trkpt lat="45.844329306855798" lon="7.921689413487911">
        <ele>1669.47</ele>
        <time>2019-02-03T13:00:32Z</time>
      </trkpt>
      <trkpt lat="45.844328468665481" lon="7.921740124002099">
        <ele>1671.3900000000001</ele>
        <time>2019-02-03T13:00:55Z</time>
      </trkpt>
      <trkpt lat="45.844340538606048" lon="7.921762084588409">
        <ele>1673.79</ele>
        <time>2019-02-03T13:01:15Z</time>
      </trkpt>
      <trkpt lat="45.844323439523578" lon="7.921696621924639">
        <ele>1670.9100000000001</ele>
        <time>2019-02-03T13:01:29Z</time>
      </trkpt>
      <trkpt lat="45.844333749264479" lon="7.921663597226143">
        <ele>1669.47</ele>
        <time>2019-02-03T13:01:44Z</time>
      </trkpt>
      <trkpt lat="45.844338526949286" lon="7.92164633050561">
        <ele>1669.95</ele>
        <time>2019-02-03T13:01:46Z</time>
      </trkpt>
      <trkpt lat="45.84437389858067" lon="7.921594530344009">
        <ele>1669.95</ele>
        <time>2019-02-03T13:01:52Z</time>
      </trkpt>
      <trkpt lat="45.844445396214724" lon="7.921550944447517">
        <ele>1671.3900000000001</ele>
        <time>2019-02-03T13:02:01Z</time>
      </trkpt>
      <trkpt lat="45.844509853050113" lon="7.921486739069223">
        <ele>1672.3499999999999</ele>
        <time>2019-02-03T13:02:12Z</time>
      </trkpt>
      <trkpt lat="45.844562659040093" lon="7.921442147344351">
        <ele>1671.3900000000001</ele>
        <time>2019-02-03T13:02:19Z</time>
      </trkpt>
      <trkpt lat="45.84462895989418" lon="7.921392945572734">
        <ele>1673.3099999999999</ele>
        <time>2019-02-03T13:02:29Z</time>
      </trkpt>
      <trkpt lat="45.844678748399019" lon="7.921331338584423">
        <ele>1673.3099999999999</ele>
        <time>2019-02-03T13:02:39Z</time>
      </trkpt>
      <trkpt lat="45.844743959605694" lon="7.921306528151035">
        <ele>1673.3099999999999</ele>
        <time>2019-02-03T13:02:47Z</time>
      </trkpt>
      <trkpt lat="45.844782013446093" lon="7.921307366341353">
        <ele>1673.79</ele>
        <time>2019-02-03T13:02:55Z</time>
      </trkpt>
      <trkpt lat="45.844807913526893" lon="7.921371655538678">
        <ele>1674.27</ele>
        <time>2019-02-03T13:03:07Z</time>
      </trkpt>
      <trkpt lat="45.844799615442753" lon="7.921395627781749">
        <ele>1674.75</ele>
        <time>2019-02-03T13:03:17Z</time>
      </trkpt>
      <trkpt lat="45.84479508921504" lon="7.921384982764721">
        <ele>1674.75</ele>
        <time>2019-02-03T13:03:24Z</time>
      </trkpt>
      <trkpt lat="45.844791233539581" lon="7.921351958066225">
        <ele>1675.72</ele>
        <time>2019-02-03T13:03:32Z</time>
      </trkpt>
      <trkpt lat="45.84479215554893" lon="7.921369476243854">
        <ele>1677.1600000000001</ele>
        <time>2019-02-03T13:03:47Z</time>
      </trkpt>
      <trkpt lat="45.844810260459781" lon="7.921383641660214">
        <ele>1679.0799999999999</ele>
        <time>2019-02-03T13:04:08Z</time>
      </trkpt>
      <trkpt lat="45.844840938225389" lon="7.921362100169063">
        <ele>1679.0799999999999</ele>
        <time>2019-02-03T13:04:27Z</time>
      </trkpt>
      <trkpt lat="45.844801208004355" lon="7.921424545347691">
        <ele>1679.5599999999999</ele>
        <time>2019-02-03T13:04:38Z</time>
      </trkpt>
      <trkpt lat="45.844825096428394" lon="7.921395124867559">
        <ele>1680.52</ele>
        <time>2019-02-03T13:04:59Z</time>
      </trkpt>
      <trkpt lat="45.844817804172635" lon="7.921465365216136">
        <ele>1684.3699999999999</ele>
        <time>2019-02-03T13:05:10Z</time>
      </trkpt>
      <trkpt lat="45.844758292660117" lon="7.921423874795437">
        <ele>1685.8099999999999</ele>
        <time>2019-02-03T13:05:28Z</time>
      </trkpt>
      <trkpt lat="45.844728285446763" lon="7.921487661078572">
        <ele>1687.73</ele>
        <time>2019-02-03T13:05:56Z</time>
      </trkpt>
      <trkpt lat="45.844716131687164" lon="7.921508951112628">
        <ele>1689.6500000000001</ele>
        <time>2019-02-03T13:06:21Z</time>
      </trkpt>
      <trkpt lat="45.844703391194344" lon="7.921473495662212">
        <ele>1688.21</ele>
        <time>2019-02-03T13:06:47Z</time>
      </trkpt>
      <trkpt lat="45.844713617116213" lon="7.921498138457537">
        <ele>1688.6900000000001</ele>
        <time>2019-02-03T13:07:15Z</time>
      </trkpt>
      <trkpt lat="45.844720071181655" lon="7.921554129570723">
        <ele>1691.0999999999999</ele>
        <time>2019-02-03T13:07:35Z</time>
      </trkpt>
      <trkpt lat="45.844706492498517" lon="7.921515321359038">
        <ele>1688.21</ele>
        <time>2019-02-03T13:07:47Z</time>
      </trkpt>
      <trkpt lat="45.844720993191004" lon="7.921563517302275">
        <ele>1688.21</ele>
        <time>2019-02-03T13:08:11Z</time>
      </trkpt>
      <trkpt lat="45.844731219112873" lon="7.921640211716294">
        <ele>1691.5799999999999</ele>
        <time>2019-02-03T13:08:36Z</time>
      </trkpt>
      <trkpt lat="45.844748569652438" lon="7.921613724902272">
        <ele>1693.5</ele>
        <time>2019-02-03T13:09:03Z</time>
      </trkpt>
      <trkpt lat="45.844747060909867" lon="7.921575335785747">
        <ele>1690.1400000000001</ele>
        <time>2019-02-03T13:09:17Z</time>
      </trkpt>
      <trkpt lat="45.844749407842755" lon="7.921635517850518">
        <ele>1690.1400000000001</ele>
        <time>2019-02-03T13:09:43Z</time>
      </trkpt>
      <trkpt lat="45.844775391742587" lon="7.921624705195427">
        <ele>1693.02</ele>
        <time>2019-02-03T13:10:10Z</time>
      </trkpt>
      <trkpt lat="45.84480045363307" lon="7.921496126800776">
        <ele>1690.6199999999999</ele>
        <time>2019-02-03T13:10:34Z</time>
      </trkpt>
      <trkpt lat="45.844801962375641" lon="7.921534013003111">
        <ele>1693.02</ele>
        <time>2019-02-03T13:10:59Z</time>
      </trkpt>
      <trkpt lat="45.844768853858113" lon="7.921548597514629">
        <ele>1690.6199999999999</ele>
        <time>2019-02-03T13:11:26Z</time>
      </trkpt>
      <trkpt lat="45.844785030931234" lon="7.921595787629485">
        <ele>1692.0599999999999</ele>
        <time>2019-02-03T13:11:55Z</time>
      </trkpt>
      <trkpt lat="45.844801710918546" lon="7.921649347990751">
        <ele>1694.9400000000001</ele>
        <time>2019-02-03T13:12:14Z</time>
      </trkpt>
      <trkpt lat="45.844799866899848" lon="7.921618586406112">
        <ele>1697.3399999999999</ele>
        <time>2019-02-03T13:12:42Z</time>
      </trkpt>
      <trkpt lat="45.84478285163641" lon="7.921560751274228">
        <ele>1698.79</ele>
        <time>2019-02-03T13:13:08Z</time>
      </trkpt>
      <trkpt lat="45.844764998182654" lon="7.921563182026148">
        <ele>1700.23</ele>
        <time>2019-02-03T13:13:30Z</time>
      </trkpt>
      <trkpt lat="45.844784528017044" lon="7.921608444303274">
        <ele>1696.8599999999999</ele>
        <time>2019-02-03T13:13:39Z</time>
      </trkpt>
      <trkpt lat="45.844791904091835" lon="7.921584555879235">
        <ele>1693.98</ele>
        <time>2019-02-03T13:13:51Z</time>
      </trkpt>
      <trkpt lat="45.844805566594005" lon="7.92157307267189">
        <ele>1692.0599999999999</ele>
        <time>2019-02-03T13:13:55Z</time>
      </trkpt>
      <trkpt lat="45.844776397570968" lon="7.921493779867888">
        <ele>1689.1700000000001</ele>
        <time>2019-02-03T13:14:18Z</time>
      </trkpt>
      <trkpt lat="45.844749575480819" lon="7.921393699944019">
        <ele>1685.3299999999999</ele>
        <time>2019-02-03T13:14:27Z</time>
      </trkpt>
      <trkpt lat="45.844763657078147" lon="7.921362016350031">
        <ele>1682.4400000000001</ele>
        <time>2019-02-03T13:14:32Z</time>
      </trkpt>
      <trkpt lat="45.844773212447762" lon="7.921317256987095">
        <ele>1678.5999999999999</ele>
        <time>2019-02-03T13:14:39Z</time>
      </trkpt>
      <trkpt lat="45.844774721190333" lon="7.921297894790769">
        <ele>1678.1199999999999</ele>
        <time>2019-02-03T13:14:41Z</time>
      </trkpt>
      <trkpt lat="45.844747060909867" lon="7.921336535364389">
        <ele>1677.1600000000001</ele>
        <time>2019-02-03T13:15:07Z</time>
      </trkpt>
      <trkpt lat="45.844738846644759" lon="7.921367213129997">
        <ele>1678.1199999999999</ele>
        <time>2019-02-03T13:15:33Z</time>
      </trkpt>
      <trkpt lat="45.844772038981318" lon="7.921352963894606">
        <ele>1678.5999999999999</ele>
        <time>2019-02-03T13:15:55Z</time>
      </trkpt>
      <trkpt lat="45.844748737290502" lon="7.921341145411134">
        <ele>1677.1600000000001</ele>
        <time>2019-02-03T13:16:22Z</time>
      </trkpt>
      <trkpt lat="45.844759214669466" lon="7.92130040936172">
        <ele>1673.79</ele>
        <time>2019-02-03T13:16:44Z</time>
      </trkpt>
      <trkpt lat="45.844800872728229" lon="7.92134877294302">
        <ele>1674.27</ele>
        <time>2019-02-03T13:17:05Z</time>
      </trkpt>
      <trkpt lat="45.844849152490497" lon="7.92144357226789">
        <ele>1677.6400000000001</ele>
        <time>2019-02-03T13:17:19Z</time>
      </trkpt>
      <trkpt lat="45.844850158318877" lon="7.921498054638505">
        <ele>1681</ele>
        <time>2019-02-03T13:17:23Z</time>
      </trkpt>
      <trkpt lat="45.844822749495506" lon="7.921540215611458">
        <ele>1683.8900000000001</ele>
        <time>2019-02-03T13:17:40Z</time>
      </trkpt>
      <trkpt lat="45.844827443361282" lon="7.921494115144014">
        <ele>1687.25</ele>
        <time>2019-02-03T13:18:00Z</time>
      </trkpt>
      <trkpt lat="45.844812439754605" lon="7.921550357714295">
        <ele>1690.6199999999999</ele>
        <time>2019-02-03T13:18:13Z</time>
      </trkpt>
      <trkpt lat="45.844827275723219" lon="7.921642391011119">
        <ele>1693.98</ele>
        <time>2019-02-03T13:18:26Z</time>
      </trkpt>
      <trkpt lat="45.844836160540581" lon="7.921647587791085">
        <ele>1696.8599999999999</ele>
        <time>2019-02-03T13:18:48Z</time>
      </trkpt>
      <trkpt lat="45.844862814992666" lon="7.921668374910951">
        <ele>1698.79</ele>
        <time>2019-02-03T13:19:09Z</time>
      </trkpt>
      <trkpt lat="45.844867676496506" lon="7.921703830361366">
        <ele>1699.27</ele>
        <time>2019-02-03T13:19:31Z</time>
      </trkpt>
      <trkpt lat="45.844876058399677" lon="7.921651443466544">
        <ele>1700.71</ele>
        <time>2019-02-03T13:19:51Z</time>
      </trkpt>
      <trkpt lat="45.844892738386989" lon="7.921604923903942">
        <ele>1697.8299999999999</ele>
        <time>2019-02-03T13:20:09Z</time>
      </trkpt>
      <trkpt lat="45.844861473888159" lon="7.92165077291429">
        <ele>1693.02</ele>
        <time>2019-02-03T13:20:19Z</time>
      </trkpt>
      <trkpt lat="45.844851331785321" lon="7.921626633033156">
        <ele>1690.1400000000001</ele>
        <time>2019-02-03T13:20:21Z</time>
      </trkpt>
      <trkpt lat="45.844836579635739" lon="7.921602576971054">
        <ele>1688.21</ele>
        <time>2019-02-03T13:20:24Z</time>
      </trkpt>
      <trkpt lat="45.844823084771633" lon="7.921556811779738">
        <ele>1684.8499999999999</ele>
        <time>2019-02-03T13:20:27Z</time>
      </trkpt>
      <trkpt lat="45.844821492210031" lon="7.921512136235833">
        <ele>1681.48</ele>
        <time>2019-02-03T13:20:31Z</time>
      </trkpt>
      <trkpt lat="45.844815457239747" lon="7.92149000801146">
        <ele>1678.5999999999999</ele>
        <time>2019-02-03T13:20:52Z</time>
      </trkpt>
      <trkpt lat="45.844813445582986" lon="7.921511381864548">
        <ele>1677.1600000000001</ele>
        <time>2019-02-03T13:21:16Z</time>
      </trkpt>
      <trkpt lat="45.844793580472469" lon="7.921430999413133">
        <ele>1673.79</ele>
        <time>2019-02-03T13:21:38Z</time>
      </trkpt>
      <trkpt lat="45.844791736453772" lon="7.921388000249863">
        <ele>1670.4300000000001</ele>
        <time>2019-02-03T13:21:45Z</time>
      </trkpt>
      <trkpt lat="45.844801291823387" lon="7.921411553397775">
        <ele>1671.8699999999999</ele>
        <time>2019-02-03T13:22:09Z</time>
      </trkpt>
      <trkpt lat="45.84481704980135" lon="7.921415744349361">
        <ele>1675.23</ele>
        <time>2019-02-03T13:22:34Z</time>
      </trkpt>
      <trkpt lat="45.844836998730898" lon="7.921477183699608">
        <ele>1678.1199999999999</ele>
        <time>2019-02-03T13:22:40Z</time>
      </trkpt>
      <trkpt lat="45.844846470281482" lon="7.921486236155033">
        <ele>1681.48</ele>
        <time>2019-02-03T13:22:45Z</time>
      </trkpt>
      <trkpt lat="45.844797352328897" lon="7.921393867582083">
        <ele>1681.96</ele>
        <time>2019-02-03T13:23:06Z</time>
      </trkpt>
      <trkpt lat="45.844762315973639" lon="7.921363105997443">
        <ele>1678.5999999999999</ele>
        <time>2019-02-03T13:23:29Z</time>
      </trkpt>
      <trkpt lat="45.844780337065458" lon="7.921336954459548">
        <ele>1675.72</ele>
        <time>2019-02-03T13:23:34Z</time>
      </trkpt>
      <trkpt lat="45.844777654856443" lon="7.92132823728025">
        <ele>1672.8299999999999</ele>
        <time>2019-02-03T13:23:52Z</time>
      </trkpt>
      <trkpt lat="45.844784444198012" lon="7.92139227502048">
        <ele>1674.27</ele>
        <time>2019-02-03T13:24:09Z</time>
      </trkpt>
      <trkpt lat="45.84476332180202" lon="7.921355981379747">
        <ele>1676.2</ele>
        <time>2019-02-03T13:24:22Z</time>
      </trkpt>
      <trkpt lat="45.844791568815708" lon="7.921300744637847">
        <ele>1675.23</ele>
        <time>2019-02-03T13:24:44Z</time>
      </trkpt>
      <trkpt lat="45.844777906313539" lon="7.921352377161384">
        <ele>1671.8699999999999</ele>
        <time>2019-02-03T13:24:59Z</time>
      </trkpt>
      <trkpt lat="45.844759801402688" lon="7.921333098784089">
        <ele>1668.51</ele>
        <time>2019-02-03T13:25:12Z</time>
      </trkpt>
      <trkpt lat="45.844752341508865" lon="7.921349946409464">
        <ele>1668.02</ele>
        <time>2019-02-03T13:25:14Z</time>
      </trkpt>
      <trkpt lat="45.844803052023053" lon="7.92138883844018">
        <ele>1668.99</ele>
        <time>2019-02-03T13:25:37Z</time>
      </trkpt>
      <trkpt lat="45.844788970425725" lon="7.921417336910963">
        <ele>1672.3499999999999</ele>
        <time>2019-02-03T13:25:57Z</time>
      </trkpt>
      <trkpt lat="45.844790814444423" lon="7.921432172879577">
        <ele>1675.72</ele>
        <time>2019-02-03T13:26:18Z</time>
      </trkpt>
      <trkpt lat="45.84477799013257" lon="7.92148414067924">
        <ele>1679.0799999999999</ele>
        <time>2019-02-03T13:26:31Z</time>
      </trkpt>
      <trkpt lat="45.844802800565958" lon="7.921491265296936">
        <ele>1679.5599999999999</ele>
        <time>2019-02-03T13:26:57Z</time>
      </trkpt>
      <trkpt lat="45.844782432541251" lon="7.921495791524649">
        <ele>1678.1199999999999</ele>
        <time>2019-02-03T13:27:20Z</time>
      </trkpt>
      <trkpt lat="45.844785617664456" lon="7.921553710475564">
        <ele>1681.48</ele>
        <time>2019-02-03T13:27:35Z</time>
      </trkpt>
      <trkpt lat="45.844776649028063" lon="7.92159553617239">
        <ele>1684.3699999999999</ele>
        <time>2019-02-03T13:27:43Z</time>
      </trkpt>
      <trkpt lat="45.844780253246427" lon="7.921587573364377">
        <ele>1685.3299999999999</ele>
        <time>2019-02-03T13:27:45Z</time>
      </trkpt>
      <trkpt lat="45.844776816666126" lon="7.921579694375396">
        <ele>1685.8099999999999</ele>
        <time>2019-02-03T13:27:48Z</time>
      </trkpt>
      <trkpt lat="45.84480682387948" lon="7.921565864235163">
        <ele>1685.3299999999999</ele>
        <time>2019-02-03T13:27:58Z</time>
      </trkpt>
      <trkpt lat="45.844813445582986" lon="7.921538706868887">
        <ele>1684.8499999999999</ele>
        <time>2019-02-03T13:28:01Z</time>
      </trkpt>
      <trkpt lat="45.844790395349264" lon="7.92144700884819">
        <ele>1681.96</ele>
        <time>2019-02-03T13:28:11Z</time>
      </trkpt>
      <trkpt lat="45.844785869121552" lon="7.921445248648524">
        <ele>1678.1199999999999</ele>
        <time>2019-02-03T13:28:17Z</time>
      </trkpt>
      <trkpt lat="45.844791820272803" lon="7.921436615288258">
        <ele>1678.1199999999999</ele>
        <time>2019-02-03T13:28:18Z</time>
      </trkpt>
      <trkpt lat="45.844784947112203" lon="7.92144943960011">
        <ele>1677.1600000000001</ele>
        <time>2019-02-03T13:28:29Z</time>
      </trkpt>
      <trkpt lat="45.844781175255775" lon="7.921423371881247">
        <ele>1677.6400000000001</ele>
        <time>2019-02-03T13:28:41Z</time>
      </trkpt>
      <trkpt lat="45.844780588522553" lon="7.92143577709794">
        <ele>1678.5999999999999</ele>
        <time>2019-02-03T13:28:52Z</time>
      </trkpt>
      <trkpt lat="45.844790227711201" lon="7.921452792361379">
        <ele>1678.1199999999999</ele>
        <time>2019-02-03T13:29:04Z</time>
      </trkpt>
      <trkpt lat="45.844780253246427" lon="7.921435944736004">
        <ele>1677.1600000000001</ele>
        <time>2019-02-03T13:29:18Z</time>
      </trkpt>
      <trkpt lat="45.8447799179703" lon="7.921427143737674">
        <ele>1675.23</ele>
        <time>2019-02-03T13:29:28Z</time>
      </trkpt>
      <trkpt lat="45.844771703705192" lon="7.921427311375737">
        <ele>1675.72</ele>
        <time>2019-02-03T13:29:37Z</time>
      </trkpt>
      <trkpt lat="45.844787713140249" lon="7.921385234221816">
        <ele>1675.23</ele>
        <time>2019-02-03T13:29:46Z</time>
      </trkpt>
      <trkpt lat="45.844793580472469" lon="7.921353382989764">
        <ele>1675.23</ele>
        <time>2019-02-03T13:30:02Z</time>
      </trkpt>
      <trkpt lat="45.844780085608363" lon="7.921405350789428">
        <ele>1675.72</ele>
        <time>2019-02-03T13:30:13Z</time>
      </trkpt>
      <trkpt lat="45.844783186912537" lon="7.921408284455538">
        <ele>1673.3099999999999</ele>
        <time>2019-02-03T13:30:25Z</time>
      </trkpt>
      <trkpt lat="45.844783522188663" lon="7.92144700884819">
        <ele>1672.3499999999999</ele>
        <time>2019-02-03T13:30:37Z</time>
      </trkpt>
      <trkpt lat="45.844823839142919" lon="7.921610120683909">
        <ele>1671.8699999999999</ele>
        <time>2019-02-03T13:30:48Z</time>
      </trkpt>
      <trkpt lat="45.844810763373971" lon="7.921674996614456">
        <ele>1670.9100000000001</ele>
        <time>2019-02-03T13:30:52Z</time>
      </trkpt>
      <trkpt lat="45.84480045363307" lon="7.921711457893252">
        <ele>1670.4300000000001</ele>
        <time>2019-02-03T13:30:55Z</time>
      </trkpt>
      <trkpt lat="45.844796514138579" lon="7.921727551147342">
        <ele>1670.4300000000001</ele>
        <time>2019-02-03T13:31:05Z</time>
      </trkpt>
      <trkpt lat="45.844791987910867" lon="7.921679774299264">
        <ele>1668.51</ele>
        <time>2019-02-03T13:31:14Z</time>
      </trkpt>
      <trkpt lat="45.844810344278812" lon="7.921706680208445">
        <ele>1669.47</ele>
        <time>2019-02-03T13:31:23Z</time>
      </trkpt>
      <trkpt lat="45.844796933233738" lon="7.921704668551683">
        <ele>1667.54</ele>
        <time>2019-02-03T13:31:27Z</time>
      </trkpt>
      <trkpt lat="45.844773547723889" lon="7.921704081818461">
        <ele>1668.99</ele>
        <time>2019-02-03T13:31:49Z</time>
      </trkpt>
      <trkpt lat="45.84477799013257" lon="7.921677762642503">
        <ele>1669.95</ele>
        <time>2019-02-03T13:32:06Z</time>
      </trkpt>
      <trkpt lat="45.844782432541251" lon="7.921689748764038">
        <ele>1672.8299999999999</ele>
        <time>2019-02-03T13:32:20Z</time>
      </trkpt>
      <trkpt lat="45.844780001789331" lon="7.921687485650182">
        <ele>1675.23</ele>
        <time>2019-02-03T13:32:42Z</time>
      </trkpt>
      <trkpt lat="45.844790646806359" lon="7.921683797612786">
        <ele>1677.1600000000001</ele>
        <time>2019-02-03T13:33:01Z</time>
      </trkpt>
      <trkpt lat="45.844794837757945" lon="7.921669548377395">
        <ele>1674.27</ele>
        <time>2019-02-03T13:33:21Z</time>
      </trkpt>
      <trkpt lat="45.844793664291501" lon="7.921685557812452">
        <ele>1673.79</ele>
        <time>2019-02-03T13:33:47Z</time>
      </trkpt>
      <trkpt lat="45.844783522188663" lon="7.921681869775057">
        <ele>1673.3099999999999</ele>
        <time>2019-02-03T13:34:15Z</time>
      </trkpt>
      <trkpt lat="45.844799447804689" lon="7.921674912795425">
        <ele>1674.75</ele>
        <time>2019-02-03T13:34:44Z</time>
      </trkpt>
      <trkpt lat="45.844801459461451" lon="7.921674326062203">
        <ele>1671.8699999999999</ele>
        <time>2019-02-03T13:34:58Z</time>
      </trkpt>
      <trkpt lat="45.844826521351933" lon="7.921685893088579">
        <ele>1672.8299999999999</ele>
        <time>2019-02-03T13:35:24Z</time>
      </trkpt>
      <trkpt lat="45.844815205782652" lon="7.921671057119966">
        <ele>1672.3499999999999</ele>
        <time>2019-02-03T13:35:33Z</time>
      </trkpt>
      <trkpt lat="45.84482048638165" lon="7.921692682430148">
        <ele>1673.3099999999999</ele>
        <time>2019-02-03T13:35:49Z</time>
      </trkpt>
      <trkpt lat="45.844825766980648" lon="7.921687234193087">
        <ele>1672.8299999999999</ele>
        <time>2019-02-03T13:36:15Z</time>
      </trkpt>
      <trkpt lat="45.844818977639079" lon="7.9217245336622">
        <ele>1671.8699999999999</ele>
        <time>2019-02-03T13:36:21Z</time>
      </trkpt>
      <trkpt lat="45.844819396734238" lon="7.921757390722632">
        <ele>1670.9100000000001</ele>
        <time>2019-02-03T13:36:23Z</time>
      </trkpt>
      <trkpt lat="45.844825012609363" lon="7.921788403764367">
        <ele>1670.4300000000001</ele>
        <time>2019-02-03T13:36:25Z</time>
      </trkpt>
      <trkpt lat="45.84485175088048" lon="7.921924106776714">
        <ele>1669.47</ele>
        <time>2019-02-03T13:36:34Z</time>
      </trkpt>
      <trkpt lat="45.844877399504185" lon="7.922115549445152">
        <ele>1666.5799999999999</ele>
        <time>2019-02-03T13:36:45Z</time>
      </trkpt>
      <trkpt lat="45.844876812770963" lon="7.922285199165344">
        <ele>1665.1400000000001</ele>
        <time>2019-02-03T13:36:54Z</time>
      </trkpt>
      <trkpt lat="45.844882931560278" lon="7.922495165839791">
        <ele>1663.22</ele>
        <time>2019-02-03T13:37:05Z</time>
      </trkpt>
      <trkpt lat="45.844885613769293" lon="7.922697337344289">
        <ele>1661.3</ele>
        <time>2019-02-03T13:37:16Z</time>
      </trkpt>
      <trkpt lat="45.844893073663116" lon="7.922768667340279">
        <ele>1661.3</ele>
        <time>2019-02-03T13:37:20Z</time>
      </trkpt>
      <trkpt lat="45.844895504415035" lon="7.922854162752628">
        <ele>1660.3299999999999</ele>
        <time>2019-02-03T13:37:25Z</time>
      </trkpt>
      <trkpt lat="45.844859126955271" lon="7.922977125272155">
        <ele>1657.9300000000001</ele>
        <time>2019-02-03T13:37:35Z</time>
      </trkpt>
      <trkpt lat="45.844873376190662" lon="7.922994811087847">
        <ele>1657.45</ele>
        <time>2019-02-03T13:37:50Z</time>
      </trkpt>
      <trkpt lat="45.844842363148928" lon="7.923058262094855">
        <ele>1656.01</ele>
        <time>2019-02-03T13:38:02Z</time>
      </trkpt>
      <trkpt lat="45.844825934618711" lon="7.923026410862804">
        <ele>1655.05</ele>
        <time>2019-02-03T13:38:15Z</time>
      </trkpt>
      <trkpt lat="45.844819396734238" lon="7.923076115548611">
        <ele>1656.01</ele>
        <time>2019-02-03T13:38:26Z</time>
      </trkpt>
      <trkpt lat="45.84481755271554" lon="7.923111403360963">
        <ele>1656.01</ele>
        <time>2019-02-03T13:38:44Z</time>
      </trkpt>
      <trkpt lat="45.84479751996696" lon="7.923170831054449">
        <ele>1653.5999999999999</ele>
        <time>2019-02-03T13:38:54Z</time>
      </trkpt>
      <trkpt lat="45.844775894656777" lon="7.92324610054493">
        <ele>1650.24</ele>
        <time>2019-02-03T13:39:03Z</time>
      </trkpt>
      <trkpt lat="45.844759130850434" lon="7.923216680064797">
        <ele>1648.3199999999999</ele>
        <time>2019-02-03T13:39:12Z</time>
      </trkpt>
      <trkpt lat="45.84476575255394" lon="7.923197988420725">
        <ele>1646.8800000000001</ele>
        <time>2019-02-03T13:39:26Z</time>
      </trkpt>
      <trkpt lat="45.84476675838232" lon="7.923177117481828">
        <ele>1647.8399999999999</ele>
        <time>2019-02-03T13:39:44Z</time>
      </trkpt>
      <trkpt lat="45.844756783917546" lon="7.923115845769644">
        <ele>1648.3199999999999</ele>
        <time>2019-02-03T13:40:01Z</time>
      </trkpt>
      <trkpt lat="45.844771033152938" lon="7.923089107498527">
        <ele>1649.28</ele>
        <time>2019-02-03T13:40:10Z</time>
      </trkpt>
      <trkpt lat="45.844778493046761" lon="7.923067482188344">
        <ele>1650.72</ele>
        <time>2019-02-03T13:40:18Z</time>
      </trkpt>
      <trkpt lat="45.844818139448762" lon="7.923133363947272">
        <ele>1651.6800000000001</ele>
        <time>2019-02-03T13:40:26Z</time>
      </trkpt>
      <trkpt lat="45.8448058180511" lon="7.923187175765634">
        <ele>1651.2</ele>
        <time>2019-02-03T13:40:36Z</time>
      </trkpt>
      <trkpt lat="45.844780001789331" lon="7.923236209899187">
        <ele>1647.8399999999999</ele>
        <time>2019-02-03T13:40:44Z</time>
      </trkpt>
      <trkpt lat="45.844781175255775" lon="7.923239227384329">
        <ele>1646.8800000000001</ele>
        <time>2019-02-03T13:40:46Z</time>
      </trkpt>
      <trkpt lat="45.844787880778313" lon="7.923190779983997">
        <ele>1645.9100000000001</ele>
        <time>2019-02-03T13:40:58Z</time>
      </trkpt>
      <trkpt lat="45.844778660684824" lon="7.923186756670475">
        <ele>1648.8</ele>
        <time>2019-02-03T13:41:10Z</time>
      </trkpt>
      <trkpt lat="45.84477405063808" lon="7.923188181594014">
        <ele>1649.76</ele>
        <time>2019-02-03T13:41:18Z</time>
      </trkpt>
      <trkpt lat="45.844815876334906" lon="7.923248950392008">
        <ele>1648.8</ele>
        <time>2019-02-03T13:41:23Z</time>
      </trkpt>
      <trkpt lat="45.844843871891499" lon="7.92333553545177">
        <ele>1646.8800000000001</ele>
        <time>2019-02-03T13:41:29Z</time>
      </trkpt>
      <trkpt lat="45.844868011772633" lon="7.923382390290499">
        <ele>1644.95</ele>
        <time>2019-02-03T13:41:33Z</time>
      </trkpt>
      <trkpt lat="45.84487278945744" lon="7.923410637304187">
        <ele>1643.99</ele>
        <time>2019-02-03T13:41:35Z</time>
      </trkpt>
      <trkpt lat="45.84490992128849" lon="7.92354273609817">
        <ele>1640.1500000000001</ele>
        <time>2019-02-03T13:41:44Z</time>
      </trkpt>
      <trkpt lat="45.844939760863781" lon="7.92361750267446">
        <ele>1637.74</ele>
        <time>2019-02-03T13:41:51Z</time>
      </trkpt>
      <trkpt lat="45.844965996220708" lon="7.923720683902502">
        <ele>1633.9000000000001</ele>
        <time>2019-02-03T13:41:58Z</time>
      </trkpt>
      <trkpt lat="45.844995835795999" lon="7.923857308924198">
        <ele>1631.01</ele>
        <time>2019-02-03T13:42:07Z</time>
      </trkpt>
      <trkpt lat="45.845024921000004" lon="7.923960657790303">
        <ele>1628.1300000000001</ele>
        <time>2019-02-03T13:42:14Z</time>
      </trkpt>
      <trkpt lat="45.845061466097832" lon="7.92411002330482">
        <ele>1625.25</ele>
        <time>2019-02-03T13:42:24Z</time>
      </trkpt>
      <trkpt lat="45.845080241560936" lon="7.924238350242376">
        <ele>1623.3199999999999</ele>
        <time>2019-02-03T13:42:34Z</time>
      </trkpt>
      <trkpt lat="45.845121396705508" lon="7.924339519813657">
        <ele>1621.4000000000001</ele>
        <time>2019-02-03T13:42:43Z</time>
      </trkpt>
      <trkpt lat="45.845117373391986" lon="7.924313619732857">
        <ele>1619.48</ele>
        <time>2019-02-03T13:42:48Z</time>
      </trkpt>
      <trkpt lat="45.845114607363939" lon="7.924395427107811">
        <ele>1620.4400000000001</ele>
        <time>2019-02-03T13:42:55Z</time>
      </trkpt>
      <trkpt lat="45.845117541030049" lon="7.924413029104471">
        <ele>1620.4400000000001</ele>
        <time>2019-02-03T13:42:56Z</time>
      </trkpt>
      <trkpt lat="45.845165401697159" lon="7.924568764865398">
        <ele>1619.48</ele>
        <time>2019-02-03T13:43:07Z</time>
      </trkpt>
      <trkpt lat="45.845196582376957" lon="7.924681417644024">
        <ele>1619</ele>
        <time>2019-02-03T13:43:15Z</time>
      </trkpt>
      <trkpt lat="45.845251567661762" lon="7.924847714602947">
        <ele>1618.04</ele>
        <time>2019-02-03T13:43:25Z</time>
      </trkpt>
      <trkpt lat="45.845299009233713" lon="7.924982076510787">
        <ele>1615.1500000000001</ele>
        <time>2019-02-03T13:43:33Z</time>
      </trkpt>
      <trkpt lat="45.84537603892386" lon="7.925152815878391">
        <ele>1613.71</ele>
        <time>2019-02-03T13:43:43Z</time>
      </trkpt>
      <trkpt lat="45.845418116077781" lon="7.925294637680054">
        <ele>1614.1900000000001</ele>
        <time>2019-02-03T13:43:51Z</time>
      </trkpt>
      <trkpt lat="45.845438148826361" lon="7.925397315993905">
        <ele>1616.5899999999999</ele>
        <time>2019-02-03T13:44:01Z</time>
      </trkpt>
      <trkpt lat="45.845432868227363" lon="7.925400668755174">
        <ele>1616.5899999999999</ele>
        <time>2019-02-03T13:44:02Z</time>
      </trkpt>
      <trkpt lat="45.84543907083571" lon="7.925467304885387">
        <ele>1619</ele>
        <time>2019-02-03T13:44:13Z</time>
      </trkpt>
      <trkpt lat="45.845493637025356" lon="7.925665117800236">
        <ele>1619</ele>
        <time>2019-02-03T13:44:25Z</time>
      </trkpt>
      <trkpt lat="45.845501851290464" lon="7.925689509138465">
        <ele>1618.04</ele>
        <time>2019-02-03T13:44:27Z</time>
      </trkpt>
      <trkpt lat="45.845512496307492" lon="7.925722533836961">
        <ele>1617.0699999999999</ele>
        <time>2019-02-03T13:44:30Z</time>
      </trkpt>
      <trkpt lat="45.845521800220013" lon="7.925812052562833">
        <ele>1614.6700000000001</ele>
        <time>2019-02-03T13:44:37Z</time>
      </trkpt>
      <trkpt lat="45.845525739714503" lon="7.925868630409241">
        <ele>1611.79</ele>
        <time>2019-02-03T13:44:46Z</time>
      </trkpt>
      <trkpt lat="45.845564799383283" lon="7.925965944305062">
        <ele>1610.8299999999999</ele>
        <time>2019-02-03T13:44:56Z</time>
      </trkpt>
      <trkpt lat="45.845557423308492" lon="7.926003914326429">
        <ele>1609.3800000000001</ele>
        <time>2019-02-03T13:45:05Z</time>
      </trkpt>
      <trkpt lat="45.845567565411329" lon="7.926065688952804">
        <ele>1606.98</ele>
        <time>2019-02-03T13:45:19Z</time>
      </trkpt>
      <trkpt lat="45.845587095245719" lon="7.926087146624923">
        <ele>1603.6199999999999</ele>
        <time>2019-02-03T13:45:35Z</time>
      </trkpt>
      <trkpt lat="45.845588017255068" lon="7.926086392253637">
        <ele>1600.73</ele>
        <time>2019-02-03T13:45:52Z</time>
      </trkpt>
      <trkpt lat="45.845625484362245" lon="7.926155626773834">
        <ele>1604.0999999999999</ele>
        <time>2019-02-03T13:46:12Z</time>
      </trkpt>
      <trkpt lat="45.845622969791293" lon="7.926104078069329">
        <ele>1607.46</ele>
        <time>2019-02-03T13:46:16Z</time>
      </trkpt>
      <trkpt lat="45.845624646171927" lon="7.926117237657309">
        <ele>1610.8299999999999</ele>
        <time>2019-02-03T13:46:23Z</time>
      </trkpt>
      <trkpt lat="45.845667729154229" lon="7.926092594861984">
        <ele>1611.79</ele>
        <time>2019-02-03T13:46:31Z</time>
      </trkpt>
      <trkpt lat="45.84566630423069" lon="7.926098629832268">
        <ele>1615.1500000000001</ele>
        <time>2019-02-03T13:46:49Z</time>
      </trkpt>
      <trkpt lat="45.845665885135531" lon="7.926092594861984">
        <ele>1615.1500000000001</ele>
        <time>2019-02-03T13:46:50Z</time>
      </trkpt>
      <trkpt lat="45.845677703619003" lon="7.926110783591867">
        <ele>1617.0699999999999</ele>
        <time>2019-02-03T13:47:03Z</time>
      </trkpt>
      <trkpt lat="45.84570930339396" lon="7.926118830218911">
        <ele>1620.4400000000001</ele>
        <time>2019-02-03T13:47:17Z</time>
      </trkpt>
      <trkpt lat="45.845711231231689" lon="7.926094103604555">
        <ele>1623.3199999999999</ele>
        <time>2019-02-03T13:47:33Z</time>
      </trkpt>
      <trkpt lat="45.845703855156898" lon="7.926230560988188">
        <ele>1621.4000000000001</ele>
        <time>2019-02-03T13:47:43Z</time>
      </trkpt>
      <trkpt lat="45.845698323100805" lon="7.926264004781842">
        <ele>1617.5599999999999</ele>
        <time>2019-02-03T13:47:49Z</time>
      </trkpt>
      <trkpt lat="45.845687761902809" lon="7.926278673112392">
        <ele>1616.5899999999999</ele>
        <time>2019-02-03T13:47:51Z</time>
      </trkpt>
      <trkpt lat="45.845682481303811" lon="7.926315134391189">
        <ele>1613.23</ele>
        <time>2019-02-03T13:48:01Z</time>
      </trkpt>
      <trkpt lat="45.845654737204313" lon="7.926341202110052">
        <ele>1614.1900000000001</ele>
        <time>2019-02-03T13:48:19Z</time>
      </trkpt>
      <trkpt lat="45.845655156299472" lon="7.926309183239937">
        <ele>1615.6300000000001</ele>
        <time>2019-02-03T13:48:35Z</time>
      </trkpt>
      <trkpt lat="45.845587346702814" lon="7.926269453018904">
        <ele>1614.6700000000001</ele>
        <time>2019-02-03T13:48:41Z</time>
      </trkpt>
      <trkpt lat="45.845559434965253" lon="7.92627951130271">
        <ele>1613.71</ele>
        <time>2019-02-03T13:48:43Z</time>
      </trkpt>
      <trkpt lat="45.84549380466342" lon="7.926265094429255">
        <ele>1611.79</ele>
        <time>2019-02-03T13:48:53Z</time>
      </trkpt>
      <trkpt lat="45.845464132726192" lon="7.926295688375831">
        <ele>1612.27</ele>
        <time>2019-02-03T13:49:02Z</time>
      </trkpt>
      <trkpt lat="45.845501516014338" lon="7.926273979246616">
        <ele>1612.27</ele>
        <time>2019-02-03T13:49:14Z</time>
      </trkpt>
      <trkpt lat="45.845531271770597" lon="7.926357882097364">
        <ele>1611.79</ele>
        <time>2019-02-03T13:49:25Z</time>
      </trkpt>
      <trkpt lat="45.845515178516507" lon="7.926356121897697">
        <ele>1610.3499999999999</ele>
        <time>2019-02-03T13:49:27Z</time>
      </trkpt>
      <trkpt lat="45.845454577356577" lon="7.926371963694692">
        <ele>1606.5</ele>
        <time>2019-02-03T13:49:33Z</time>
      </trkpt>
      <trkpt lat="45.845418535172939" lon="7.926402976736426">
        <ele>1603.1400000000001</ele>
        <time>2019-02-03T13:49:40Z</time>
      </trkpt>
      <trkpt lat="45.845382744446397" lon="7.92644564062357">
        <ele>1600.25</ele>
        <time>2019-02-03T13:49:48Z</time>
      </trkpt>
      <trkpt lat="45.845329770818353" lon="7.926502972841263">
        <ele>1599.77</ele>
        <time>2019-02-03T13:49:59Z</time>
      </trkpt>
      <trkpt lat="45.845295237377286" lon="7.926541697233915">
        <ele>1599.29</ele>
        <time>2019-02-03T13:50:08Z</time>
      </trkpt>
      <trkpt lat="45.845272690057755" lon="7.926570530980825">
        <ele>1598.8099999999999</ele>
        <time>2019-02-03T13:50:12Z</time>
      </trkpt>
      <trkpt lat="45.845218962058425" lon="7.926578661426902">
        <ele>1595.45</ele>
        <time>2019-02-03T13:50:20Z</time>
      </trkpt>
      <trkpt lat="45.845175292342901" lon="7.926600119099021">
        <ele>1591.5999999999999</ele>
        <time>2019-02-03T13:50:26Z</time>
      </trkpt>
      <trkpt lat="45.845150565728545" lon="7.926611518487334">
        <ele>1590.6400000000001</ele>
        <time>2019-02-03T13:50:29Z</time>
      </trkpt>
      <trkpt lat="45.845059957355261" lon="7.926643704995513">
        <ele>1589.2</ele>
        <time>2019-02-03T13:50:39Z</time>
      </trkpt>
      <trkpt lat="45.845002038404346" lon="7.926639430224896">
        <ele>1587.27</ele>
        <time>2019-02-03T13:50:49Z</time>
      </trkpt>
      <trkpt lat="45.84495191462338" lon="7.926571872085333">
        <ele>1587.27</ele>
        <time>2019-02-03T13:50:58Z</time>
      </trkpt>
      <trkpt lat="45.844873962923884" lon="7.926470367237926">
        <ele>1579.5799999999999</ele>
        <time>2019-02-03T13:51:01Z</time>
      </trkpt>
      <trkpt lat="45.844843117520213" lon="7.926420494914055">
        <ele>1576.7</ele>
        <time>2019-02-03T13:51:03Z</time>
      </trkpt>
      <trkpt lat="45.844825096428394" lon="7.926454022526741">
        <ele>1573.3299999999999</ele>
        <time>2019-02-03T13:51:09Z</time>
      </trkpt>
      <trkpt lat="45.84483565762639" lon="7.926481431350112">
        <ele>1571.8900000000001</ele>
        <time>2019-02-03T13:51:11Z</time>
      </trkpt>
      <trkpt lat="45.844854516908526" lon="7.926619229838252">
        <ele>1568.05</ele>
        <time>2019-02-03T13:51:22Z</time>
      </trkpt>
      <trkpt lat="45.844852086156607" lon="7.926743282005191">
        <ele>1567.0899999999999</ele>
        <time>2019-02-03T13:51:32Z</time>
      </trkpt>
      <trkpt lat="45.844847979024053" lon="7.926751580089331">
        <ele>1566.1199999999999</ele>
        <time>2019-02-03T13:51:33Z</time>
      </trkpt>
      <trkpt lat="45.844844290986657" lon="7.926875045523047">
        <ele>1563.24</ele>
        <time>2019-02-03T13:51:45Z</time>
      </trkpt>
      <trkpt lat="45.844863401725888" lon="7.926909746602178">
        <ele>1563.24</ele>
        <time>2019-02-03T13:52:01Z</time>
      </trkpt>
      <trkpt lat="45.844893157482147" lon="7.926898347213864">
        <ele>1560.8399999999999</ele>
        <time>2019-02-03T13:52:07Z</time>
      </trkpt>
      <trkpt lat="45.844927271828055" lon="7.926929024979472">
        <ele>1557.47</ele>
        <time>2019-02-03T13:52:13Z</time>
      </trkpt>
      <trkpt lat="45.844972785562277" lon="7.926926091313362">
        <ele>1554.1099999999999</ele>
        <time>2019-02-03T13:52:19Z</time>
      </trkpt>
      <trkpt lat="45.844973707571626" lon="7.926985016092658">
        <ele>1551.22</ele>
        <time>2019-02-03T13:52:25Z</time>
      </trkpt>
      <trkpt lat="45.844911010935903" lon="7.927011083811522">
        <ele>1551.71</ele>
        <time>2019-02-03T13:52:34Z</time>
      </trkpt>
      <trkpt lat="45.844913357868791" lon="7.92705743573606">
        <ele>1549.78</ele>
        <time>2019-02-03T13:52:44Z</time>
      </trkpt>
      <trkpt lat="45.844970606267452" lon="7.927077887579799">
        <ele>1547.8599999999999</ele>
        <time>2019-02-03T13:52:55Z</time>
      </trkpt>
      <trkpt lat="45.844993237406015" lon="7.927137482911348">
        <ele>1544.98</ele>
        <time>2019-02-03T13:53:05Z</time>
      </trkpt>
      <trkpt lat="45.844954093918204" lon="7.927191378548741">
        <ele>1544.5</ele>
        <time>2019-02-03T13:53:15Z</time>
      </trkpt>
      <trkpt lat="45.844960045069456" lon="7.927182409912348">
        <ele>1545.46</ele>
        <time>2019-02-03T13:53:17Z</time>
      </trkpt>
      <trkpt lat="45.844865664839745" lon="7.927217110991478">
        <ele>1544.98</ele>
        <time>2019-02-03T13:53:28Z</time>
      </trkpt>
      <trkpt lat="45.84478972479701" lon="7.927212584763765">
        <ele>1541.1300000000001</ele>
        <time>2019-02-03T13:53:36Z</time>
      </trkpt>
      <trkpt lat="45.844771033152938" lon="7.927252817898989">
        <ele>1541.6099999999999</ele>
        <time>2019-02-03T13:53:46Z</time>
      </trkpt>
      <trkpt lat="45.844818390905857" lon="7.927291626110673">
        <ele>1540.6500000000001</ele>
        <time>2019-02-03T13:53:54Z</time>
      </trkpt>
      <trkpt lat="45.844875052571297" lon="7.92735893279314">
        <ele>1541.1300000000001</ele>
        <time>2019-02-03T13:54:06Z</time>
      </trkpt>
      <trkpt lat="45.844918303191662" lon="7.927369577810168">
        <ele>1538.25</ele>
        <time>2019-02-03T13:54:17Z</time>
      </trkpt>
      <trkpt lat="45.844874968752265" lon="7.927451888099313">
        <ele>1534.4000000000001</ele>
        <time>2019-02-03T13:54:27Z</time>
      </trkpt>
      <trkpt lat="45.844834819436073" lon="7.927441326901317">
        <ele>1531.52</ele>
        <time>2019-02-03T13:54:33Z</time>
      </trkpt>
      <trkpt lat="45.844804393127561" lon="7.92745859362185">
        <ele>1528.6300000000001</ele>
        <time>2019-02-03T13:54:41Z</time>
      </trkpt>
      <trkpt lat="45.844839932397008" lon="7.927497653290629">
        <ele>1527.1900000000001</ele>
        <time>2019-02-03T13:54:51Z</time>
      </trkpt>
      <trkpt lat="45.844877064228058" lon="7.927544843405485">
        <ele>1525.27</ele>
        <time>2019-02-03T13:54:59Z</time>
      </trkpt>
      <trkpt lat="45.844898857176304" lon="7.927567726001144">
        <ele>1526.23</ele>
        <time>2019-02-03T13:55:09Z</time>
      </trkpt>
      <trkpt lat="45.844922913238406" lon="7.927586920559406">
        <ele>1524.79</ele>
        <time>2019-02-03T13:55:13Z</time>
      </trkpt>
      <trkpt lat="45.844918135553598" lon="7.927683731541038">
        <ele>1524.79</ele>
        <time>2019-02-03T13:55:23Z</time>
      </trkpt>
      <trkpt lat="45.844931965693831" lon="7.927717007696629">
        <ele>1522.8699999999999</ele>
        <time>2019-02-03T13:55:33Z</time>
      </trkpt>
      <trkpt lat="45.844973959028721" lon="7.92771365493536">
        <ele>1523.3499999999999</ele>
        <time>2019-02-03T13:55:42Z</time>
      </trkpt>
      <trkpt lat="45.844993405044079" lon="7.92780208401382">
        <ele>1523.3499999999999</ele>
        <time>2019-02-03T13:55:52Z</time>
      </trkpt>
      <trkpt lat="45.844956692308187" lon="7.92786511592567">
        <ele>1522.3900000000001</ele>
        <time>2019-02-03T13:56:01Z</time>
      </trkpt>
      <trkpt lat="45.844888966530561" lon="7.927930159494281">
        <ele>1520.46</ele>
        <time>2019-02-03T13:56:11Z</time>
      </trkpt>
      <trkpt lat="45.844854265451431" lon="7.927959077060223">
        <ele>1517.0999999999999</ele>
        <time>2019-02-03T13:56:18Z</time>
      </trkpt>
      <trkpt lat="45.844801291823387" lon="7.927967961877585">
        <ele>1514.21</ele>
        <time>2019-02-03T13:56:29Z</time>
      </trkpt>
      <trkpt lat="45.844819480553269" lon="7.928010458126664">
        <ele>1514.6900000000001</ele>
        <time>2019-02-03T13:56:42Z</time>
      </trkpt>
      <trkpt lat="45.844820151105523" lon="7.928133336827159">
        <ele>1518.0599999999999</ele>
        <time>2019-02-03T13:56:51Z</time>
      </trkpt>
      <trkpt lat="45.84482392296195" lon="7.928198128938675">
        <ele>1518.54</ele>
        <time>2019-02-03T13:57:02Z</time>
      </trkpt>
      <trkpt lat="45.844808416441083" lon="7.928252443671227">
        <ele>1518.54</ele>
        <time>2019-02-03T13:57:16Z</time>
      </trkpt>
      <trkpt lat="45.84483708254993" lon="7.928314469754696">
        <ele>1519.02</ele>
        <time>2019-02-03T13:57:25Z</time>
      </trkpt>
      <trkpt lat="45.844856025651097" lon="7.928344057872891">
        <ele>1516.1400000000001</ele>
        <time>2019-02-03T13:57:30Z</time>
      </trkpt>
      <trkpt lat="45.844859713688493" lon="7.928341878578067">
        <ele>1516.1400000000001</ele>
        <time>2019-02-03T13:57:31Z</time>
      </trkpt>
      <trkpt lat="45.844854600727558" lon="7.928346069529653">
        <ele>1514.6900000000001</ele>
        <time>2019-02-03T13:57:42Z</time>
      </trkpt>
      <trkpt lat="45.84485862404108" lon="7.928349422290921">
        <ele>1513.25</ele>
        <time>2019-02-03T13:57:53Z</time>
      </trkpt>
      <trkpt lat="45.844859881326556" lon="7.928304579108954">
        <ele>1511.3299999999999</ele>
        <time>2019-02-03T13:58:07Z</time>
      </trkpt>
      <trkpt lat="45.844844207167625" lon="7.92838797904551">
        <ele>1509.8900000000001</ele>
        <time>2019-02-03T13:58:19Z</time>
      </trkpt>
      <trkpt lat="45.844851331785321" lon="7.928384961560369">
        <ele>1507.48</ele>
        <time>2019-02-03T13:58:24Z</time>
      </trkpt>
      <trkpt lat="45.844839261844754" lon="7.928407760336995">
        <ele>1507.97</ele>
        <time>2019-02-03T13:58:36Z</time>
      </trkpt>
      <trkpt lat="45.844856696203351" lon="7.928499039262533">
        <ele>1508.9300000000001</ele>
        <time>2019-02-03T13:58:45Z</time>
      </trkpt>
      <trkpt lat="45.844861641526222" lon="7.928555030375719">
        <ele>1507.97</ele>
        <time>2019-02-03T13:58:54Z</time>
      </trkpt>
      <trkpt lat="45.844919225201011" lon="7.928576320409775">
        <ele>1504.5999999999999</ele>
        <time>2019-02-03T13:59:04Z</time>
      </trkpt>
      <trkpt lat="45.844959625974298" lon="7.928614960983396">
        <ele>1501.72</ele>
        <time>2019-02-03T13:59:13Z</time>
      </trkpt>
      <trkpt lat="45.8449646551162" lon="7.928635831922293">
        <ele>1500.27</ele>
        <time>2019-02-03T13:59:16Z</time>
      </trkpt>
      <trkpt lat="45.844979071989655" lon="7.928714454174042">
        <ele>1496.9100000000001</ele>
        <time>2019-02-03T13:59:25Z</time>
      </trkpt>
      <trkpt lat="45.8449802454561" lon="7.928752675652504">
        <ele>1495.47</ele>
        <time>2019-02-03T13:59:28Z</time>
      </trkpt>
      <trkpt lat="45.844978736713529" lon="7.928839176893234">
        <ele>1494.99</ele>
        <time>2019-02-03T13:59:38Z</time>
      </trkpt>
      <trkpt lat="45.844963984563947" lon="7.928842781111598">
        <ele>1494.03</ele>
        <time>2019-02-03T13:59:49Z</time>
      </trkpt>
      <trkpt lat="45.844950824975967" lon="7.928873375058174">
        <ele>1494.51</ele>
        <time>2019-02-03T13:59:56Z</time>
      </trkpt>
      <trkpt lat="45.844899276271462" lon="7.928905813023448">
        <ele>1491.1400000000001</ele>
        <time>2019-02-03T14:00:02Z</time>
      </trkpt>
      <trkpt lat="45.8449318818748" lon="7.928928108885884">
        <ele>1488.26</ele>
        <time>2019-02-03T14:00:11Z</time>
      </trkpt>
      <trkpt lat="45.844990890473127" lon="7.928917463868856">
        <ele>1484.8900000000001</ele>
        <time>2019-02-03T14:00:17Z</time>
      </trkpt>
      <trkpt lat="45.8450130186975" lon="7.928918972611427">
        <ele>1483.9300000000001</ele>
        <time>2019-02-03T14:00:20Z</time>
      </trkpt>
      <trkpt lat="45.84504721686244" lon="7.928928947076201">
        <ele>1484.8900000000001</ele>
        <time>2019-02-03T14:00:23Z</time>
      </trkpt>
      <trkpt lat="45.845057610422373" lon="7.929023494943976">
        <ele>1486.3399999999999</ele>
        <time>2019-02-03T14:00:33Z</time>
      </trkpt>
      <trkpt lat="45.845008995383978" lon="7.929068086668849">
        <ele>1484.4100000000001</ele>
        <time>2019-02-03T14:00:45Z</time>
      </trkpt>
      <trkpt lat="45.844982005655766" lon="7.929094573482871">
        <ele>1481.05</ele>
        <time>2019-02-03T14:00:50Z</time>
      </trkpt>
      <trkpt lat="45.8449612185359" lon="7.929142769426107">
        <ele>1478.1600000000001</ele>
        <time>2019-02-03T14:00:58Z</time>
      </trkpt>
      <trkpt lat="45.844935150817037" lon="7.929210579022765">
        <ele>1474.8</ele>
        <time>2019-02-03T14:01:08Z</time>
      </trkpt>
      <trkpt lat="45.844948478043079" lon="7.929243603721261">
        <ele>1472.4000000000001</ele>
        <time>2019-02-03T14:01:18Z</time>
      </trkpt>
      <trkpt lat="45.844938838854432" lon="7.929231533780694">
        <ele>1473.3599999999999</ele>
        <time>2019-02-03T14:01:23Z</time>
      </trkpt>
      <trkpt lat="45.844968678429723" lon="7.929307390004396">
        <ele>1474.3199999999999</ele>
        <time>2019-02-03T14:01:37Z</time>
      </trkpt>
      <trkpt lat="45.844968343153596" lon="7.929325075820088">
        <ele>1476.72</ele>
        <time>2019-02-03T14:01:50Z</time>
      </trkpt>
      <trkpt lat="45.844954177737236" lon="7.929351478815079">
        <ele>1479.1300000000001</ele>
        <time>2019-02-03T14:01:56Z</time>
      </trkpt>
      <trkpt lat="45.84490112029016" lon="7.929385425522924">
        <ele>1477.6800000000001</ele>
        <time>2019-02-03T14:02:06Z</time>
      </trkpt>
      <trkpt lat="45.844882512465119" lon="7.929393304511905">
        <ele>1475.76</ele>
        <time>2019-02-03T14:02:17Z</time>
      </trkpt>
      <trkpt lat="45.844923416152596" lon="7.929311497136951">
        <ele>1474.8</ele>
        <time>2019-02-03T14:02:30Z</time>
      </trkpt>
      <trkpt lat="45.844949316233397" lon="7.929304204881191">
        <ele>1472.4000000000001</ele>
        <time>2019-02-03T14:02:38Z</time>
      </trkpt>
      <trkpt lat="45.844991141930223" lon="7.92931635864079">
        <ele>1470.47</ele>
        <time>2019-02-03T14:02:46Z</time>
      </trkpt>
      <trkpt lat="45.845040092244744" lon="7.929336139932275">
        <ele>1468.0699999999999</ele>
        <time>2019-02-03T14:02:51Z</time>
      </trkpt>
      <trkpt lat="45.845061130821705" lon="7.929392298683524">
        <ele>1464.71</ele>
        <time>2019-02-03T14:02:58Z</time>
      </trkpt>
      <trkpt lat="45.845061466097832" lon="7.929398417472839">
        <ele>1464.71</ele>
        <time>2019-02-03T14:02:59Z</time>
      </trkpt>
      <trkpt lat="45.845030453056097" lon="7.929442506283522">
        <ele>1464.71</ele>
        <time>2019-02-03T14:03:05Z</time>
      </trkpt>
      <trkpt lat="45.844956273213029" lon="7.929481146857142">
        <ele>1461.3399999999999</ele>
        <time>2019-02-03T14:03:12Z</time>
      </trkpt>
      <trkpt lat="45.844949316233397" lon="7.929486511275172">
        <ele>1460.8599999999999</ele>
        <time>2019-02-03T14:03:13Z</time>
      </trkpt>
      <trkpt lat="45.844930205494165" lon="7.92953772470355">
        <ele>1458.46</ele>
        <time>2019-02-03T14:03:19Z</time>
      </trkpt>
      <trkpt lat="45.844901036471128" lon="7.929627746343613">
        <ele>1455.5699999999999</ele>
        <time>2019-02-03T14:03:29Z</time>
      </trkpt>
      <trkpt lat="45.844882847741246" lon="7.929668063297868">
        <ele>1453.1700000000001</ele>
        <time>2019-02-03T14:03:33Z</time>
      </trkpt>
      <trkpt lat="45.844866251572967" lon="7.929691951721907">
        <ele>1452.6900000000001</ele>
        <time>2019-02-03T14:03:35Z</time>
      </trkpt>
      <trkpt lat="45.844856025651097" lon="7.929697316139936">
        <ele>1452.21</ele>
        <time>2019-02-03T14:03:36Z</time>
      </trkpt>
      <trkpt lat="45.844866251572967" lon="7.929754229262471">
        <ele>1450.29</ele>
        <time>2019-02-03T14:03:45Z</time>
      </trkpt>
      <trkpt lat="45.844905227422714" lon="7.929759928956628">
        <ele>1448.8399999999999</ele>
        <time>2019-02-03T14:03:49Z</time>
      </trkpt>
      <trkpt lat="45.845026513561606" lon="7.929765712469816">
        <ele>1446.9200000000001</ele>
        <time>2019-02-03T14:04:00Z</time>
      </trkpt>
      <trkpt lat="45.84507504478097" lon="7.929793456569314">
        <ele>1447.4000000000001</ele>
        <time>2019-02-03T14:04:11Z</time>
      </trkpt>
      <trkpt lat="45.845165820792317" lon="7.929906779900193">
        <ele>1449.8099999999999</ele>
        <time>2019-02-03T14:04:21Z</time>
      </trkpt>
      <trkpt lat="45.845157774165273" lon="7.929998058825731">
        <ele>1449.8099999999999</ele>
        <time>2019-02-03T14:04:26Z</time>
      </trkpt>
      <trkpt lat="45.845102788880467" lon="7.930040471255779">
        <ele>1447.8800000000001</ele>
        <time>2019-02-03T14:04:32Z</time>
      </trkpt>
      <trkpt lat="45.845082672312856" lon="7.93007324449718">
        <ele>1444.52</ele>
        <time>2019-02-03T14:04:40Z</time>
      </trkpt>
      <trkpt lat="45.845125587657094" lon="7.930125128477812">
        <ele>1441.6300000000001</ele>
        <time>2019-02-03T14:04:48Z</time>
      </trkpt>
      <trkpt lat="45.845126174390316" lon="7.930241972208023">
        <ele>1440.1900000000001</ele>
        <time>2019-02-03T14:04:58Z</time>
      </trkpt>
      <trkpt lat="45.845111086964607" lon="7.930259155109525">
        <ele>1439.71</ele>
        <time>2019-02-03T14:05:00Z</time>
      </trkpt>
      <trkpt lat="45.845094574615359" lon="7.930344566702843">
        <ele>1438.75</ele>
        <time>2019-02-03T14:05:10Z</time>
      </trkpt>
      <trkpt lat="45.845153499394655" lon="7.930333502590656">
        <ele>1436.8299999999999</ele>
        <time>2019-02-03T14:05:19Z</time>
      </trkpt>
      <trkpt lat="45.84525978192687" lon="7.930325036868453">
        <ele>1434.9100000000001</ele>
        <time>2019-02-03T14:05:31Z</time>
      </trkpt>
      <trkpt lat="45.845335805788636" lon="7.930301651358604">
        <ele>1433.46</ele>
        <time>2019-02-03T14:05:41Z</time>
      </trkpt>
      <trkpt lat="45.845355503261089" lon="7.930221017450094">
        <ele>1432.98</ele>
        <time>2019-02-03T14:05:51Z</time>
      </trkpt>
      <trkpt lat="45.845392048358917" lon="7.930185226723552">
        <ele>1432.5</ele>
        <time>2019-02-03T14:06:01Z</time>
      </trkpt>
      <trkpt lat="45.845435885712504" lon="7.930202828720212">
        <ele>1432.98</ele>
        <time>2019-02-03T14:06:10Z</time>
      </trkpt>
      <trkpt lat="45.845446446910501" lon="7.930248426273465">
        <ele>1432.5</ele>
        <time>2019-02-03T14:06:19Z</time>
      </trkpt>
      <trkpt lat="45.845485338941216" lon="7.930299723520875">
        <ele>1432.02</ele>
        <time>2019-02-03T14:06:29Z</time>
      </trkpt>
      <trkpt lat="45.845526661723852" lon="7.930447328835726">
        <ele>1432.02</ele>
        <time>2019-02-03T14:06:41Z</time>
      </trkpt>
      <trkpt lat="45.845519369468093" lon="7.930517317727208">
        <ele>1429.1400000000001</ele>
        <time>2019-02-03T14:06:48Z</time>
      </trkpt>
      <trkpt lat="45.845545688644052" lon="7.930555371567607">
        <ele>1425.29</ele>
        <time>2019-02-03T14:06:55Z</time>
      </trkpt>
      <trkpt lat="45.845500091090798" lon="7.930632401257753">
        <ele>1421.9300000000001</ele>
        <time>2019-02-03T14:07:04Z</time>
      </trkpt>
      <trkpt lat="45.845518028363585" lon="7.93062879703939">
        <ele>1419.04</ele>
        <time>2019-02-03T14:07:07Z</time>
      </trkpt>
      <trkpt lat="45.84555390290916" lon="7.930659055709839">
        <ele>1417.5999999999999</ele>
        <time>2019-02-03T14:07:17Z</time>
      </trkpt>
      <trkpt lat="45.845569325610995" lon="7.930652601644397">
        <ele>1414.72</ele>
        <time>2019-02-03T14:07:24Z</time>
      </trkpt>
      <trkpt lat="45.8456140011549" lon="7.930621420964599">
        <ele>1414.24</ele>
        <time>2019-02-03T14:07:34Z</time>
      </trkpt>
      <trkpt lat="45.845587514340878" lon="7.93070062994957">
        <ele>1413.28</ele>
        <time>2019-02-03T14:07:44Z</time>
      </trkpt>
      <trkpt lat="45.845548957586288" lon="7.930752262473106">
        <ele>1411.3499999999999</ele>
        <time>2019-02-03T14:07:53Z</time>
      </trkpt>
      <trkpt lat="45.845511825755239" lon="7.930772881954908">
        <ele>1409.9100000000001</ele>
        <time>2019-02-03T14:08:02Z</time>
      </trkpt>
      <trkpt lat="45.845503360033035" lon="7.930741114541888">
        <ele>1407.99</ele>
        <time>2019-02-03T14:08:12Z</time>
      </trkpt>
      <trkpt lat="45.845510652288795" lon="7.930769613012672">
        <ele>1406.0699999999999</ele>
        <time>2019-02-03T14:08:27Z</time>
      </trkpt>
      <trkpt lat="45.845538647845387" lon="7.930773720145226">
        <ele>1405.0999999999999</ele>
        <time>2019-02-03T14:08:30Z</time>
      </trkpt>
      <trkpt lat="45.84554904140532" lon="7.930773720145226">
        <ele>1404.1400000000001</ele>
        <time>2019-02-03T14:08:38Z</time>
      </trkpt>
      <trkpt lat="45.845520542934537" lon="7.930775731801987">
        <ele>1406.55</ele>
        <time>2019-02-03T14:08:51Z</time>
      </trkpt>
      <trkpt lat="45.84552314132452" lon="7.930771205574274">
        <ele>1407.51</ele>
        <time>2019-02-03T14:09:00Z</time>
      </trkpt>
      <trkpt lat="45.845492715016007" lon="7.930751675739884">
        <ele>1408.47</ele>
        <time>2019-02-03T14:09:18Z</time>
      </trkpt>
      <trkpt lat="45.845490703359246" lon="7.930765338242054">
        <ele>1409.4300000000001</ele>
        <time>2019-02-03T14:09:33Z</time>
      </trkpt>
      <trkpt lat="45.845508556813002" lon="7.93077883310616">
        <ele>1409.4300000000001</ele>
        <time>2019-02-03T14:09:45Z</time>
      </trkpt>
      <trkpt lat="45.845506964251399" lon="7.930782604962587">
        <ele>1410.8699999999999</ele>
        <time>2019-02-03T14:09:49Z</time>
      </trkpt>
      <trkpt lat="45.845534289255738" lon="7.930793920531869">
        <ele>1411.3499999999999</ele>
        <time>2019-02-03T14:10:02Z</time>
      </trkpt>
      <trkpt lat="45.845529846847057" lon="7.930782353505492">
        <ele>1412.3099999999999</ele>
        <time>2019-02-03T14:10:18Z</time>
      </trkpt>
      <trkpt lat="45.845494642853737" lon="7.930736253038049">
        <ele>1415.2</ele>
        <time>2019-02-03T14:10:30Z</time>
      </trkpt>
      <trkpt lat="45.84549673832953" lon="7.9307128675282">
        <ele>1417.5999999999999</ele>
        <time>2019-02-03T14:10:36Z</time>
      </trkpt>
      <trkpt lat="45.845435466617346" lon="7.930681519210339">
        <ele>1418.5599999999999</ele>
        <time>2019-02-03T14:10:55Z</time>
      </trkpt>
      <trkpt lat="45.845454828813672" lon="7.930689482018352">
        <ele>1419.04</ele>
        <time>2019-02-03T14:11:05Z</time>
      </trkpt>
      <trkpt lat="45.845445524901152" lon="7.930717477574945">
        <ele>1420.49</ele>
        <time>2019-02-03T14:11:21Z</time>
      </trkpt>
      <trkpt lat="45.84547377191484" lon="7.930696438997984">
        <ele>1422.8900000000001</ele>
        <time>2019-02-03T14:11:38Z</time>
      </trkpt>
      <trkpt lat="45.845501851290464" lon="7.930748155340552">
        <ele>1424.8099999999999</ele>
        <time>2019-02-03T14:11:52Z</time>
      </trkpt>
      <trkpt lat="45.845591789111495" lon="7.930791741237044">
        <ele>1425.29</ele>
        <time>2019-02-03T14:12:01Z</time>
      </trkpt>
      <trkpt lat="45.845628082752228" lon="7.930845217779279">
        <ele>1426.25</ele>
        <time>2019-02-03T14:12:04Z</time>
      </trkpt>
      <trkpt lat="45.845653060823679" lon="7.93090732768178">
        <ele>1426.25</ele>
        <time>2019-02-03T14:12:11Z</time>
      </trkpt>
      <trkpt lat="45.845749117434025" lon="7.930902633816004">
        <ele>1425.29</ele>
        <time>2019-02-03T14:12:21Z</time>
      </trkpt>
      <trkpt lat="45.845736293122172" lon="7.931000031530857">
        <ele>1423.8499999999999</ele>
        <time>2019-02-03T14:12:31Z</time>
      </trkpt>
      <trkpt lat="45.845776358619332" lon="7.930953344330192">
        <ele>1422.8900000000001</ele>
        <time>2019-02-03T14:12:39Z</time>
      </trkpt>
      <trkpt lat="45.845793457701802" lon="7.931047054007649">
        <ele>1419.52</ele>
        <time>2019-02-03T14:12:46Z</time>
      </trkpt>
      <trkpt lat="45.845761187374592" lon="7.931079156696796">
        <ele>1416.1600000000001</ele>
        <time>2019-02-03T14:12:50Z</time>
      </trkpt>
      <trkpt lat="45.845756074413657" lon="7.93108862824738">
        <ele>1416.1600000000001</ele>
        <time>2019-02-03T14:12:51Z</time>
      </trkpt>
      <trkpt lat="45.845736712217331" lon="7.931160209700465">
        <ele>1413.76</ele>
        <time>2019-02-03T14:12:58Z</time>
      </trkpt>
      <trkpt lat="45.845765210688114" lon="7.931210417300463">
        <ele>1413.28</ele>
        <time>2019-02-03T14:13:07Z</time>
      </trkpt>
      <trkpt lat="45.845819525420666" lon="7.931153420358896">
        <ele>1413.28</ele>
        <time>2019-02-03T14:13:18Z</time>
      </trkpt>
      <trkpt lat="45.845810975879431" lon="7.931187702342868">
        <ele>1410.8699999999999</ele>
        <time>2019-02-03T14:13:37Z</time>
      </trkpt>
      <trkpt lat="45.845788847655058" lon="7.931193402037025">
        <ele>1410.3900000000001</ele>
        <time>2019-02-03T14:13:54Z</time>
      </trkpt>
      <trkpt lat="45.845782393589616" lon="7.931218296289444">
        <ele>1412.3099999999999</ele>
        <time>2019-02-03T14:14:01Z</time>
      </trkpt>
      <trkpt lat="45.84573713131249" lon="7.931241514161229">
        <ele>1413.76</ele>
        <time>2019-02-03T14:14:26Z</time>
      </trkpt>
      <trkpt lat="45.845775185152888" lon="7.931255344301462">
        <ele>1414.24</ele>
        <time>2019-02-03T14:14:49Z</time>
      </trkpt>
      <trkpt lat="45.845780214294791" lon="7.931223828345537">
        <ele>1414.24</ele>
        <time>2019-02-03T14:15:04Z</time>
      </trkpt>
      <trkpt lat="45.845754481852055" lon="7.931248219683766">
        <ele>1416.6400000000001</ele>
        <time>2019-02-03T14:15:19Z</time>
      </trkpt>
      <trkpt lat="45.845759343355894" lon="7.93123371899128">
        <ele>1417.5999999999999</ele>
        <time>2019-02-03T14:15:31Z</time>
      </trkpt>
      <trkpt lat="45.845752470195293" lon="7.931206980720162">
        <ele>1417.1199999999999</ele>
        <time>2019-02-03T14:15:44Z</time>
      </trkpt>
      <trkpt lat="45.845759091898799" lon="7.93122349306941">
        <ele>1418.0799999999999</ele>
        <time>2019-02-03T14:15:57Z</time>
      </trkpt>
      <trkpt lat="45.845754062756896" lon="7.931203292682767">
        <ele>1420.97</ele>
        <time>2019-02-03T14:16:12Z</time>
      </trkpt>
      <trkpt lat="45.845761522650719" lon="7.931206645444036">
        <ele>1418.5599999999999</ele>
        <time>2019-02-03T14:16:19Z</time>
      </trkpt>
      <trkpt lat="45.845777112990618" lon="7.931208238005638">
        <ele>1420.49</ele>
        <time>2019-02-03T14:16:29Z</time>
      </trkpt>
      <trkpt lat="45.845759259536862" lon="7.931249141693115">
        <ele>1420.97</ele>
        <time>2019-02-03T14:16:57Z</time>
      </trkpt>
      <trkpt lat="45.845722127705812" lon="7.931115282699466">
        <ele>1421.45</ele>
        <time>2019-02-03T14:17:19Z</time>
      </trkpt>
      <trkpt lat="45.845746016129851" lon="7.931143445894122">
        <ele>1423.3699999999999</ele>
        <time>2019-02-03T14:17:41Z</time>
      </trkpt>
      <trkpt lat="45.845754817128181" lon="7.931176722049713">
        <ele>1423.3699999999999</ele>
        <time>2019-02-03T14:17:58Z</time>
      </trkpt>
      <trkpt lat="45.845785243436694" lon="7.931244615465403">
        <ele>1422.8900000000001</ele>
        <time>2019-02-03T14:18:10Z</time>
      </trkpt>
      <trkpt lat="45.845776107162237" lon="7.931248806416988">
        <ele>1423.3699999999999</ele>
        <time>2019-02-03T14:18:24Z</time>
      </trkpt>
      <trkpt lat="45.845763450488448" lon="7.931257104501128">
        <ele>1424.8099999999999</ele>
        <time>2019-02-03T14:18:39Z</time>
      </trkpt>
      <trkpt lat="45.845779040828347" lon="7.931289961561561">
        <ele>1424.8099999999999</ele>
        <time>2019-02-03T14:18:52Z</time>
      </trkpt>
      <trkpt lat="45.845801588147879" lon="7.931332122534514">
        <ele>1425.29</ele>
        <time>2019-02-03T14:19:11Z</time>
      </trkpt>
      <trkpt lat="45.845772167667747" lon="7.931207902729511">
        <ele>1424.3299999999999</ele>
        <time>2019-02-03T14:19:31Z</time>
      </trkpt>
      <trkpt lat="45.845819860696793" lon="7.931280070915818">
        <ele>1425.77</ele>
        <time>2019-02-03T14:19:48Z</time>
      </trkpt>
      <trkpt lat="45.845817932859063" lon="7.931285770609975">
        <ele>1425.29</ele>
        <time>2019-02-03T14:20:00Z</time>
      </trkpt>
      <trkpt lat="45.845764623954892" lon="7.931305132806301">
        <ele>1426.73</ele>
        <time>2019-02-03T14:20:18Z</time>
      </trkpt>
      <trkpt lat="45.845787758007646" lon="7.931289291009307">
        <ele>1424.3299999999999</ele>
        <time>2019-02-03T14:20:36Z</time>
      </trkpt>
      <trkpt lat="45.845806282013655" lon="7.931350059807301">
        <ele>1423.3699999999999</ele>
        <time>2019-02-03T14:20:50Z</time>
      </trkpt>
      <trkpt lat="45.84583486430347" lon="7.9314208868891">
        <ele>1423.8499999999999</ele>
        <time>2019-02-03T14:21:00Z</time>
      </trkpt>
      <trkpt lat="45.845783315598965" lon="7.931457767263055">
        <ele>1421.9300000000001</ele>
        <time>2019-02-03T14:21:09Z</time>
      </trkpt>
      <trkpt lat="45.845769485458732" lon="7.931525744497776">
        <ele>1419.52</ele>
        <time>2019-02-03T14:21:19Z</time>
      </trkpt>
      <trkpt lat="45.845796223729849" lon="7.931553656235337">
        <ele>1417.1199999999999</ele>
        <time>2019-02-03T14:21:30Z</time>
      </trkpt>
      <trkpt lat="45.845826733857393" lon="7.931572766974568">
        <ele>1415.2</ele>
        <time>2019-02-03T14:21:38Z</time>
      </trkpt>
      <trkpt lat="45.845769653096795" lon="7.931599924340844">
        <ele>1412.3099999999999</ele>
        <time>2019-02-03T14:21:44Z</time>
      </trkpt>
      <trkpt lat="45.845756242051721" lon="7.931630099192262">
        <ele>1408.95</ele>
        <time>2019-02-03T14:21:48Z</time>
      </trkpt>
      <trkpt lat="45.845727240666747" lon="7.931647030636668">
        <ele>1406.0699999999999</ele>
        <time>2019-02-03T14:21:54Z</time>
      </trkpt>
      <trkpt lat="45.845685917884111" lon="7.931662704795599">
        <ele>1402.7</ele>
        <time>2019-02-03T14:22:00Z</time>
      </trkpt>
      <trkpt lat="45.845736209303141" lon="7.931702435016632">
        <ele>1402.22</ele>
        <time>2019-02-03T14:22:09Z</time>
      </trkpt>
      <trkpt lat="45.845798319205642" lon="7.931724395602942">
        <ele>1402.7</ele>
        <time>2019-02-03T14:22:17Z</time>
      </trkpt>
      <trkpt lat="45.845794714987278" lon="7.931846100836992">
        <ele>1402.7</ele>
        <time>2019-02-03T14:22:29Z</time>
      </trkpt>
      <trkpt lat="45.845731599256396" lon="7.931869318708777">
        <ele>1400.3</ele>
        <time>2019-02-03T14:22:36Z</time>
      </trkpt>
      <trkpt lat="45.845745261758566" lon="7.931907121092081">
        <ele>1401.26</ele>
        <time>2019-02-03T14:22:46Z</time>
      </trkpt>
      <trkpt lat="45.845826985314488" lon="7.931969733908773">
        <ele>1400.78</ele>
        <time>2019-02-03T14:22:57Z</time>
      </trkpt>
      <trkpt lat="45.845795134082437" lon="7.932010889053345">
        <ele>1399.3399999999999</ele>
        <time>2019-02-03T14:23:07Z</time>
      </trkpt>
      <trkpt lat="45.845821788534522" lon="7.932013319805265">
        <ele>1397.8900000000001</ele>
        <time>2019-02-03T14:23:16Z</time>
      </trkpt>
      <trkpt lat="45.845849867910147" lon="7.932058079168201">
        <ele>1395.01</ele>
        <time>2019-02-03T14:23:25Z</time>
      </trkpt>
      <trkpt lat="45.845821034163237" lon="7.932100407779217">
        <ele>1391.6500000000001</ele>
        <time>2019-02-03T14:23:31Z</time>
      </trkpt>
      <trkpt lat="45.84585539996624" lon="7.932171151041985">
        <ele>1391.1700000000001</ele>
        <time>2019-02-03T14:23:42Z</time>
      </trkpt>
      <trkpt lat="45.845919772982597" lon="7.932216413319111">
        <ele>1391.1700000000001</ele>
        <time>2019-02-03T14:23:54Z</time>
      </trkpt>
      <trkpt lat="45.845948858186603" lon="7.932302076369524">
        <ele>1391.1700000000001</ele>
        <time>2019-02-03T14:24:04Z</time>
      </trkpt>
      <trkpt lat="45.845959419384599" lon="7.932300064712763">
        <ele>1391.1700000000001</ele>
        <time>2019-02-03T14:24:09Z</time>
      </trkpt>
      <trkpt lat="45.846015578135848" lon="7.932389583438635">
        <ele>1390.2</ele>
        <time>2019-02-03T14:24:20Z</time>
      </trkpt>
      <trkpt lat="45.846002334728837" lon="7.932499134913087">
        <ele>1389.72</ele>
        <time>2019-02-03T14:24:30Z</time>
      </trkpt>
      <trkpt lat="45.84605329670012" lon="7.93253936804831">
        <ele>1387.8</ele>
        <time>2019-02-03T14:24:39Z</time>
      </trkpt>
      <trkpt lat="45.846094703301787" lon="7.932531572878361">
        <ele>1387.8</ele>
        <time>2019-02-03T14:24:49Z</time>
      </trkpt>
      <trkpt lat="45.846113311126828" lon="7.932535512372851">
        <ele>1387.3199999999999</ele>
        <time>2019-02-03T14:25:00Z</time>
      </trkpt>
      <trkpt lat="45.846148263663054" lon="7.932621594518423">
        <ele>1388.28</ele>
        <time>2019-02-03T14:25:11Z</time>
      </trkpt>
      <trkpt lat="45.846167039126158" lon="7.932677417993546">
        <ele>1384.9200000000001</ele>
        <time>2019-02-03T14:25:20Z</time>
      </trkpt>
      <trkpt lat="45.846182378008962" lon="7.932688314467669">
        <ele>1382.99</ele>
        <time>2019-02-03T14:25:24Z</time>
      </trkpt>
      <trkpt lat="45.846232250332832" lon="7.932704742997885">
        <ele>1381.0699999999999</ele>
        <time>2019-02-03T14:25:36Z</time>
      </trkpt>
      <trkpt lat="45.846243817359209" lon="7.932706419378519">
        <ele>1379.6300000000001</ele>
        <time>2019-02-03T14:25:39Z</time>
      </trkpt>
      <trkpt lat="45.846255300566554" lon="7.932751178741455">
        <ele>1376.26</ele>
        <time>2019-02-03T14:25:45Z</time>
      </trkpt>
      <trkpt lat="45.846287403255701" lon="7.932772636413574">
        <ele>1373.8599999999999</ele>
        <time>2019-02-03T14:25:53Z</time>
      </trkpt>
      <trkpt lat="45.846348004415631" lon="7.932837009429932">
        <ele>1372.9000000000001</ele>
        <time>2019-02-03T14:26:02Z</time>
      </trkpt>
      <trkpt lat="45.846386477351189" lon="7.932915966957808">
        <ele>1371.9400000000001</ele>
        <time>2019-02-03T14:26:11Z</time>
      </trkpt>
      <trkpt lat="45.846367366611958" lon="7.93295469135046">
        <ele>1370.02</ele>
        <time>2019-02-03T14:26:25Z</time>
      </trkpt>
      <trkpt lat="45.846326043829322" lon="7.932986039668322">
        <ele>1367.1300000000001</ele>
        <time>2019-02-03T14:26:34Z</time>
      </trkpt>
      <trkpt lat="45.846340544521809" lon="7.933060890063644">
        <ele>1366.6500000000001</ele>
        <time>2019-02-03T14:26:43Z</time>
      </trkpt>
      <trkpt lat="45.846387315541506" lon="7.933060806244612">
        <ele>1363.29</ele>
        <time>2019-02-03T14:26:53Z</time>
      </trkpt>
      <trkpt lat="45.846385052427649" lon="7.93307488784194">
        <ele>1362.8099999999999</ele>
        <time>2019-02-03T14:26:54Z</time>
      </trkpt>
      <trkpt lat="45.846425285562873" lon="7.933097938075662">
        <ele>1359.9200000000001</ele>
        <time>2019-02-03T14:27:04Z</time>
      </trkpt>
      <trkpt lat="45.846441043540835" lon="7.933029793202877">
        <ele>1359.4400000000001</ele>
        <time>2019-02-03T14:27:16Z</time>
      </trkpt>
      <trkpt lat="45.846500219777226" lon="7.93295469135046">
        <ele>1357.52</ele>
        <time>2019-02-03T14:27:30Z</time>
      </trkpt>
      <trkpt lat="45.846515223383904" lon="7.932994086295366">
        <ele>1356.5599999999999</ele>
        <time>2019-02-03T14:27:41Z</time>
      </trkpt>
      <trkpt lat="45.846536764875054" lon="7.93298302218318">
        <ele>1355.1199999999999</ele>
        <time>2019-02-03T14:27:45Z</time>
      </trkpt>
      <trkpt lat="45.846605245023966" lon="7.93296835385263">
        <ele>1353.1900000000001</ele>
        <time>2019-02-03T14:27:54Z</time>
      </trkpt>
      <trkpt lat="45.846641454845667" lon="7.933046389371157">
        <ele>1350.79</ele>
        <time>2019-02-03T14:28:01Z</time>
      </trkpt>
      <trkpt lat="45.846656877547503" lon="7.933054016903043">
        <ele>1349.3499999999999</ele>
        <time>2019-02-03T14:28:04Z</time>
      </trkpt>
      <trkpt lat="45.846697026863694" lon="7.933138003572822">
        <ele>1346.9400000000001</ele>
        <time>2019-02-03T14:28:14Z</time>
      </trkpt>
      <trkpt lat="45.846692835912108" lon="7.933184104040265">
        <ele>1345.98</ele>
        <time>2019-02-03T14:28:23Z</time>
      </trkpt>
      <trkpt lat="45.846692332997918" lon="7.933171866461635">
        <ele>1344.54</ele>
        <time>2019-02-03T14:28:38Z</time>
      </trkpt>
      <trkpt lat="45.846717981621623" lon="7.93318435549736">
        <ele>1341.1800000000001</ele>
        <time>2019-02-03T14:28:48Z</time>
      </trkpt>
      <trkpt lat="45.846727536991239" lon="7.9332185536623">
        <ele>1339.25</ele>
        <time>2019-02-03T14:28:52Z</time>
      </trkpt>
      <trkpt lat="45.846737008541822" lon="7.933228444308043">
        <ele>1335.4100000000001</ele>
        <time>2019-02-03T14:28:57Z</time>
      </trkpt>
      <trkpt lat="45.84683264605701" lon="7.933293571695685">
        <ele>1319.0699999999999</ele>
        <time>2019-02-03T14:29:28Z</time>
      </trkpt>
      <trkpt lat="45.84683557972312" lon="7.933294074609876">
        <ele>1319.55</ele>
        <time>2019-02-03T14:29:29Z</time>
      </trkpt>
      <trkpt lat="45.846779588609934" lon="7.933281250298023">
        <ele>1319.55</ele>
        <time>2019-02-03T14:29:36Z</time>
      </trkpt>
      <trkpt lat="45.846774056553841" lon="7.933334559202194">
        <ele>1319.55</ele>
        <time>2019-02-03T14:29:49Z</time>
      </trkpt>
      <trkpt lat="45.846860557794571" lon="7.93345358222723">
        <ele>1317.6199999999999</ele>
        <time>2019-02-03T14:30:01Z</time>
      </trkpt>
      <trkpt lat="45.846958374604583" lon="7.933544022962451">
        <ele>1316.1800000000001</ele>
        <time>2019-02-03T14:30:12Z</time>
      </trkpt>
      <trkpt lat="45.847020819783211" lon="7.933610491454601">
        <ele>1312.8199999999999</ele>
        <time>2019-02-03T14:30:21Z</time>
      </trkpt>
      <trkpt lat="45.847098268568516" lon="7.933635050430894">
        <ele>1311.3800000000001</ele>
        <time>2019-02-03T14:30:32Z</time>
      </trkpt>
      <trkpt lat="45.847122659906745" lon="7.933629099279642">
        <ele>1310.4100000000001</ele>
        <time>2019-02-03T14:30:38Z</time>
      </trkpt>
      <trkpt lat="45.847213687375188" lon="7.933625411242247">
        <ele>1307.05</ele>
        <time>2019-02-03T14:30:47Z</time>
      </trkpt>
      <trkpt lat="45.847281413152814" lon="7.933621471747756">
        <ele>1304.1700000000001</ele>
        <time>2019-02-03T14:30:54Z</time>
      </trkpt>
      <trkpt lat="45.847385097295046" lon="7.933645946905017">
        <ele>1304.6500000000001</ele>
        <time>2019-02-03T14:31:04Z</time>
      </trkpt>
      <trkpt lat="45.847467910498381" lon="7.933705374598503">
        <ele>1304.1700000000001</ele>
        <time>2019-02-03T14:31:15Z</time>
      </trkpt>
      <trkpt lat="45.847505545243621" lon="7.93369741179049">
        <ele>1305.1300000000001</ele>
        <time>2019-02-03T14:31:18Z</time>
      </trkpt>
      <trkpt lat="45.847594058141112" lon="7.933620046824217">
        <ele>1307.05</ele>
        <time>2019-02-03T14:31:29Z</time>
      </trkpt>
      <trkpt lat="45.847674105316401" lon="7.933612335473299">
        <ele>1306.0899999999999</ele>
        <time>2019-02-03T14:31:41Z</time>
      </trkpt>
      <trkpt lat="45.847762199118733" lon="7.933609401807189">
        <ele>1306.0899999999999</ele>
        <time>2019-02-03T14:31:53Z</time>
      </trkpt>
      <trkpt lat="45.84788030013442" lon="7.933566486462951">
        <ele>1306.0899999999999</ele>
        <time>2019-02-03T14:32:04Z</time>
      </trkpt>
      <trkpt lat="45.847967555746436" lon="7.933501023799181">
        <ele>1304.6500000000001</ele>
        <time>2019-02-03T14:32:16Z</time>
      </trkpt>
      <trkpt lat="45.848039640113711" lon="7.933495072647929">
        <ele>1303.6900000000001</ele>
        <time>2019-02-03T14:32:27Z</time>
      </trkpt>
      <trkpt lat="45.848113233223557" lon="7.933512758463621">
        <ele>1306.0899999999999</ele>
        <time>2019-02-03T14:32:39Z</time>
      </trkpt>
      <trkpt lat="45.848204931244254" lon="7.93360797688365">
        <ele>1308.97</ele>
        <time>2019-02-03T14:32:55Z</time>
      </trkpt>
      <trkpt lat="45.848192945122719" lon="7.93362021446228">
        <ele>1311.8599999999999</ele>
        <time>2019-02-03T14:33:04Z</time>
      </trkpt>
      <trkpt lat="45.848152628168464" lon="7.933661704882979">
        <ele>1311.8599999999999</ele>
        <time>2019-02-03T14:33:20Z</time>
      </trkpt>
      <trkpt lat="45.848172577098012" lon="7.933655921369791">
        <ele>1313.3</ele>
        <time>2019-02-03T14:33:34Z</time>
      </trkpt>
      <trkpt lat="45.84820719435811" lon="7.93362457305193">
        <ele>1313.3</ele>
        <time>2019-02-03T14:33:46Z</time>
      </trkpt>
      <trkpt lat="45.848236950114369" lon="7.933665728196502">
        <ele>1312.8199999999999</ele>
        <time>2019-02-03T14:33:58Z</time>
      </trkpt>
      <trkpt lat="45.848224041983485" lon="7.933648712933064">
        <ele>1308.97</ele>
        <time>2019-02-03T14:34:01Z</time>
      </trkpt>
      <trkpt lat="45.848220102488995" lon="7.933652987703681">
        <ele>1308.97</ele>
        <time>2019-02-03T14:34:02Z</time>
      </trkpt>
      <trkpt lat="45.848187664523721" lon="7.933645527809858">
        <ele>1305.6099999999999</ele>
        <time>2019-02-03T14:34:11Z</time>
      </trkpt>
      <trkpt lat="45.848152963444591" lon="7.933648964390159">
        <ele>1302.72</ele>
        <time>2019-02-03T14:34:16Z</time>
      </trkpt>
      <trkpt lat="45.84812605753541" lon="7.933699171990156">
        <ele>1300.8</ele>
        <time>2019-02-03T14:34:26Z</time>
      </trkpt>
      <trkpt lat="45.848118513822556" lon="7.933709984645248">
        <ele>1299.8399999999999</ele>
        <time>2019-02-03T14:34:37Z</time>
      </trkpt>
      <trkpt lat="45.848170397803187" lon="7.933730604127049">
        <ele>1300.3199999999999</ele>
        <time>2019-02-03T14:34:48Z</time>
      </trkpt>
      <trkpt lat="45.84821498952806" lon="7.933725910261273">
        <ele>1300.8</ele>
        <time>2019-02-03T14:34:59Z</time>
      </trkpt>
      <trkpt lat="45.848260503262281" lon="7.933673355728388">
        <ele>1302.24</ele>
        <time>2019-02-03T14:35:11Z</time>
      </trkpt>
      <trkpt lat="45.84827022626996" lon="7.933624237775803">
        <ele>1303.2</ele>
        <time>2019-02-03T14:35:23Z</time>
      </trkpt>
      <trkpt lat="45.848336694762111" lon="7.933567157015204">
        <ele>1305.6099999999999</ele>
        <time>2019-02-03T14:35:39Z</time>
      </trkpt>
      <trkpt lat="45.848340885713696" lon="7.933544358238578">
        <ele>1307.05</ele>
        <time>2019-02-03T14:35:52Z</time>
      </trkpt>
      <trkpt lat="45.848373742774129" lon="7.933515943586826">
        <ele>1310.4100000000001</ele>
        <time>2019-02-03T14:36:05Z</time>
      </trkpt>
      <trkpt lat="45.848381286486983" lon="7.933553159236908">
        <ele>1311.8599999999999</ele>
        <time>2019-02-03T14:36:17Z</time>
      </trkpt>
      <trkpt lat="45.848480695858598" lon="7.933609234169126">
        <ele>1312.8199999999999</ele>
        <time>2019-02-03T14:36:32Z</time>
      </trkpt>
      <trkpt lat="45.848500980064273" lon="7.933605127036572">
        <ele>1314.74</ele>
        <time>2019-02-03T14:36:44Z</time>
      </trkpt>
      <trkpt lat="45.84851355291903" lon="7.933641504496336">
        <ele>1316.1800000000001</ele>
        <time>2019-02-03T14:36:56Z</time>
      </trkpt>
      <trkpt lat="45.848500141873956" lon="7.933724569156766">
        <ele>1313.3</ele>
        <time>2019-02-03T14:37:05Z</time>
      </trkpt>
      <trkpt lat="45.848442390561104" lon="7.933762455359101">
        <ele>1312.8199999999999</ele>
        <time>2019-02-03T14:37:16Z</time>
      </trkpt>
      <trkpt lat="45.848444821313024" lon="7.933815345168114">
        <ele>1313.3</ele>
        <time>2019-02-03T14:37:30Z</time>
      </trkpt>
      <trkpt lat="45.848470805212855" lon="7.933817943558097">
        <ele>1315.22</ele>
        <time>2019-02-03T14:37:38Z</time>
      </trkpt>
      <trkpt lat="45.848487820476294" lon="7.933824146166444">
        <ele>1315.7</ele>
        <time>2019-02-03T14:37:49Z</time>
      </trkpt>
      <trkpt lat="45.848516654223204" lon="7.933843843638897">
        <ele>1312.3399999999999</ele>
        <time>2019-02-03T14:37:57Z</time>
      </trkpt>
      <trkpt lat="45.848522018641233" lon="7.933855159208179">
        <ele>1308.97</ele>
        <time>2019-02-03T14:38:02Z</time>
      </trkpt>
      <trkpt lat="45.84853702224791" lon="7.933886926621199">
        <ele>1305.1300000000001</ele>
        <time>2019-02-03T14:38:07Z</time>
      </trkpt>
      <trkpt lat="45.848553786054254" lon="7.933911234140396">
        <ele>1301.76</ele>
        <time>2019-02-03T14:38:17Z</time>
      </trkpt>
      <trkpt lat="45.8485824521631" lon="7.933937888592482">
        <ele>1299.8399999999999</ele>
        <time>2019-02-03T14:38:29Z</time>
      </trkpt>
      <trkpt lat="45.84861715324223" lon="7.93399253860116">
        <ele>1297.9200000000001</ele>
        <time>2019-02-03T14:38:41Z</time>
      </trkpt>
      <trkpt lat="45.848627211526036" lon="7.93398667126894">
        <ele>1294.0699999999999</ele>
        <time>2019-02-03T14:38:45Z</time>
      </trkpt>
      <trkpt lat="45.848626038059592" lon="7.933987760916352">
        <ele>1292.1500000000001</ele>
        <time>2019-02-03T14:38:47Z</time>
      </trkpt>
      <trkpt lat="45.848579434677958" lon="7.93399547226727">
        <ele>1291.6700000000001</ele>
        <time>2019-02-03T14:38:58Z</time>
      </trkpt>
      <trkpt lat="45.848522102460265" lon="7.933992957696319">
        <ele>1288.3</ele>
        <time>2019-02-03T14:39:04Z</time>
      </trkpt>
      <trkpt lat="45.848497543483973" lon="7.933990946039558">
        <ele>1285.4200000000001</ele>
        <time>2019-02-03T14:39:07Z</time>
      </trkpt>
      <trkpt lat="45.848460914567113" lon="7.933975858613849">
        <ele>1281.0899999999999</ele>
        <time>2019-02-03T14:39:19Z</time>
      </trkpt>
      <trkpt lat="45.848475582897663" lon="7.933976948261261">
        <ele>1279.1700000000001</ele>
        <time>2019-02-03T14:39:22Z</time>
      </trkpt>
      <trkpt lat="45.848540123552084" lon="7.934018773958087">
        <ele>1275.8099999999999</ele>
        <time>2019-02-03T14:39:31Z</time>
      </trkpt>
      <trkpt lat="45.848571555688977" lon="7.934047104790807">
        <ele>1271.96</ele>
        <time>2019-02-03T14:39:37Z</time>
      </trkpt>
      <trkpt lat="45.848578093573451" lon="7.934052972123027">
        <ele>1271.48</ele>
        <time>2019-02-03T14:39:39Z</time>
      </trkpt>
      <trkpt lat="45.848588487133384" lon="7.934071412310004">
        <ele>1268.1199999999999</ele>
        <time>2019-02-03T14:39:42Z</time>
      </trkpt>
      <trkpt lat="45.848586894571781" lon="7.934063449501991">
        <ele>1264.75</ele>
        <time>2019-02-03T14:39:45Z</time>
      </trkpt>
      <trkpt lat="45.848585050553083" lon="7.934059510007501">
        <ele>1264.27</ele>
        <time>2019-02-03T14:39:46Z</time>
      </trkpt>
      <trkpt lat="45.848598880693316" lon="7.934035956859589">
        <ele>1261.3900000000001</ele>
        <time>2019-02-03T14:39:53Z</time>
      </trkpt>
      <trkpt lat="45.848611369729042" lon="7.934026652947068">
        <ele>1259.9400000000001</ele>
        <time>2019-02-03T14:39:56Z</time>
      </trkpt>
      <trkpt lat="45.8486532792449" lon="7.934026820585132">
        <ele>1256.5799999999999</ele>
        <time>2019-02-03T14:40:04Z</time>
      </trkpt>
      <trkpt lat="45.848668199032545" lon="7.934041488915682">
        <ele>1253.22</ele>
        <time>2019-02-03T14:40:07Z</time>
      </trkpt>
      <trkpt lat="45.848667277023196" lon="7.934042830020189">
        <ele>1248.8900000000001</ele>
        <time>2019-02-03T14:40:10Z</time>
      </trkpt>
      <trkpt lat="45.848652189597487" lon="7.934063114225864">
        <ele>1246.01</ele>
        <time>2019-02-03T14:40:13Z</time>
      </trkpt>
      <trkpt lat="45.848648333922029" lon="7.934077363461256">
        <ele>1244.0799999999999</ele>
        <time>2019-02-03T14:40:17Z</time>
      </trkpt>
      <trkpt lat="45.848620506003499" lon="7.934050038456917">
        <ele>1240.24</ele>
        <time>2019-02-03T14:40:21Z</time>
      </trkpt>
      <trkpt lat="45.848599215969443" lon="7.934033861383796">
        <ele>1237.3499999999999</ele>
        <time>2019-02-03T14:40:25Z</time>
      </trkpt>
      <trkpt lat="45.848592845723033" lon="7.934032185003161">
        <ele>1236.3900000000001</ele>
        <time>2019-02-03T14:40:27Z</time>
      </trkpt>
      <trkpt lat="45.848586475476623" lon="7.934031346812844">
        <ele>1233.51</ele>
        <time>2019-02-03T14:40:32Z</time>
      </trkpt>
      <trkpt lat="45.848546158522367" lon="7.934062527492642">
        <ele>1231.5899999999999</ele>
        <time>2019-02-03T14:40:40Z</time>
      </trkpt>
      <trkpt lat="45.848604999482632" lon="7.934073759242892">
        <ele>1231.1099999999999</ele>
        <time>2019-02-03T14:40:48Z</time>
      </trkpt>
      <trkpt lat="45.848613632842898" lon="7.934077112004161">
        <ele>1231.1099999999999</ele>
        <time>2019-02-03T14:40:49Z</time>
      </trkpt>
      <trkpt lat="45.848698122426867" lon="7.934083063155413">
        <ele>1232.55</ele>
        <time>2019-02-03T14:41:02Z</time>
      </trkpt>
      <trkpt lat="45.848764590919018" lon="7.934077950194478">
        <ele>1233.99</ele>
        <time>2019-02-03T14:41:14Z</time>
      </trkpt>
      <trkpt lat="45.848827706649899" lon="7.934060599654913">
        <ele>1233.99</ele>
        <time>2019-02-03T14:41:24Z</time>
      </trkpt>
      <trkpt lat="45.848932145163417" lon="7.934074429795146">
        <ele>1234.47</ele>
        <time>2019-02-03T14:41:35Z</time>
      </trkpt>
      <trkpt lat="45.84906717762351" lon="7.934082141146064">
        <ele>1233.51</ele>
        <time>2019-02-03T14:41:45Z</time>
      </trkpt>
      <trkpt lat="45.849100789055228" lon="7.934102676808834">
        <ele>1233.03</ele>
        <time>2019-02-03T14:41:49Z</time>
      </trkpt>
      <trkpt lat="45.849213358014822" lon="7.934143831953406">
        <ele>1233.03</ele>
        <time>2019-02-03T14:41:59Z</time>
      </trkpt>
      <trkpt lat="45.849235067144036" lon="7.934156320989132">
        <ele>1233.03</ele>
        <time>2019-02-03T14:42:01Z</time>
      </trkpt>
      <trkpt lat="45.849277731031179" lon="7.934174258261919">
        <ele>1233.51</ele>
        <time>2019-02-03T14:42:05Z</time>
      </trkpt>
      <trkpt lat="45.849388455972075" lon="7.934245001524687">
        <ele>1233.03</ele>
        <time>2019-02-03T14:42:16Z</time>
      </trkpt>
      <trkpt lat="45.849483674392104" lon="7.934228405356407">
        <ele>1234.47</ele>
        <time>2019-02-03T14:42:27Z</time>
      </trkpt>
      <trkpt lat="45.8495875261724" lon="7.934235027059913">
        <ele>1235.4300000000001</ele>
        <time>2019-02-03T14:42:37Z</time>
      </trkpt>
      <trkpt lat="45.849714763462543" lon="7.934236619621515">
        <ele>1233.99</ele>
        <time>2019-02-03T14:42:48Z</time>
      </trkpt>
      <trkpt lat="45.849724654108286" lon="7.934240894392133">
        <ele>1233.99</ele>
        <time>2019-02-03T14:42:49Z</time>
      </trkpt>
      <trkpt lat="45.849833786487579" lon="7.934281462803483">
        <ele>1233.03</ele>
        <time>2019-02-03T14:42:59Z</time>
      </trkpt>
      <trkpt lat="45.849940655753016" lon="7.934282133355737">
        <ele>1233.51</ele>
        <time>2019-02-03T14:43:10Z</time>
      </trkpt>
      <trkpt lat="45.850005950778723" lon="7.934271907433868">
        <ele>1231.5899999999999</ele>
        <time>2019-02-03T14:43:21Z</time>
      </trkpt>
      <trkpt lat="45.850094966590405" lon="7.934299232438207">
        <ele>1230.1400000000001</ele>
        <time>2019-02-03T14:43:33Z</time>
      </trkpt>
      <trkpt lat="45.850129835307598" lon="7.934314906597138">
        <ele>1229.1800000000001</ele>
        <time>2019-02-03T14:43:37Z</time>
      </trkpt>
      <trkpt lat="45.850242907181382" lon="7.934305686503649">
        <ele>1226.78</ele>
        <time>2019-02-03T14:43:50Z</time>
      </trkpt>
      <trkpt lat="45.850255899131298" lon="7.934297975152731">
        <ele>1224.8599999999999</ele>
        <time>2019-02-03T14:43:56Z</time>
      </trkpt>
      <trkpt lat="45.850317170843482" lon="7.934358743950725">
        <ele>1225.8199999999999</ele>
        <time>2019-02-03T14:44:08Z</time>
      </trkpt>
      <trkpt lat="45.850374083966017" lon="7.934382129460573">
        <ele>1222.9300000000001</ele>
        <time>2019-02-03T14:44:20Z</time>
      </trkpt>
      <trkpt lat="45.850386321544647" lon="7.93438732624054">
        <ele>1221.97</ele>
        <time>2019-02-03T14:44:22Z</time>
      </trkpt>
      <trkpt lat="45.850396044552326" lon="7.93438296765089">
        <ele>1220.53</ele>
        <time>2019-02-03T14:44:26Z</time>
      </trkpt>
      <trkpt lat="45.850412053987384" lon="7.93439663015306">
        <ele>1218.1300000000001</ele>
        <time>2019-02-03T14:44:30Z</time>
      </trkpt>
      <trkpt lat="45.850431248545647" lon="7.934397384524345">
        <ele>1216.6900000000001</ele>
        <time>2019-02-03T14:44:33Z</time>
      </trkpt>
      <trkpt lat="45.850478606298566" lon="7.934418842196465">
        <ele>1213.8</ele>
        <time>2019-02-03T14:44:42Z</time>
      </trkpt>
      <trkpt lat="45.850534932687879" lon="7.934467373415828">
        <ele>1209.96</ele>
        <time>2019-02-03T14:44:52Z</time>
      </trkpt>
      <trkpt lat="45.850566197186708" lon="7.934530070051551">
        <ele>1207.55</ele>
        <time>2019-02-03T14:45:03Z</time>
      </trkpt>
      <trkpt lat="45.85054331459105" lon="7.93454079888761">
        <ele>1204.1900000000001</ele>
        <time>2019-02-03T14:45:07Z</time>
      </trkpt>
      <trkpt lat="45.850536022335291" lon="7.934548845514655">
        <ele>1203.71</ele>
        <time>2019-02-03T14:45:08Z</time>
      </trkpt>
      <trkpt lat="45.850504254922271" lon="7.934585474431515">
        <ele>1199.8599999999999</ele>
        <time>2019-02-03T14:45:13Z</time>
      </trkpt>
      <trkpt lat="45.850516073405743" lon="7.934574577957392">
        <ele>1201.3</ele>
        <time>2019-02-03T14:45:23Z</time>
      </trkpt>
      <trkpt lat="45.850515570491552" lon="7.934579774737358">
        <ele>1201.79</ele>
        <time>2019-02-03T14:45:25Z</time>
      </trkpt>
      <trkpt lat="45.850503668189049" lon="7.934552114456892">
        <ele>1204.6700000000001</ele>
        <time>2019-02-03T14:45:37Z</time>
      </trkpt>
      <trkpt lat="45.850493609905243" lon="7.93455932289362">
        <ele>1208.51</ele>
        <time>2019-02-03T14:45:42Z</time>
      </trkpt>
      <trkpt lat="45.850490340963006" lon="7.934551946818829">
        <ele>1209</ele>
        <time>2019-02-03T14:45:44Z</time>
      </trkpt>
      <trkpt lat="45.850486317649484" lon="7.934545408934355">
        <ele>1212.8399999999999</ele>
        <time>2019-02-03T14:45:54Z</time>
      </trkpt>
      <trkpt lat="45.85048514418304" lon="7.934550270438194">
        <ele>1213.3199999999999</ele>
        <time>2019-02-03T14:45:55Z</time>
      </trkpt>
      <trkpt lat="45.850493693724275" lon="7.934537110850215">
        <ele>1215.24</ele>
        <time>2019-02-03T14:46:05Z</time>
      </trkpt>
      <trkpt lat="45.850542644038796" lon="7.934613302350044">
        <ele>1213.8</ele>
        <time>2019-02-03T14:46:16Z</time>
      </trkpt>
      <trkpt lat="45.850616153329611" lon="7.934706760570407">
        <ele>1209.96</ele>
        <time>2019-02-03T14:46:26Z</time>
      </trkpt>
      <trkpt lat="45.850645825266838" lon="7.934734672307968">
        <ele>1207.0699999999999</ele>
        <time>2019-02-03T14:46:29Z</time>
      </trkpt>
      <trkpt lat="45.850685220211744" lon="7.93476702645421">
        <ele>1202.75</ele>
        <time>2019-02-03T14:46:33Z</time>
      </trkpt>
      <trkpt lat="45.850690752267838" lon="7.934782365337014">
        <ele>1202.75</ele>
        <time>2019-02-03T14:46:34Z</time>
      </trkpt>
      <trkpt lat="45.850756214931607" lon="7.934892168268561">
        <ele>1200.3399999999999</ele>
        <time>2019-02-03T14:46:45Z</time>
      </trkpt>
      <trkpt lat="45.850796783342957" lon="7.934965174645186">
        <ele>1200.3399999999999</ele>
        <time>2019-02-03T14:46:53Z</time>
      </trkpt>
      <trkpt lat="45.850815810263157" lon="7.935128621757031">
        <ele>1198.9000000000001</ele>
        <time>2019-02-03T14:47:05Z</time>
      </trkpt>
      <trkpt lat="45.850846404209733" lon="7.935211267322302">
        <ele>1197.46</ele>
        <time>2019-02-03T14:47:15Z</time>
      </trkpt>
      <trkpt lat="45.850885966792703" lon="7.935288129374385">
        <ele>1194.5799999999999</ele>
        <time>2019-02-03T14:47:25Z</time>
      </trkpt>
      <trkpt lat="45.850916560739279" lon="7.935379827395082">
        <ele>1191.6900000000001</ele>
        <time>2019-02-03T14:47:34Z</time>
      </trkpt>
      <trkpt lat="45.850981688126922" lon="7.935497257858515">
        <ele>1190.25</ele>
        <time>2019-02-03T14:47:45Z</time>
      </trkpt>
      <trkpt lat="45.850973222404718" lon="7.935669338330627">
        <ele>1188.8099999999999</ele>
        <time>2019-02-03T14:47:59Z</time>
      </trkpt>
      <trkpt lat="45.851011527702212" lon="7.93578676879406">
        <ele>1187.8499999999999</ele>
        <time>2019-02-03T14:48:12Z</time>
      </trkpt>
      <trkpt lat="45.850991746410728" lon="7.935881232842803">
        <ele>1186.8800000000001</ele>
        <time>2019-02-03T14:48:22Z</time>
      </trkpt>
      <trkpt lat="45.851045725867152" lon="7.935958011075854">
        <ele>1185.9200000000001</ele>
        <time>2019-02-03T14:48:32Z</time>
      </trkpt>
      <trkpt lat="45.851106075569987" lon="7.936031939461827">
        <ele>1187.3699999999999</ele>
        <time>2019-02-03T14:48:43Z</time>
      </trkpt>
      <trkpt lat="45.851167850196362" lon="7.936119697988033">
        <ele>1188.3299999999999</ele>
        <time>2019-02-03T14:48:53Z</time>
      </trkpt>
      <trkpt lat="45.85123767144978" lon="7.936246180906892">
        <ele>1189.29</ele>
        <time>2019-02-03T14:49:05Z</time>
      </trkpt>
      <trkpt lat="45.851251082494855" lon="7.936257664114237">
        <ele>1189.29</ele>
        <time>2019-02-03T14:49:07Z</time>
      </trkpt>
      <trkpt lat="45.851299110800028" lon="7.936304435133934">
        <ele>1189.29</ele>
        <time>2019-02-03T14:49:12Z</time>
      </trkpt>
      <trkpt lat="45.851394915953279" lon="7.936411220580339">
        <ele>1188.8099999999999</ele>
        <time>2019-02-03T14:49:24Z</time>
      </trkpt>
      <trkpt lat="45.851426851004362" lon="7.936427481472492">
        <ele>1188.3299999999999</ele>
        <time>2019-02-03T14:49:28Z</time>
      </trkpt>
      <trkpt lat="45.851518800482154" lon="7.936494033783674">
        <ele>1189.29</ele>
        <time>2019-02-03T14:49:42Z</time>
      </trkpt>
      <trkpt lat="45.851526847109199" lon="7.93652605265379">
        <ele>1189.77</ele>
        <time>2019-02-03T14:49:47Z</time>
      </trkpt>
      <trkpt lat="45.851643439382315" lon="7.936616074293852">
        <ele>1190.25</ele>
        <time>2019-02-03T14:50:01Z</time>
      </trkpt>
      <trkpt lat="45.851711751893163" lon="7.936682207509875">
        <ele>1190.73</ele>
        <time>2019-02-03T14:50:11Z</time>
      </trkpt>
      <trkpt lat="45.851793056353927" lon="7.936731912195683">
        <ele>1191.21</ele>
        <time>2019-02-03T14:50:22Z</time>
      </trkpt>
      <trkpt lat="45.851873187348247" lon="7.936791675165296">
        <ele>1191.6900000000001</ele>
        <time>2019-02-03T14:50:33Z</time>
      </trkpt>
      <trkpt lat="45.851977374404669" lon="7.936826879158616">
        <ele>1192.1700000000001</ele>
        <time>2019-02-03T14:50:45Z</time>
      </trkpt>
      <trkpt lat="45.852064043283463" lon="7.936830902472138">
        <ele>1192.1700000000001</ele>
        <time>2019-02-03T14:50:56Z</time>
      </trkpt>
      <trkpt lat="45.852162363007665" lon="7.93682218529284">
        <ele>1191.21</ele>
        <time>2019-02-03T14:51:07Z</time>
      </trkpt>
      <trkpt lat="45.852263951674104" lon="7.936814557760954">
        <ele>1192.6500000000001</ele>
        <time>2019-02-03T14:51:19Z</time>
      </trkpt>
      <trkpt lat="45.852366713806987" lon="7.936797710135579">
        <ele>1193.1300000000001</ele>
        <time>2019-02-03T14:51:31Z</time>
      </trkpt>
      <trkpt lat="45.852458914741874" lon="7.936789747327566">
        <ele>1195.0599999999999</ele>
        <time>2019-02-03T14:51:41Z</time>
      </trkpt>
      <trkpt lat="45.852548014372587" lon="7.936729397624731">
        <ele>1196.5</ele>
        <time>2019-02-03T14:51:51Z</time>
      </trkpt>
      <trkpt lat="45.852653877809644" lon="7.936748843640089">
        <ele>1197.9400000000001</ele>
        <time>2019-02-03T14:52:03Z</time>
      </trkpt>
      <trkpt lat="45.852739121764898" lon="7.936743563041091">
        <ele>1197.9400000000001</ele>
        <time>2019-02-03T14:52:14Z</time>
      </trkpt>
      <trkpt lat="45.852852864190936" lon="7.936708694323897">
        <ele>1196.98</ele>
        <time>2019-02-03T14:52:27Z</time>
      </trkpt>
      <trkpt lat="45.852914219722152" lon="7.936623618006706">
        <ele>1197.46</ele>
        <time>2019-02-03T14:52:37Z</time>
      </trkpt>
      <trkpt lat="45.853005414828658" lon="7.936611715704203">
        <ele>1196.5</ele>
        <time>2019-02-03T14:52:47Z</time>
      </trkpt>
      <trkpt lat="45.853082863613963" lon="7.936632167547941">
        <ele>1194.0899999999999</ele>
        <time>2019-02-03T14:52:54Z</time>
      </trkpt>
      <trkpt lat="45.853137262165546" lon="7.936636190861464">
        <ele>1194.0899999999999</ele>
        <time>2019-02-03T14:53:00Z</time>
      </trkpt>
      <trkpt lat="45.853252178058028" lon="7.936678938567638">
        <ele>1193.1300000000001</ele>
        <time>2019-02-03T14:53:13Z</time>
      </trkpt>
      <trkpt lat="45.853331470862031" lon="7.936727805063129">
        <ele>1192.6500000000001</ele>
        <time>2019-02-03T14:53:24Z</time>
      </trkpt>
      <trkpt lat="45.853410679847002" lon="7.936800057068467">
        <ele>1195.0599999999999</ele>
        <time>2019-02-03T14:53:34Z</time>
      </trkpt>
      <trkpt lat="45.85343305952847" lon="7.936833752319217">
        <ele>1196.02</ele>
        <time>2019-02-03T14:53:38Z</time>
      </trkpt>
      <trkpt lat="45.853462647646666" lon="7.93691354803741">
        <ele>1198.9000000000001</ele>
        <time>2019-02-03T14:53:44Z</time>
      </trkpt>
      <trkpt lat="45.853469939902425" lon="7.936942465603352">
        <ele>1199.8599999999999</ele>
        <time>2019-02-03T14:53:46Z</time>
      </trkpt>
      <trkpt lat="45.8534867875278" lon="7.937011532485485">
        <ele>1203.71</ele>
        <time>2019-02-03T14:53:51Z</time>
      </trkpt>
      <trkpt lat="45.853508999571204" lon="7.937113456428051">
        <ele>1208.03</ele>
        <time>2019-02-03T14:53:59Z</time>
      </trkpt>
      <trkpt lat="45.853501874953508" lon="7.937115551903844">
        <ele>1209.48</ele>
        <time>2019-02-03T14:54:02Z</time>
      </trkpt>
      <trkpt lat="45.853570606559515" lon="7.937133992090821">
        <ele>1211.8800000000001</ele>
        <time>2019-02-03T14:54:12Z</time>
      </trkpt>
      <trkpt lat="45.85363682359457" lon="7.937138183042407">
        <ele>1210.4400000000001</ele>
        <time>2019-02-03T14:54:23Z</time>
      </trkpt>
      <trkpt lat="45.853713685646653" lon="7.937221499159932">
        <ele>1209</ele>
        <time>2019-02-03T14:54:35Z</time>
      </trkpt>
      <trkpt lat="45.853791050612926" lon="7.937274305149913">
        <ele>1207.55</ele>
        <time>2019-02-03T14:54:46Z</time>
      </trkpt>
      <trkpt lat="45.853882664814591" lon="7.937330296263099">
        <ele>1207.0699999999999</ele>
        <time>2019-02-03T14:54:57Z</time>
      </trkpt>
      <trkpt lat="45.853934800252318" lon="7.93735527433455">
        <ele>1207.0699999999999</ele>
        <time>2019-02-03T14:55:10Z</time>
      </trkpt>
      <trkpt lat="45.85394661873579" lon="7.937363153323531">
        <ele>1208.51</ele>
        <time>2019-02-03T14:55:24Z</time>
      </trkpt>
      <trkpt lat="45.853962544351816" lon="7.937295679003">
        <ele>1210.9200000000001</ele>
        <time>2019-02-03T14:55:40Z</time>
      </trkpt>
      <trkpt lat="45.853953994810581" lon="7.937315879389644">
        <ele>1211.8800000000001</ele>
        <time>2019-02-03T14:55:58Z</time>
      </trkpt>
      <trkpt lat="45.853927675634623" lon="7.937333816662431">
        <ele>1215.24</ele>
        <time>2019-02-03T14:56:13Z</time>
      </trkpt>
      <trkpt lat="45.853945864364505" lon="7.937333816662431">
        <ele>1215.24</ele>
        <time>2019-02-03T14:56:16Z</time>
      </trkpt>
      <trkpt lat="45.853973021730781" lon="7.937356028705835">
        <ele>1215.24</ele>
        <time>2019-02-03T14:56:19Z</time>
      </trkpt>
      <trkpt lat="45.854007136076689" lon="7.937377905473113">
        <ele>1215.24</ele>
        <time>2019-02-03T14:56:23Z</time>
      </trkpt>
      <trkpt lat="45.854035969823599" lon="7.937526265159249">
        <ele>1212.3599999999999</ele>
        <time>2019-02-03T14:56:32Z</time>
      </trkpt>
      <trkpt lat="45.85404141806066" lon="7.937552919611335">
        <ele>1211.8800000000001</ele>
        <time>2019-02-03T14:56:34Z</time>
      </trkpt>
      <trkpt lat="45.854107048362494" lon="7.937785182148218">
        <ele>1209.48</ele>
        <time>2019-02-03T14:56:48Z</time>
      </trkpt>
      <trkpt lat="45.854191537946463" lon="7.937914514914155">
        <ele>1209.96</ele>
        <time>2019-02-03T14:56:59Z</time>
      </trkpt>
      <trkpt lat="45.854236800223589" lon="7.9379000980407">
        <ele>1208.51</ele>
        <time>2019-02-03T14:57:11Z</time>
      </trkpt>
      <trkpt lat="45.854232609272003" lon="7.937918957322836">
        <ele>1209.48</ele>
        <time>2019-02-03T14:57:23Z</time>
      </trkpt>
      <trkpt lat="45.854232860729098" lon="7.93792650103569">
        <ele>1205.6300000000001</ele>
        <time>2019-02-03T14:57:26Z</time>
      </trkpt>
      <trkpt lat="45.854232609272003" lon="7.937957597896457">
        <ele>1202.75</ele>
        <time>2019-02-03T14:57:28Z</time>
      </trkpt>
      <trkpt lat="45.854222970083356" lon="7.937978468835354">
        <ele>1201.79</ele>
        <time>2019-02-03T14:57:30Z</time>
      </trkpt>
      <trkpt lat="45.854162620380521" lon="7.938015516847372">
        <ele>1198.9000000000001</ele>
        <time>2019-02-03T14:57:38Z</time>
      </trkpt>
      <trkpt lat="45.854138061404228" lon="7.93803253211081">
        <ele>1197.9400000000001</ele>
        <time>2019-02-03T14:57:41Z</time>
      </trkpt>
      <trkpt lat="45.854043094441295" lon="7.938039572909474">
        <ele>1196.02</ele>
        <time>2019-02-03T14:57:52Z</time>
      </trkpt>
      <trkpt lat="45.853982577100396" lon="7.938089780509472">
        <ele>1192.6500000000001</ele>
        <time>2019-02-03T14:58:02Z</time>
      </trkpt>
      <trkpt lat="45.853998083621264" lon="7.938125403597951">
        <ele>1191.21</ele>
        <time>2019-02-03T14:58:11Z</time>
      </trkpt>
      <trkpt lat="45.854002190753818" lon="7.938114088028669">
        <ele>1189.29</ele>
        <time>2019-02-03T14:58:19Z</time>
      </trkpt>
      <trkpt lat="45.854013254866004" lon="7.938097910955548">
        <ele>1189.29</ele>
        <time>2019-02-03T14:58:27Z</time>
      </trkpt>
      <trkpt lat="45.854005040600896" lon="7.938078967854381">
        <ele>1188.3299999999999</ele>
        <time>2019-02-03T14:58:35Z</time>
      </trkpt>
      <trkpt lat="45.854010069742799" lon="7.938093887642026">
        <ele>1190.73</ele>
        <time>2019-02-03T14:58:45Z</time>
      </trkpt>
      <trkpt lat="45.853998670354486" lon="7.938119284808636">
        <ele>1191.6900000000001</ele>
        <time>2019-02-03T14:58:50Z</time>
      </trkpt>
      <trkpt lat="45.853981822729111" lon="7.938111741095781">
        <ele>1191.6900000000001</ele>
        <time>2019-02-03T14:58:52Z</time>
      </trkpt>
      <trkpt lat="45.853863134980202" lon="7.938167983666062">
        <ele>1190.73</ele>
        <time>2019-02-03T14:59:03Z</time>
      </trkpt>
      <trkpt lat="45.853731874376535" lon="7.938229758292437">
        <ele>1189.77</ele>
        <time>2019-02-03T14:59:16Z</time>
      </trkpt>
      <trkpt lat="45.853648222982883" lon="7.938273092731834">
        <ele>1188.3299999999999</ele>
        <time>2019-02-03T14:59:26Z</time>
      </trkpt>
      <trkpt lat="45.853607319295406" lon="7.938300082460046">
        <ele>1187.3699999999999</ele>
        <time>2019-02-03T14:59:30Z</time>
      </trkpt>
      <trkpt lat="45.853575887158513" lon="7.938316091895104">
        <ele>1186.4000000000001</ele>
        <time>2019-02-03T14:59:34Z</time>
      </trkpt>
      <trkpt lat="45.853561805561185" lon="7.938346769660711">
        <ele>1185.9200000000001</ele>
        <time>2019-02-03T14:59:36Z</time>
      </trkpt>
      <trkpt lat="45.853510508313775" lon="7.938502756878734">
        <ele>1185.9200000000001</ele>
        <time>2019-02-03T14:59:46Z</time>
      </trkpt>
      <trkpt lat="45.853411518037319" lon="7.938541229814291">
        <ele>1185.9200000000001</ele>
        <time>2019-02-03T14:59:54Z</time>
      </trkpt>
      <trkpt lat="45.853372039273381" lon="7.938566291704774">
        <ele>1185.4400000000001</ele>
        <time>2019-02-03T14:59:58Z</time>
      </trkpt>
      <trkpt lat="45.853341361507773" lon="7.938567716628313">
        <ele>1185.4400000000001</ele>
        <time>2019-02-03T15:00:00Z</time>
      </trkpt>
      <trkpt lat="45.853221584111452" lon="7.93862764723599">
        <ele>1184.96</ele>
        <time>2019-02-03T15:00:10Z</time>
      </trkpt>
      <trkpt lat="45.853185039013624" lon="7.93864868581295">
        <ele>1185.4400000000001</ele>
        <time>2019-02-03T15:00:13Z</time>
      </trkpt>
      <trkpt lat="45.853167101740837" lon="7.938666371628642">
        <ele>1185.4400000000001</ele>
        <time>2019-02-03T15:00:15Z</time>
      </trkpt>
      <trkpt lat="45.853122593834996" lon="7.938683889806271">
        <ele>1184.96</ele>
        <time>2019-02-03T15:00:19Z</time>
      </trkpt>
      <trkpt lat="45.852981274947524" lon="7.938762428238988">
        <ele>1183.52</ele>
        <time>2019-02-03T15:00:31Z</time>
      </trkpt>
      <trkpt lat="45.852913884446025" lon="7.93881238438189">
        <ele>1183.04</ele>
        <time>2019-02-03T15:00:37Z</time>
      </trkpt>
      <trkpt lat="45.852784970775247" lon="7.938914727419615">
        <ele>1182.5599999999999</ele>
        <time>2019-02-03T15:00:50Z</time>
      </trkpt>
      <trkpt lat="45.852650525048375" lon="7.939036013558507">
        <ele>1182.0799999999999</ele>
        <time>2019-02-03T15:01:03Z</time>
      </trkpt>
      <trkpt lat="45.85254717618227" lon="7.939119748771191">
        <ele>1180.6400000000001</ele>
        <time>2019-02-03T15:01:14Z</time>
      </trkpt>
      <trkpt lat="45.852525215595961" lon="7.939131734892726">
        <ele>1180.6400000000001</ele>
        <time>2019-02-03T15:01:16Z</time>
      </trkpt>
      <trkpt lat="45.852394541725516" lon="7.939249416813254">
        <ele>1180.1600000000001</ele>
        <time>2019-02-03T15:01:29Z</time>
      </trkpt>
      <trkpt lat="45.852291360497475" lon="7.939352514222264">
        <ele>1177.75</ele>
        <time>2019-02-03T15:01:40Z</time>
      </trkpt>
      <trkpt lat="45.852155657485127" lon="7.939460724592209">
        <ele>1178.71</ele>
        <time>2019-02-03T15:01:52Z</time>
      </trkpt>
      <trkpt lat="45.852004699409008" lon="7.939586285501719">
        <ele>1178.23</ele>
        <time>2019-02-03T15:02:06Z</time>
      </trkpt>
      <trkpt lat="45.851849466562271" lon="7.93970706872642">
        <ele>1178.23</ele>
        <time>2019-02-03T15:02:20Z</time>
      </trkpt>
      <trkpt lat="45.85171602666378" lon="7.939745541661978">
        <ele>1178.23</ele>
        <time>2019-02-03T15:02:31Z</time>
      </trkpt>
      <trkpt lat="45.851558614522219" lon="7.939813183620572">
        <ele>1177.75</ele>
        <time>2019-02-03T15:02:44Z</time>
      </trkpt>
      <trkpt lat="45.851417966187" lon="7.939865570515394">
        <ele>1176.3099999999999</ele>
        <time>2019-02-03T15:02:56Z</time>
      </trkpt>
      <trkpt lat="45.851270444691181" lon="7.939937571063638">
        <ele>1175.3499999999999</ele>
        <time>2019-02-03T15:03:09Z</time>
      </trkpt>
      <trkpt lat="45.851125102490187" lon="7.940005967393518">
        <ele>1176.3099999999999</ele>
        <time>2019-02-03T15:03:21Z</time>
      </trkpt>
      <trkpt lat="45.850973892956972" lon="7.940091043710709">
        <ele>1175.8299999999999</ele>
        <time>2019-02-03T15:03:34Z</time>
      </trkpt>
      <trkpt lat="45.850828886032104" lon="7.940167151391506">
        <ele>1173.9100000000001</ele>
        <time>2019-02-03T15:03:47Z</time>
      </trkpt>
      <trkpt lat="45.850699720904231" lon="7.940278043970466">
        <ele>1172.47</ele>
        <time>2019-02-03T15:03:59Z</time>
      </trkpt>
      <trkpt lat="45.85054331459105" lon="7.940362365916371">
        <ele>1171.02</ele>
        <time>2019-02-03T15:04:13Z</time>
      </trkpt>
      <trkpt lat="45.85041674785316" lon="7.940455405041575">
        <ele>1170.0599999999999</ele>
        <time>2019-02-03T15:04:25Z</time>
      </trkpt>
      <trkpt lat="45.850261095911264" lon="7.940559675917029">
        <ele>1168.1400000000001</ele>
        <time>2019-02-03T15:04:40Z</time>
      </trkpt>
      <trkpt lat="45.850129164755344" lon="7.940642153844237">
        <ele>1167.1800000000001</ele>
        <time>2019-02-03T15:04:52Z</time>
      </trkpt>
      <trkpt lat="45.850108461454511" lon="7.940627234056592">
        <ele>1169.5799999999999</ele>
        <time>2019-02-03T15:04:59Z</time>
      </trkpt>
      <trkpt lat="45.850112484768033" lon="7.940626898780465">
        <ele>1169.5799999999999</ele>
        <time>2019-02-03T15:05:00Z</time>
      </trkpt>
      <trkpt lat="45.850097481161356" lon="7.940647434443235">
        <ele>1171.02</ele>
        <time>2019-02-03T15:05:09Z</time>
      </trkpt>
      <trkpt lat="45.850105695426464" lon="7.940643494948745">
        <ele>1172.95</ele>
        <time>2019-02-03T15:05:14Z</time>
      </trkpt>
      <trkpt lat="45.850089769810438" lon="7.940672747790813">
        <ele>1172.47</ele>
        <time>2019-02-03T15:05:26Z</time>
      </trkpt>
      <trkpt lat="45.849951468408108" lon="7.940733013674617">
        <ele>1169.5799999999999</ele>
        <time>2019-02-03T15:05:38Z</time>
      </trkpt>
      <trkpt lat="45.849866392090917" lon="7.940798895433545">
        <ele>1169.0999999999999</ele>
        <time>2019-02-03T15:05:48Z</time>
      </trkpt>
      <trkpt lat="45.849870415404439" lon="7.940789004787803">
        <ele>1170.0599999999999</ele>
        <time>2019-02-03T15:05:57Z</time>
      </trkpt>
      <trkpt lat="45.849873600527644" lon="7.940802499651909">
        <ele>1170.0599999999999</ele>
        <time>2019-02-03T15:06:00Z</time>
      </trkpt>
      <trkpt lat="45.849810065701604" lon="7.940890090540052">
        <ele>1170.0599999999999</ele>
        <time>2019-02-03T15:06:06Z</time>
      </trkpt>
      <trkpt lat="45.849700849503279" lon="7.940911380574107">
        <ele>1171.02</ele>
        <time>2019-02-03T15:06:13Z</time>
      </trkpt>
      <trkpt lat="45.849679224193096" lon="7.940906519070268">
        <ele>1171.02</ele>
        <time>2019-02-03T15:06:15Z</time>
      </trkpt>
      <trkpt lat="45.84963102824986" lon="7.940909201279283">
        <ele>1171.02</ele>
        <time>2019-02-03T15:06:19Z</time>
      </trkpt>
      <trkpt lat="45.849605547264218" lon="7.940903920680285">
        <ele>1171.02</ele>
        <time>2019-02-03T15:06:21Z</time>
      </trkpt>
      <trkpt lat="45.849546873942018" lon="7.940907776355743">
        <ele>1170.54</ele>
        <time>2019-02-03T15:06:26Z</time>
      </trkpt>
      <trkpt lat="45.849348977208138" lon="7.940873159095645">
        <ele>1170.0599999999999</ele>
        <time>2019-02-03T15:06:41Z</time>
      </trkpt>
      <trkpt lat="45.849225092679262" lon="7.940833428874612">
        <ele>1166.7</ele>
        <time>2019-02-03T15:06:52Z</time>
      </trkpt>
      <trkpt lat="45.849043289199471" lon="7.940784059464932">
        <ele>1166.22</ele>
        <time>2019-02-03T15:07:06Z</time>
      </trkpt>
      <trkpt lat="45.848893672227859" lon="7.940724631771445">
        <ele>1165.74</ele>
        <time>2019-02-03T15:07:18Z</time>
      </trkpt>
      <trkpt lat="45.848735170438886" lon="7.940634358674288">
        <ele>1165.74</ele>
        <time>2019-02-03T15:07:31Z</time>
      </trkpt>
      <trkpt lat="45.848563341423869" lon="7.940522292628884">
        <ele>1164.77</ele>
        <time>2019-02-03T15:07:46Z</time>
      </trkpt>
      <trkpt lat="45.84841825067997" lon="7.940415004268289">
        <ele>1162.3699999999999</ele>
        <time>2019-02-03T15:07:59Z</time>
      </trkpt>
      <trkpt lat="45.848254971206188" lon="7.940289359539747">
        <ele>1161.4100000000001</ele>
        <time>2019-02-03T15:08:13Z</time>
      </trkpt>
      <trkpt lat="45.848214821889997" lon="7.940258095040917">
        <ele>1161.4100000000001</ele>
        <time>2019-02-03T15:08:16Z</time>
      </trkpt>
      <trkpt lat="45.848180875182152" lon="7.940217945724726">
        <ele>1161.4100000000001</ele>
        <time>2019-02-03T15:08:19Z</time>
      </trkpt>
      <trkpt lat="45.848160088062286" lon="7.940195398405194">
        <ele>1161.4100000000001</ele>
        <time>2019-02-03T15:08:21Z</time>
      </trkpt>
      <trkpt lat="45.847997479140759" lon="7.940046284347773">
        <ele>1160.9300000000001</ele>
        <time>2019-02-03T15:08:36Z</time>
      </trkpt>
      <trkpt lat="45.84786563180387" lon="7.939912341535091">
        <ele>1160.45</ele>
        <time>2019-02-03T15:08:48Z</time>
      </trkpt>
      <trkpt lat="45.847717104479671" lon="7.939771860837936">
        <ele>1159.97</ele>
        <time>2019-02-03T15:09:01Z</time>
      </trkpt>
      <trkpt lat="45.847542677074671" lon="7.939578490331769">
        <ele>1160.45</ele>
        <time>2019-02-03T15:09:17Z</time>
      </trkpt>
      <trkpt lat="45.847380319610238" lon="7.939398195594549">
        <ele>1160.9300000000001</ele>
        <time>2019-02-03T15:09:32Z</time>
      </trkpt>
      <trkpt lat="45.847236989066005" lon="7.939250003546476">
        <ele>1162.3699999999999</ele>
        <time>2019-02-03T15:09:45Z</time>
      </trkpt>
      <trkpt lat="45.847059208899736" lon="7.939207507297397">
        <ele>1161.4100000000001</ele>
        <time>2019-02-03T15:09:59Z</time>
      </trkpt>
      <trkpt lat="45.846870448440313" lon="7.939231898635626">
        <ele>1161.8900000000001</ele>
        <time>2019-02-03T15:10:14Z</time>
      </trkpt>
      <trkpt lat="45.846699960529804" lon="7.939238604158163">
        <ele>1159.49</ele>
        <time>2019-02-03T15:10:28Z</time>
      </trkpt>
      <trkpt lat="45.846577836200595" lon="7.939241202548146">
        <ele>1157.5599999999999</ele>
        <time>2019-02-03T15:10:39Z</time>
      </trkpt>
      <trkpt lat="45.846422016620636" lon="7.93928730301559">
        <ele>1156.1199999999999</ele>
        <time>2019-02-03T15:10:52Z</time>
      </trkpt>
      <trkpt lat="45.846251780167222" lon="7.939326697960496">
        <ele>1157.5599999999999</ele>
        <time>2019-02-03T15:11:06Z</time>
      </trkpt>
      <trkpt lat="45.846162680536509" lon="7.939328122884035">
        <ele>1155.1600000000001</ele>
        <time>2019-02-03T15:11:17Z</time>
      </trkpt>
      <trkpt lat="45.846183635294437" lon="7.939366344362497">
        <ele>1157.0799999999999</ele>
        <time>2019-02-03T15:11:25Z</time>
      </trkpt>
      <trkpt lat="45.846156142652035" lon="7.939425017684698">
        <ele>1156.5999999999999</ele>
        <time>2019-02-03T15:11:34Z</time>
      </trkpt>
      <trkpt lat="45.846148515120149" lon="7.939428873360157">
        <ele>1159.49</ele>
        <time>2019-02-03T15:11:45Z</time>
      </trkpt>
      <trkpt lat="45.846143737435341" lon="7.939430382102728">
        <ele>1160.45</ele>
        <time>2019-02-03T15:11:56Z</time>
      </trkpt>
      <trkpt lat="45.846147425472736" lon="7.939413534477353">
        <ele>1159.49</ele>
        <time>2019-02-03T15:12:10Z</time>
      </trkpt>
      <trkpt lat="45.846148012205958" lon="7.939445553347468">
        <ele>1159.97</ele>
        <time>2019-02-03T15:12:27Z</time>
      </trkpt>
      <trkpt lat="45.846156058833003" lon="7.939417809247971">
        <ele>1159.01</ele>
        <time>2019-02-03T15:12:37Z</time>
      </trkpt>
    </trkseg>
  </trk>

</gpx>